<?xml version="1.0" encoding="UTF-8" standalone="no" ?>
<gpx xmlns="http://www.topografix.com/GPX/1/1" xmlns:xsi="http://www.w3.org/2001/XMLSchema-instance" xsi:schemaLocation="http://www.topografix.com/GPX/1/1 http://www.topografix.com/GPX/1/1/gpx.xsd" version="1.1" creator="VisuGPX - https://www.visugpx.com">
  <metadata>
    <name>19.05.2021 -Verdon jour 3. Venascle Blieux</name>
    <desc><![CDATA[A Peicard prendre à gauche pour un poussage jusqu'à la crête des traversières. magnifique. La descente sur Blieux un bijoux. ]]></desc>
  </metadata>
  <trk>
    <name><![CDATA[13211202-Verdon jour 3. Venascle Blieux]]></name>
    <extensions>
      <line xmlns="http://www.topografix.com/GPX/gpx_style/0/2">
        <color>0000FF</color>
        <width>4</width>
      </line>
    </extensions>
    <trkseg>
      <trkpt lat="43.84562" lon="6.25181">
        <ele>943</ele>
        <time>2022-06-09T17:03:27Z</time>
      </trkpt>
      <trkpt lat="43.84559" lon="6.2517">
        <ele>943</ele>
        <time>2022-06-09T17:03:29Z</time>
      </trkpt>
      <trkpt lat="43.84559" lon="6.25146">
        <ele>943</ele>
        <time>2022-06-09T17:03:33Z</time>
      </trkpt>
      <trkpt lat="43.84569" lon="6.25116">
        <ele>944</ele>
        <time>2022-06-09T17:03:39Z</time>
      </trkpt>
      <trkpt lat="43.84583" lon="6.25091">
        <ele>945</ele>
        <time>2022-06-09T17:03:44Z</time>
      </trkpt>
      <trkpt lat="43.84593" lon="6.25059">
        <ele>947</ele>
        <time>2022-06-09T17:03:50Z</time>
      </trkpt>
      <trkpt lat="43.84575" lon="6.24994">
        <ele>947</ele>
        <time>2022-06-09T17:04:02Z</time>
      </trkpt>
      <trkpt lat="43.84573" lon="6.24958">
        <ele>946</ele>
        <time>2022-06-09T17:04:08Z</time>
      </trkpt>
      <trkpt lat="43.84563" lon="6.24926">
        <ele>944</ele>
        <time>2022-06-09T17:04:13Z</time>
      </trkpt>
      <trkpt lat="43.84564" lon="6.24894">
        <ele>941</ele>
        <time>2022-06-09T17:04:19Z</time>
      </trkpt>
      <trkpt lat="43.84575" lon="6.2488">
        <ele>941</ele>
        <time>2022-06-09T17:04:22Z</time>
      </trkpt>
      <trkpt lat="43.8462" lon="6.24865">
        <ele>947</ele>
        <time>2022-06-09T17:04:33Z</time>
      </trkpt>
      <trkpt lat="43.84831" lon="6.24756">
        <ele>971</ele>
        <time>2022-06-09T17:05:26Z</time>
      </trkpt>
      <trkpt lat="43.84849" lon="6.2475">
        <ele>971</ele>
        <time>2022-06-09T17:05:30Z</time>
      </trkpt>
      <trkpt lat="43.84874" lon="6.24754">
        <ele>972</ele>
        <time>2022-06-09T17:05:36Z</time>
      </trkpt>
      <trkpt lat="43.84913" lon="6.24748">
        <ele>973</ele>
        <time>2022-06-09T17:05:45Z</time>
      </trkpt>
      <trkpt lat="43.84945" lon="6.24732">
        <ele>971</ele>
        <time>2022-06-09T17:05:53Z</time>
      </trkpt>
      <trkpt lat="43.85107" lon="6.2463">
        <ele>961</ele>
        <time>2022-06-09T17:06:35Z</time>
      </trkpt>
      <trkpt lat="43.85201" lon="6.24546">
        <ele>960</ele>
        <time>2022-06-09T17:07:01Z</time>
      </trkpt>
      <trkpt lat="43.8526" lon="6.24511">
        <ele>965</ele>
        <time>2022-06-09T17:07:16Z</time>
      </trkpt>
      <trkpt lat="43.8534" lon="6.24459">
        <ele>962</ele>
        <time>2022-06-09T17:07:36Z</time>
      </trkpt>
      <trkpt lat="43.85417" lon="6.24422">
        <ele>955</ele>
        <time>2022-06-09T17:07:55Z</time>
      </trkpt>
      <trkpt lat="43.85434" lon="6.24422">
        <ele>954</ele>
        <time>2022-06-09T17:07:59Z</time>
      </trkpt>
      <trkpt lat="43.85442" lon="6.24425">
        <ele>954</ele>
        <time>2022-06-09T17:08:01Z</time>
      </trkpt>
      <trkpt lat="43.85497" lon="6.24455">
        <ele>952</ele>
        <time>2022-06-09T17:08:15Z</time>
      </trkpt>
      <trkpt lat="43.85504" lon="6.24456">
        <ele>953</ele>
        <time>2022-06-09T17:08:17Z</time>
      </trkpt>
      <trkpt lat="43.85517" lon="6.24455">
        <ele>953</ele>
        <time>2022-06-09T17:08:20Z</time>
      </trkpt>
      <trkpt lat="43.85556" lon="6.24438">
        <ele>954</ele>
        <time>2022-06-09T17:08:29Z</time>
      </trkpt>
      <trkpt lat="43.85578" lon="6.24437">
        <ele>955</ele>
        <time>2022-06-09T17:08:34Z</time>
      </trkpt>
      <trkpt lat="43.85613" lon="6.24446">
        <ele>956</ele>
        <time>2022-06-09T17:08:43Z</time>
      </trkpt>
      <trkpt lat="43.85658" lon="6.24449">
        <ele>957</ele>
        <time>2022-06-09T17:08:53Z</time>
      </trkpt>
      <trkpt lat="43.85674" lon="6.24443">
        <ele>957</ele>
        <time>2022-06-09T17:08:57Z</time>
      </trkpt>
      <trkpt lat="43.8568" lon="6.24419">
        <ele>957</ele>
        <time>2022-06-09T17:09:01Z</time>
      </trkpt>
      <trkpt lat="43.85679" lon="6.24403">
        <ele>956</ele>
        <time>2022-06-09T17:09:04Z</time>
      </trkpt>
      <trkpt lat="43.85666" lon="6.24403">
        <ele>955</ele>
        <time>2022-06-09T17:09:07Z</time>
      </trkpt>
      <trkpt lat="43.85664" lon="6.244">
        <ele>955</ele>
        <time>2022-06-09T17:09:08Z</time>
      </trkpt>
      <trkpt lat="43.85619" lon="6.24301">
        <ele>951</ele>
        <time>2022-06-09T17:09:28Z</time>
      </trkpt>
      <trkpt lat="43.85608" lon="6.24269">
        <ele>952</ele>
        <time>2022-06-09T17:09:34Z</time>
      </trkpt>
      <trkpt lat="43.8561" lon="6.24256">
        <ele>952</ele>
        <time>2022-06-09T17:09:36Z</time>
      </trkpt>
      <trkpt lat="43.85639" lon="6.24217">
        <ele>955</ele>
        <time>2022-06-09T17:09:45Z</time>
      </trkpt>
      <trkpt lat="43.85615" lon="6.24247">
        <ele>953</ele>
        <time>2022-06-09T17:09:53Z</time>
      </trkpt>
      <trkpt lat="43.85618" lon="6.24246">
        <ele>953</ele>
        <time>2022-06-09T17:09:53Z</time>
      </trkpt>
      <trkpt lat="43.85641" lon="6.24217">
        <ele>955</ele>
        <time>2022-06-09T17:10:01Z</time>
      </trkpt>
      <trkpt lat="43.85648" lon="6.24199">
        <ele>956</ele>
        <time>2022-06-09T17:10:04Z</time>
      </trkpt>
      <trkpt lat="43.85644" lon="6.24188">
        <ele>956</ele>
        <time>2022-06-09T17:10:06Z</time>
      </trkpt>
      <trkpt lat="43.85615" lon="6.24144">
        <ele>959</ele>
        <time>2022-06-09T17:10:16Z</time>
      </trkpt>
      <trkpt lat="43.85614" lon="6.24116">
        <ele>962</ele>
        <time>2022-06-09T17:10:21Z</time>
      </trkpt>
      <trkpt lat="43.85621" lon="6.2406">
        <ele>966</ele>
        <time>2022-06-09T17:10:31Z</time>
      </trkpt>
      <trkpt lat="43.85628" lon="6.24041">
        <ele>967</ele>
        <time>2022-06-09T17:10:34Z</time>
      </trkpt>
      <trkpt lat="43.85633" lon="6.24018">
        <ele>968</ele>
        <time>2022-06-09T17:10:38Z</time>
      </trkpt>
      <trkpt lat="43.8563" lon="6.23977">
        <ele>970</ele>
        <time>2022-06-09T17:10:45Z</time>
      </trkpt>
      <trkpt lat="43.85616" lon="6.23938">
        <ele>972</ele>
        <time>2022-06-09T17:10:52Z</time>
      </trkpt>
      <trkpt lat="43.85627" lon="6.23762">
        <ele>975</ele>
        <time>2022-06-09T17:11:22Z</time>
      </trkpt>
      <trkpt lat="43.85633" lon="6.23723">
        <ele>975</ele>
        <time>2022-06-09T17:11:29Z</time>
      </trkpt>
      <trkpt lat="43.85641" lon="6.23692">
        <ele>975</ele>
        <time>2022-06-09T17:11:35Z</time>
      </trkpt>
      <trkpt lat="43.85658" lon="6.23657">
        <ele>976</ele>
        <time>2022-06-09T17:11:42Z</time>
      </trkpt>
      <trkpt lat="43.85677" lon="6.23625">
        <ele>976</ele>
        <time>2022-06-09T17:11:49Z</time>
      </trkpt>
      <trkpt lat="43.85691" lon="6.23592">
        <ele>976</ele>
        <time>2022-06-09T17:11:55Z</time>
      </trkpt>
      <trkpt lat="43.8572" lon="6.23555">
        <ele>976</ele>
        <time>2022-06-09T17:12:04Z</time>
      </trkpt>
      <trkpt lat="43.85738" lon="6.23536">
        <ele>976</ele>
        <time>2022-06-09T17:12:10Z</time>
      </trkpt>
      <trkpt lat="43.85799" lon="6.23526">
        <ele>973</ele>
        <time>2022-06-09T17:12:24Z</time>
      </trkpt>
      <trkpt lat="43.85829" lon="6.23528">
        <ele>972</ele>
        <time>2022-06-09T17:12:31Z</time>
      </trkpt>
      <trkpt lat="43.85853" lon="6.23534">
        <ele>970</ele>
        <time>2022-06-09T17:12:37Z</time>
      </trkpt>
      <trkpt lat="43.85869" lon="6.23542">
        <ele>970</ele>
        <time>2022-06-09T17:12:41Z</time>
      </trkpt>
      <trkpt lat="43.85872" lon="6.2354">
        <ele>969</ele>
        <time>2022-06-09T17:12:41Z</time>
      </trkpt>
      <trkpt lat="43.85873" lon="6.23532">
        <ele>967</ele>
        <time>2022-06-09T17:12:43Z</time>
      </trkpt>
      <trkpt lat="43.85866" lon="6.23497">
        <ele>961</ele>
        <time>2022-06-09T17:12:49Z</time>
      </trkpt>
      <trkpt lat="43.85922" lon="6.23524">
        <ele>959</ele>
        <time>2022-06-09T17:13:03Z</time>
      </trkpt>
      <trkpt lat="43.85974" lon="6.23541">
        <ele>954</ele>
        <time>2022-06-09T17:13:15Z</time>
      </trkpt>
      <trkpt lat="43.85975" lon="6.23536">
        <ele>953</ele>
        <time>2022-06-09T17:13:16Z</time>
      </trkpt>
      <trkpt lat="43.85972" lon="6.23523">
        <ele>951</ele>
        <time>2022-06-09T17:13:18Z</time>
      </trkpt>
      <trkpt lat="43.85947" lon="6.23469">
        <ele>945</ele>
        <time>2022-06-09T17:13:29Z</time>
      </trkpt>
      <trkpt lat="43.85944" lon="6.23456">
        <ele>943</ele>
        <time>2022-06-09T17:13:31Z</time>
      </trkpt>
      <trkpt lat="43.85949" lon="6.23453">
        <ele>943</ele>
        <time>2022-06-09T17:13:33Z</time>
      </trkpt>
      <trkpt lat="43.85956" lon="6.23455">
        <ele>942</ele>
        <time>2022-06-09T17:13:34Z</time>
      </trkpt>
      <trkpt lat="43.85992" lon="6.23489">
        <ele>943</ele>
        <time>2022-06-09T17:13:45Z</time>
      </trkpt>
      <trkpt lat="43.86005" lon="6.23495">
        <ele>943</ele>
        <time>2022-06-09T17:13:48Z</time>
      </trkpt>
      <trkpt lat="43.86007" lon="6.23492">
        <ele>943</ele>
        <time>2022-06-09T17:13:48Z</time>
      </trkpt>
      <trkpt lat="43.86006" lon="6.23478">
        <ele>941</ele>
        <time>2022-06-09T17:13:51Z</time>
      </trkpt>
      <trkpt lat="43.85994" lon="6.23431">
        <ele>936</ele>
        <time>2022-06-09T17:13:59Z</time>
      </trkpt>
      <trkpt lat="43.85989" lon="6.23423">
        <ele>935</ele>
        <time>2022-06-09T17:14:01Z</time>
      </trkpt>
      <trkpt lat="43.85988" lon="6.23398">
        <ele>934</ele>
        <time>2022-06-09T17:14:05Z</time>
      </trkpt>
      <trkpt lat="43.85997" lon="6.23383">
        <ele>934</ele>
        <time>2022-06-09T17:14:08Z</time>
      </trkpt>
      <trkpt lat="43.86015" lon="6.23375">
        <ele>934</ele>
        <time>2022-06-09T17:14:13Z</time>
      </trkpt>
      <trkpt lat="43.86024" lon="6.23365">
        <ele>935</ele>
        <time>2022-06-09T17:14:16Z</time>
      </trkpt>
      <trkpt lat="43.86021" lon="6.23362">
        <ele>935</ele>
        <time>2022-06-09T17:14:16Z</time>
      </trkpt>
      <trkpt lat="43.85966" lon="6.23374">
        <ele>934</ele>
        <time>2022-06-09T17:14:29Z</time>
      </trkpt>
      <trkpt lat="43.85958" lon="6.23381">
        <ele>935</ele>
        <time>2022-06-09T17:14:32Z</time>
      </trkpt>
      <trkpt lat="43.85952" lon="6.23376">
        <ele>935</ele>
        <time>2022-06-09T17:14:33Z</time>
      </trkpt>
      <trkpt lat="43.85939" lon="6.23371">
        <ele>935</ele>
        <time>2022-06-09T17:14:36Z</time>
      </trkpt>
      <trkpt lat="43.85933" lon="6.23362">
        <ele>934</ele>
        <time>2022-06-09T17:14:38Z</time>
      </trkpt>
      <trkpt lat="43.85909" lon="6.23357">
        <ele>934</ele>
        <time>2022-06-09T17:14:44Z</time>
      </trkpt>
      <trkpt lat="43.85894" lon="6.23351">
        <ele>934</ele>
        <time>2022-06-09T17:14:48Z</time>
      </trkpt>
      <trkpt lat="43.85893" lon="6.23345">
        <ele>934</ele>
        <time>2022-06-09T17:14:49Z</time>
      </trkpt>
      <trkpt lat="43.85885" lon="6.23336">
        <ele>933</ele>
        <time>2022-06-09T17:14:51Z</time>
      </trkpt>
      <trkpt lat="43.85865" lon="6.23285">
        <ele>938</ele>
        <time>2022-06-09T17:15:01Z</time>
      </trkpt>
      <trkpt lat="43.8586" lon="6.23266">
        <ele>939</ele>
        <time>2022-06-09T17:15:04Z</time>
      </trkpt>
      <trkpt lat="43.85862" lon="6.23257">
        <ele>941</ele>
        <time>2022-06-09T17:15:06Z</time>
      </trkpt>
      <trkpt lat="43.85862" lon="6.2324">
        <ele>944</ele>
        <time>2022-06-09T17:15:09Z</time>
      </trkpt>
      <trkpt lat="43.8586" lon="6.23235">
        <ele>945</ele>
        <time>2022-06-09T17:15:10Z</time>
      </trkpt>
      <trkpt lat="43.85854" lon="6.23227">
        <ele>945</ele>
        <time>2022-06-09T17:15:12Z</time>
      </trkpt>
      <trkpt lat="43.85832" lon="6.23211">
        <ele>944</ele>
        <time>2022-06-09T17:15:18Z</time>
      </trkpt>
      <trkpt lat="43.85821" lon="6.2319">
        <ele>947</ele>
        <time>2022-06-09T17:15:22Z</time>
      </trkpt>
      <trkpt lat="43.85819" lon="6.2319">
        <ele>946</ele>
        <time>2022-06-09T17:15:22Z</time>
      </trkpt>
      <trkpt lat="43.85817" lon="6.23181">
        <ele>947</ele>
        <time>2022-06-09T17:15:24Z</time>
      </trkpt>
      <trkpt lat="43.85799" lon="6.23147">
        <ele>948</ele>
        <time>2022-06-09T17:15:31Z</time>
      </trkpt>
      <trkpt lat="43.85795" lon="6.23134">
        <ele>949</ele>
        <time>2022-06-09T17:15:33Z</time>
      </trkpt>
      <trkpt lat="43.8579" lon="6.23104">
        <ele>951</ele>
        <time>2022-06-09T17:15:39Z</time>
      </trkpt>
      <trkpt lat="43.85793" lon="6.23075">
        <ele>956</ele>
        <time>2022-06-09T17:15:44Z</time>
      </trkpt>
      <trkpt lat="43.85788" lon="6.23067">
        <ele>955</ele>
        <time>2022-06-09T17:15:45Z</time>
      </trkpt>
      <trkpt lat="43.85786" lon="6.23057">
        <ele>956</ele>
        <time>2022-06-09T17:15:47Z</time>
      </trkpt>
      <trkpt lat="43.85784" lon="6.23034">
        <ele>959</ele>
        <time>2022-06-09T17:15:51Z</time>
      </trkpt>
      <trkpt lat="43.85786" lon="6.2303">
        <ele>961</ele>
        <time>2022-06-09T17:15:52Z</time>
      </trkpt>
      <trkpt lat="43.85778" lon="6.23007">
        <ele>962</ele>
        <time>2022-06-09T17:15:56Z</time>
      </trkpt>
      <trkpt lat="43.85778" lon="6.22981">
        <ele>966</ele>
        <time>2022-06-09T17:16:01Z</time>
      </trkpt>
      <trkpt lat="43.85775" lon="6.22964">
        <ele>968</ele>
        <time>2022-06-09T17:16:03Z</time>
      </trkpt>
      <trkpt lat="43.8574" lon="6.2292">
        <ele>967</ele>
        <time>2022-06-09T17:16:15Z</time>
      </trkpt>
      <trkpt lat="43.85739" lon="6.22913">
        <ele>969</ele>
        <time>2022-06-09T17:16:16Z</time>
      </trkpt>
      <trkpt lat="43.85718" lon="6.22875">
        <ele>972</ele>
        <time>2022-06-09T17:16:24Z</time>
      </trkpt>
      <trkpt lat="43.85721" lon="6.22869">
        <ele>974</ele>
        <time>2022-06-09T17:16:25Z</time>
      </trkpt>
      <trkpt lat="43.85738" lon="6.22874">
        <ele>975</ele>
        <time>2022-06-09T17:16:29Z</time>
      </trkpt>
      <trkpt lat="43.85808" lon="6.22879">
        <ele>985</ele>
        <time>2022-06-09T17:16:45Z</time>
      </trkpt>
      <trkpt lat="43.85809" lon="6.22873">
        <ele>986</ele>
        <time>2022-06-09T17:16:46Z</time>
      </trkpt>
      <trkpt lat="43.85802" lon="6.22859">
        <ele>986</ele>
        <time>2022-06-09T17:16:49Z</time>
      </trkpt>
      <trkpt lat="43.85783" lon="6.2284">
        <ele>985</ele>
        <time>2022-06-09T17:16:55Z</time>
      </trkpt>
      <trkpt lat="43.85769" lon="6.22821">
        <ele>985</ele>
        <time>2022-06-09T17:16:59Z</time>
      </trkpt>
      <trkpt lat="43.85758" lon="6.228">
        <ele>985</ele>
        <time>2022-06-09T17:17:04Z</time>
      </trkpt>
      <trkpt lat="43.85749" lon="6.22768">
        <ele>984</ele>
        <time>2022-06-09T17:17:10Z</time>
      </trkpt>
      <trkpt lat="43.85724" lon="6.22698">
        <ele>980</ele>
        <time>2022-06-09T17:17:23Z</time>
      </trkpt>
      <trkpt lat="43.85697" lon="6.22675">
        <ele>977</ele>
        <time>2022-06-09T17:17:30Z</time>
      </trkpt>
      <trkpt lat="43.85691" lon="6.22673">
        <ele>976</ele>
        <time>2022-06-09T17:17:32Z</time>
      </trkpt>
      <trkpt lat="43.85661" lon="6.22629">
        <ele>969</ele>
        <time>2022-06-09T17:17:42Z</time>
      </trkpt>
      <trkpt lat="43.8566" lon="6.2261">
        <ele>967</ele>
        <time>2022-06-09T17:17:45Z</time>
      </trkpt>
      <trkpt lat="43.85666" lon="6.22546">
        <ele>965</ele>
        <time>2022-06-09T17:17:56Z</time>
      </trkpt>
      <trkpt lat="43.85659" lon="6.22503">
        <ele>960</ele>
        <time>2022-06-09T17:18:03Z</time>
      </trkpt>
      <trkpt lat="43.85659" lon="6.22491">
        <ele>960</ele>
        <time>2022-06-09T17:18:05Z</time>
      </trkpt>
      <trkpt lat="43.85664" lon="6.22463">
        <ele>961</ele>
        <time>2022-06-09T17:18:10Z</time>
      </trkpt>
      <trkpt lat="43.85694" lon="6.22376">
        <ele>960</ele>
        <time>2022-06-09T17:18:26Z</time>
      </trkpt>
      <trkpt lat="43.8571" lon="6.22347">
        <ele>957</ele>
        <time>2022-06-09T17:18:32Z</time>
      </trkpt>
      <trkpt lat="43.85724" lon="6.22308">
        <ele>953</ele>
        <time>2022-06-09T17:18:40Z</time>
      </trkpt>
      <trkpt lat="43.85747" lon="6.2222">
        <ele>942</ele>
        <time>2022-06-09T17:18:56Z</time>
      </trkpt>
      <trkpt lat="43.85747" lon="6.22204">
        <ele>942</ele>
        <time>2022-06-09T17:18:58Z</time>
      </trkpt>
      <trkpt lat="43.85755" lon="6.22141">
        <ele>940</ele>
        <time>2022-06-09T17:19:09Z</time>
      </trkpt>
      <trkpt lat="43.8576" lon="6.22125">
        <ele>940</ele>
        <time>2022-06-09T17:19:12Z</time>
      </trkpt>
      <trkpt lat="43.85805" lon="6.2206">
        <ele>932</ele>
        <time>2022-06-09T17:19:27Z</time>
      </trkpt>
      <trkpt lat="43.8582" lon="6.22033">
        <ele>928</ele>
        <time>2022-06-09T17:19:33Z</time>
      </trkpt>
      <trkpt lat="43.85867" lon="6.21969">
        <ele>924</ele>
        <time>2022-06-09T17:19:48Z</time>
      </trkpt>
      <trkpt lat="43.8587" lon="6.21952">
        <ele>922</ele>
        <time>2022-06-09T17:19:51Z</time>
      </trkpt>
      <trkpt lat="43.85869" lon="6.2194">
        <ele>922</ele>
        <time>2022-06-09T17:19:53Z</time>
      </trkpt>
      <trkpt lat="43.85873" lon="6.21923">
        <ele>920</ele>
        <time>2022-06-09T17:19:56Z</time>
      </trkpt>
      <trkpt lat="43.85881" lon="6.21906">
        <ele>916</ele>
        <time>2022-06-09T17:20:00Z</time>
      </trkpt>
      <trkpt lat="43.85897" lon="6.21834">
        <ele>907</ele>
        <time>2022-06-09T17:20:12Z</time>
      </trkpt>
      <trkpt lat="43.85896" lon="6.21794">
        <ele>904</ele>
        <time>2022-06-09T17:20:19Z</time>
      </trkpt>
      <trkpt lat="43.85884" lon="6.21744">
        <ele>902</ele>
        <time>2022-06-09T17:20:28Z</time>
      </trkpt>
      <trkpt lat="43.85879" lon="6.21732">
        <ele>902</ele>
        <time>2022-06-09T17:20:30Z</time>
      </trkpt>
      <trkpt lat="43.85872" lon="6.21723">
        <ele>902</ele>
        <time>2022-06-09T17:20:33Z</time>
      </trkpt>
      <trkpt lat="43.85831" lon="6.21686">
        <ele>906</ele>
        <time>2022-06-09T17:20:44Z</time>
      </trkpt>
      <trkpt lat="43.85795" lon="6.21642">
        <ele>899</ele>
        <time>2022-06-09T17:20:55Z</time>
      </trkpt>
      <trkpt lat="43.85754" lon="6.216">
        <ele>892</ele>
        <time>2022-06-09T17:21:07Z</time>
      </trkpt>
      <trkpt lat="43.85743" lon="6.21597">
        <ele>890</ele>
        <time>2022-06-09T17:21:10Z</time>
      </trkpt>
      <trkpt lat="43.85728" lon="6.21603">
        <ele>888</ele>
        <time>2022-06-09T17:21:13Z</time>
      </trkpt>
      <trkpt lat="43.85723" lon="6.21602">
        <ele>886</ele>
        <time>2022-06-09T17:21:15Z</time>
      </trkpt>
      <trkpt lat="43.85735" lon="6.2159">
        <ele>886</ele>
        <time>2022-06-09T17:21:18Z</time>
      </trkpt>
      <trkpt lat="43.85735" lon="6.21584">
        <ele>884</ele>
        <time>2022-06-09T17:21:19Z</time>
      </trkpt>
      <trkpt lat="43.85728" lon="6.21579">
        <ele>880</ele>
        <time>2022-06-09T17:21:21Z</time>
      </trkpt>
      <trkpt lat="43.85734" lon="6.21573">
        <ele>880</ele>
        <time>2022-06-09T17:21:23Z</time>
      </trkpt>
      <trkpt lat="43.85735" lon="6.21568">
        <ele>878</ele>
        <time>2022-06-09T17:21:23Z</time>
      </trkpt>
      <trkpt lat="43.85728" lon="6.21564">
        <ele>875</ele>
        <time>2022-06-09T17:21:25Z</time>
      </trkpt>
      <trkpt lat="43.85728" lon="6.2156">
        <ele>873</ele>
        <time>2022-06-09T17:21:26Z</time>
      </trkpt>
      <trkpt lat="43.85734" lon="6.21557">
        <ele>874</ele>
        <time>2022-06-09T17:21:27Z</time>
      </trkpt>
      <trkpt lat="43.85747" lon="6.21557">
        <ele>877</ele>
        <time>2022-06-09T17:21:30Z</time>
      </trkpt>
      <trkpt lat="43.8575" lon="6.21553">
        <ele>876</ele>
        <time>2022-06-09T17:21:31Z</time>
      </trkpt>
      <trkpt lat="43.85748" lon="6.21547">
        <ele>873</ele>
        <time>2022-06-09T17:21:33Z</time>
      </trkpt>
      <trkpt lat="43.85739" lon="6.21537">
        <ele>868</ele>
        <time>2022-06-09T17:21:35Z</time>
      </trkpt>
      <trkpt lat="43.85728" lon="6.21532">
        <ele>864</ele>
        <time>2022-06-09T17:21:38Z</time>
      </trkpt>
      <trkpt lat="43.85712" lon="6.21529">
        <ele>860</ele>
        <time>2022-06-09T17:21:42Z</time>
      </trkpt>
      <trkpt lat="43.85693" lon="6.21533">
        <ele>857</ele>
        <time>2022-06-09T17:21:46Z</time>
      </trkpt>
      <trkpt lat="43.85665" lon="6.21543">
        <ele>854</ele>
        <time>2022-06-09T17:21:53Z</time>
      </trkpt>
      <trkpt lat="43.85618" lon="6.2159">
        <ele>847</ele>
        <time>2022-06-09T17:22:06Z</time>
      </trkpt>
      <trkpt lat="43.85614" lon="6.21598">
        <ele>848</ele>
        <time>2022-06-09T17:22:08Z</time>
      </trkpt>
      <trkpt lat="43.85598" lon="6.21608">
        <ele>845</ele>
        <time>2022-06-09T17:22:12Z</time>
      </trkpt>
      <trkpt lat="43.85566" lon="6.21622">
        <ele>841</ele>
        <time>2022-06-09T17:22:20Z</time>
      </trkpt>
      <trkpt lat="43.85548" lon="6.21619">
        <ele>836</ele>
        <time>2022-06-09T17:22:24Z</time>
      </trkpt>
      <trkpt lat="43.85533" lon="6.21613">
        <ele>832</ele>
        <time>2022-06-09T17:22:28Z</time>
      </trkpt>
      <trkpt lat="43.85529" lon="6.21609">
        <ele>830</ele>
        <time>2022-06-09T17:22:29Z</time>
      </trkpt>
      <trkpt lat="43.85525" lon="6.216">
        <ele>827</ele>
        <time>2022-06-09T17:22:31Z</time>
      </trkpt>
      <trkpt lat="43.85504" lon="6.21571">
        <ele>818</ele>
        <time>2022-06-09T17:22:38Z</time>
      </trkpt>
      <trkpt lat="43.85491" lon="6.21562">
        <ele>814</ele>
        <time>2022-06-09T17:22:41Z</time>
      </trkpt>
      <trkpt lat="43.85475" lon="6.2156">
        <ele>811</ele>
        <time>2022-06-09T17:22:45Z</time>
      </trkpt>
      <trkpt lat="43.8546" lon="6.21562">
        <ele>809</ele>
        <time>2022-06-09T17:22:48Z</time>
      </trkpt>
      <trkpt lat="43.8545" lon="6.2157">
        <ele>808</ele>
        <time>2022-06-09T17:22:51Z</time>
      </trkpt>
      <trkpt lat="43.85443" lon="6.21572">
        <ele>807</ele>
        <time>2022-06-09T17:22:53Z</time>
      </trkpt>
      <trkpt lat="43.85397" lon="6.21541">
        <ele>793</ele>
        <time>2022-06-09T17:23:05Z</time>
      </trkpt>
      <trkpt lat="43.8537" lon="6.21517">
        <ele>783</ele>
        <time>2022-06-09T17:23:12Z</time>
      </trkpt>
      <trkpt lat="43.85361" lon="6.21497">
        <ele>778</ele>
        <time>2022-06-09T17:23:16Z</time>
      </trkpt>
      <trkpt lat="43.85348" lon="6.21442">
        <ele>771</ele>
        <time>2022-06-09T17:23:26Z</time>
      </trkpt>
      <trkpt lat="43.85351" lon="6.21422">
        <ele>770</ele>
        <time>2022-06-09T17:23:29Z</time>
      </trkpt>
      <trkpt lat="43.85355" lon="6.21414">
        <ele>770</ele>
        <time>2022-06-09T17:23:31Z</time>
      </trkpt>
      <trkpt lat="43.85369" lon="6.21404">
        <ele>771</ele>
        <time>2022-06-09T17:23:35Z</time>
      </trkpt>
      <trkpt lat="43.85402" lon="6.21387">
        <ele>774</ele>
        <time>2022-06-09T17:23:43Z</time>
      </trkpt>
      <trkpt lat="43.8544" lon="6.21376">
        <ele>777</ele>
        <time>2022-06-09T17:23:52Z</time>
      </trkpt>
      <trkpt lat="43.85447" lon="6.21377">
        <ele>778</ele>
        <time>2022-06-09T17:23:54Z</time>
      </trkpt>
      <trkpt lat="43.85474" lon="6.2137">
        <ele>779</ele>
        <time>2022-06-09T17:24:00Z</time>
      </trkpt>
      <trkpt lat="43.85501" lon="6.21369">
        <ele>781</ele>
        <time>2022-06-09T17:24:06Z</time>
      </trkpt>
      <trkpt lat="43.85534" lon="6.21357">
        <ele>786</ele>
        <time>2022-06-09T17:24:14Z</time>
      </trkpt>
      <trkpt lat="43.85573" lon="6.21326">
        <ele>789</ele>
        <time>2022-06-09T17:24:25Z</time>
      </trkpt>
      <trkpt lat="43.856" lon="6.21313">
        <ele>793</ele>
        <time>2022-06-09T17:24:31Z</time>
      </trkpt>
      <trkpt lat="43.85609" lon="6.21306">
        <ele>794</ele>
        <time>2022-06-09T17:24:34Z</time>
      </trkpt>
      <trkpt lat="43.8562" lon="6.21282">
        <ele>792</ele>
        <time>2022-06-09T17:24:39Z</time>
      </trkpt>
      <trkpt lat="43.8563" lon="6.21269">
        <ele>792</ele>
        <time>2022-06-09T17:24:42Z</time>
      </trkpt>
      <trkpt lat="43.85651" lon="6.21216">
        <ele>790</ele>
        <time>2022-06-09T17:24:52Z</time>
      </trkpt>
      <trkpt lat="43.85653" lon="6.21198">
        <ele>789</ele>
        <time>2022-06-09T17:24:55Z</time>
      </trkpt>
      <trkpt lat="43.85648" lon="6.2114">
        <ele>783</ele>
        <time>2022-06-09T17:25:05Z</time>
      </trkpt>
      <trkpt lat="43.85657" lon="6.21068">
        <ele>780</ele>
        <time>2022-06-09T17:25:17Z</time>
      </trkpt>
      <trkpt lat="43.85661" lon="6.21052">
        <ele>779</ele>
        <time>2022-06-09T17:25:20Z</time>
      </trkpt>
      <trkpt lat="43.8567" lon="6.21053">
        <ele>779</ele>
        <time>2022-06-09T17:25:22Z</time>
      </trkpt>
      <trkpt lat="43.85696" lon="6.21105">
        <ele>779</ele>
        <time>2022-06-09T17:25:33Z</time>
      </trkpt>
      <trkpt lat="43.85705" lon="6.21116">
        <ele>779</ele>
        <time>2022-06-09T17:25:36Z</time>
      </trkpt>
      <trkpt lat="43.85717" lon="6.21122">
        <ele>777</ele>
        <time>2022-06-09T17:25:39Z</time>
      </trkpt>
      <trkpt lat="43.85754" lon="6.21132">
        <ele>773</ele>
        <time>2022-06-09T17:25:47Z</time>
      </trkpt>
      <trkpt lat="43.85788" lon="6.21148">
        <ele>772</ele>
        <time>2022-06-09T17:25:56Z</time>
      </trkpt>
      <trkpt lat="43.858" lon="6.21148">
        <ele>771</ele>
        <time>2022-06-09T17:25:59Z</time>
      </trkpt>
      <trkpt lat="43.85817" lon="6.21139">
        <ele>768</ele>
        <time>2022-06-09T17:26:03Z</time>
      </trkpt>
      <trkpt lat="43.85825" lon="6.21128">
        <ele>767</ele>
        <time>2022-06-09T17:26:06Z</time>
      </trkpt>
      <trkpt lat="43.85831" lon="6.21107">
        <ele>765</ele>
        <time>2022-06-09T17:26:09Z</time>
      </trkpt>
      <trkpt lat="43.85835" lon="6.21109">
        <ele>765</ele>
        <time>2022-06-09T17:26:10Z</time>
      </trkpt>
      <trkpt lat="43.85842" lon="6.21104">
        <ele>767</ele>
        <time>2022-06-09T17:26:12Z</time>
      </trkpt>
      <trkpt lat="43.8585" lon="6.21089">
        <ele>769</ele>
        <time>2022-06-09T17:26:15Z</time>
      </trkpt>
      <trkpt lat="43.85858" lon="6.21081">
        <ele>771</ele>
        <time>2022-06-09T17:26:18Z</time>
      </trkpt>
      <trkpt lat="43.85871" lon="6.2106">
        <ele>774</ele>
        <time>2022-06-09T17:26:22Z</time>
      </trkpt>
      <trkpt lat="43.85894" lon="6.21035">
        <ele>780</ele>
        <time>2022-06-09T17:26:29Z</time>
      </trkpt>
      <trkpt lat="43.85892" lon="6.21025">
        <ele>779</ele>
        <time>2022-06-09T17:26:31Z</time>
      </trkpt>
      <trkpt lat="43.85896" lon="6.21012">
        <ele>779</ele>
        <time>2022-06-09T17:26:33Z</time>
      </trkpt>
      <trkpt lat="43.85897" lon="6.20993">
        <ele>778</ele>
        <time>2022-06-09T17:26:36Z</time>
      </trkpt>
      <trkpt lat="43.85902" lon="6.20977">
        <ele>777</ele>
        <time>2022-06-09T17:26:39Z</time>
      </trkpt>
      <trkpt lat="43.8592" lon="6.20942">
        <ele>777</ele>
        <time>2022-06-09T17:26:47Z</time>
      </trkpt>
      <trkpt lat="43.85931" lon="6.20927">
        <ele>777</ele>
        <time>2022-06-09T17:26:50Z</time>
      </trkpt>
      <trkpt lat="43.85942" lon="6.20923">
        <ele>780</ele>
        <time>2022-06-09T17:26:53Z</time>
      </trkpt>
      <trkpt lat="43.8596" lon="6.20901">
        <ele>782</ele>
        <time>2022-06-09T17:26:58Z</time>
      </trkpt>
      <trkpt lat="43.85971" lon="6.20876">
        <ele>783</ele>
        <time>2022-06-09T17:27:03Z</time>
      </trkpt>
      <trkpt lat="43.85972" lon="6.20867">
        <ele>782</ele>
        <time>2022-06-09T17:27:05Z</time>
      </trkpt>
      <trkpt lat="43.85985" lon="6.20832">
        <ele>783</ele>
        <time>2022-06-09T17:27:12Z</time>
      </trkpt>
      <trkpt lat="43.85997" lon="6.20818">
        <ele>786</ele>
        <time>2022-06-09T17:27:15Z</time>
      </trkpt>
      <trkpt lat="43.86006" lon="6.208">
        <ele>784</ele>
        <time>2022-06-09T17:27:19Z</time>
      </trkpt>
      <trkpt lat="43.8601" lon="6.20783">
        <ele>782</ele>
        <time>2022-06-09T17:27:22Z</time>
      </trkpt>
      <trkpt lat="43.86021" lon="6.20797">
        <ele>782</ele>
        <time>2022-06-09T17:27:25Z</time>
      </trkpt>
      <trkpt lat="43.86032" lon="6.20797">
        <ele>781</ele>
        <time>2022-06-09T17:27:28Z</time>
      </trkpt>
      <trkpt lat="43.86036" lon="6.20794">
        <ele>780</ele>
        <time>2022-06-09T17:27:29Z</time>
      </trkpt>
      <trkpt lat="43.86037" lon="6.2079">
        <ele>779</ele>
        <time>2022-06-09T17:27:30Z</time>
      </trkpt>
      <trkpt lat="43.8604" lon="6.2079">
        <ele>779</ele>
        <time>2022-06-09T17:27:30Z</time>
      </trkpt>
      <trkpt lat="43.86068" lon="6.208">
        <ele>777</ele>
        <time>2022-06-09T17:27:37Z</time>
      </trkpt>
      <trkpt lat="43.86078" lon="6.20792">
        <ele>775</ele>
        <time>2022-06-09T17:27:40Z</time>
      </trkpt>
      <trkpt lat="43.86083" lon="6.20795">
        <ele>775</ele>
        <time>2022-06-09T17:27:41Z</time>
      </trkpt>
      <trkpt lat="43.86087" lon="6.20803">
        <ele>775</ele>
        <time>2022-06-09T17:27:43Z</time>
      </trkpt>
      <trkpt lat="43.86104" lon="6.20802">
        <ele>770</ele>
        <time>2022-06-09T17:27:47Z</time>
      </trkpt>
      <trkpt lat="43.86107" lon="6.20804">
        <ele>769</ele>
        <time>2022-06-09T17:27:48Z</time>
      </trkpt>
      <trkpt lat="43.86105" lon="6.20806">
        <ele>770</ele>
        <time>2022-06-09T17:27:48Z</time>
      </trkpt>
      <trkpt lat="43.8611" lon="6.20823">
        <ele>772</ele>
        <time>2022-06-09T17:27:51Z</time>
      </trkpt>
      <trkpt lat="43.86106" lon="6.20826">
        <ele>774</ele>
        <time>2022-06-09T17:27:52Z</time>
      </trkpt>
      <trkpt lat="43.86105" lon="6.2084">
        <ele>777</ele>
        <time>2022-06-09T17:27:55Z</time>
      </trkpt>
      <trkpt lat="43.86108" lon="6.20837">
        <ele>776</ele>
        <time>2022-06-09T17:27:56Z</time>
      </trkpt>
      <trkpt lat="43.86111" lon="6.20839">
        <ele>775</ele>
        <time>2022-06-09T17:27:56Z</time>
      </trkpt>
      <trkpt lat="43.86113" lon="6.20832">
        <ele>773</ele>
        <time>2022-06-09T17:27:58Z</time>
      </trkpt>
      <trkpt lat="43.86119" lon="6.20827">
        <ele>771</ele>
        <time>2022-06-09T17:27:59Z</time>
      </trkpt>
      <trkpt lat="43.86128" lon="6.20827">
        <ele>768</ele>
        <time>2022-06-09T17:28:01Z</time>
      </trkpt>
      <trkpt lat="43.86144" lon="6.20846">
        <ele>766</ele>
        <time>2022-06-09T17:28:06Z</time>
      </trkpt>
      <trkpt lat="43.86162" lon="6.2085">
        <ele>761</ele>
        <time>2022-06-09T17:28:10Z</time>
      </trkpt>
      <trkpt lat="43.86177" lon="6.2086">
        <ele>758</ele>
        <time>2022-06-09T17:28:14Z</time>
      </trkpt>
      <trkpt lat="43.86195" lon="6.20878">
        <ele>756</ele>
        <time>2022-06-09T17:28:20Z</time>
      </trkpt>
      <trkpt lat="43.86185" lon="6.20882">
        <ele>759</ele>
        <time>2022-06-09T17:28:22Z</time>
      </trkpt>
      <trkpt lat="43.86192" lon="6.20903">
        <ele>760</ele>
        <time>2022-06-09T17:28:26Z</time>
      </trkpt>
      <trkpt lat="43.862" lon="6.2091">
        <ele>759</ele>
        <time>2022-06-09T17:28:28Z</time>
      </trkpt>
      <trkpt lat="43.86207" lon="6.20928">
        <ele>759</ele>
        <time>2022-06-09T17:28:32Z</time>
      </trkpt>
      <trkpt lat="43.86216" lon="6.20937">
        <ele>757</ele>
        <time>2022-06-09T17:28:34Z</time>
      </trkpt>
      <trkpt lat="43.86221" lon="6.20939">
        <ele>756</ele>
        <time>2022-06-09T17:28:35Z</time>
      </trkpt>
      <trkpt lat="43.8624" lon="6.20918">
        <ele>749</ele>
        <time>2022-06-09T17:28:41Z</time>
      </trkpt>
      <trkpt lat="43.86264" lon="6.20905">
        <ele>745</ele>
        <time>2022-06-09T17:28:47Z</time>
      </trkpt>
      <trkpt lat="43.86272" lon="6.20898">
        <ele>745</ele>
        <time>2022-06-09T17:28:49Z</time>
      </trkpt>
      <trkpt lat="43.86276" lon="6.20887">
        <ele>744</ele>
        <time>2022-06-09T17:28:51Z</time>
      </trkpt>
      <trkpt lat="43.86301" lon="6.20872">
        <ele>743</ele>
        <time>2022-06-09T17:28:58Z</time>
      </trkpt>
      <trkpt lat="43.86309" lon="6.20873">
        <ele>743</ele>
        <time>2022-06-09T17:29:00Z</time>
      </trkpt>
      <trkpt lat="43.86319" lon="6.2088">
        <ele>745</ele>
        <time>2022-06-09T17:29:02Z</time>
      </trkpt>
      <trkpt lat="43.86327" lon="6.20892">
        <ele>746</ele>
        <time>2022-06-09T17:29:05Z</time>
      </trkpt>
      <trkpt lat="43.86357" lon="6.20917">
        <ele>752</ele>
        <time>2022-06-09T17:29:13Z</time>
      </trkpt>
      <trkpt lat="43.86384" lon="6.20929">
        <ele>756</ele>
        <time>2022-06-09T17:29:20Z</time>
      </trkpt>
      <trkpt lat="43.86409" lon="6.20931">
        <ele>758</ele>
        <time>2022-06-09T17:29:26Z</time>
      </trkpt>
      <trkpt lat="43.86416" lon="6.20934">
        <ele>759</ele>
        <time>2022-06-09T17:29:27Z</time>
      </trkpt>
      <trkpt lat="43.86437" lon="6.20952">
        <ele>764</ele>
        <time>2022-06-09T17:29:33Z</time>
      </trkpt>
      <trkpt lat="43.86452" lon="6.20951">
        <ele>765</ele>
        <time>2022-06-09T17:29:37Z</time>
      </trkpt>
      <trkpt lat="43.86456" lon="6.20953">
        <ele>765</ele>
        <time>2022-06-09T17:29:38Z</time>
      </trkpt>
      <trkpt lat="43.86465" lon="6.20967">
        <ele>767</ele>
        <time>2022-06-09T17:29:41Z</time>
      </trkpt>
      <trkpt lat="43.86474" lon="6.20972">
        <ele>767</ele>
        <time>2022-06-09T17:29:43Z</time>
      </trkpt>
      <trkpt lat="43.86488" lon="6.20972">
        <ele>768</ele>
        <time>2022-06-09T17:29:46Z</time>
      </trkpt>
      <trkpt lat="43.86491" lon="6.20965">
        <ele>768</ele>
        <time>2022-06-09T17:29:48Z</time>
      </trkpt>
      <trkpt lat="43.86489" lon="6.20933">
        <ele>768</ele>
        <time>2022-06-09T17:29:53Z</time>
      </trkpt>
      <trkpt lat="43.86475" lon="6.2092">
        <ele>766</ele>
        <time>2022-06-09T17:29:57Z</time>
      </trkpt>
      <trkpt lat="43.86465" lon="6.20897">
        <ele>765</ele>
        <time>2022-06-09T17:30:01Z</time>
      </trkpt>
      <trkpt lat="43.86458" lon="6.20867">
        <ele>766</ele>
        <time>2022-06-09T17:30:07Z</time>
      </trkpt>
      <trkpt lat="43.86462" lon="6.20856">
        <ele>767</ele>
        <time>2022-06-09T17:30:09Z</time>
      </trkpt>
      <trkpt lat="43.86485" lon="6.20816">
        <ele>776</ele>
        <time>2022-06-09T17:30:17Z</time>
      </trkpt>
      <trkpt lat="43.86489" lon="6.20815">
        <ele>777</ele>
        <time>2022-06-09T17:30:18Z</time>
      </trkpt>
      <trkpt lat="43.86498" lon="6.2082">
        <ele>778</ele>
        <time>2022-06-09T17:30:21Z</time>
      </trkpt>
      <trkpt lat="43.86509" lon="6.20806">
        <ele>782</ele>
        <time>2022-06-09T17:30:24Z</time>
      </trkpt>
      <trkpt lat="43.8651" lon="6.20798">
        <ele>784</ele>
        <time>2022-06-09T17:30:26Z</time>
      </trkpt>
      <trkpt lat="43.8652" lon="6.2078">
        <ele>788</ele>
        <time>2022-06-09T17:30:29Z</time>
      </trkpt>
      <trkpt lat="43.86528" lon="6.20754">
        <ele>792</ele>
        <time>2022-06-09T17:30:34Z</time>
      </trkpt>
      <trkpt lat="43.86526" lon="6.20731">
        <ele>793</ele>
        <time>2022-06-09T17:30:38Z</time>
      </trkpt>
      <trkpt lat="43.86533" lon="6.20715">
        <ele>796</ele>
        <time>2022-06-09T17:30:41Z</time>
      </trkpt>
      <trkpt lat="43.86554" lon="6.20692">
        <ele>800</ele>
        <time>2022-06-09T17:30:47Z</time>
      </trkpt>
      <trkpt lat="43.86562" lon="6.20677">
        <ele>801</ele>
        <time>2022-06-09T17:30:51Z</time>
      </trkpt>
      <trkpt lat="43.86599" lon="6.20658">
        <ele>804</ele>
        <time>2022-06-09T17:31:00Z</time>
      </trkpt>
      <trkpt lat="43.86615" lon="6.20646">
        <ele>804</ele>
        <time>2022-06-09T17:31:04Z</time>
      </trkpt>
      <trkpt lat="43.86638" lon="6.20617">
        <ele>803</ele>
        <time>2022-06-09T17:31:11Z</time>
      </trkpt>
      <trkpt lat="43.86648" lon="6.20598">
        <ele>802</ele>
        <time>2022-06-09T17:31:15Z</time>
      </trkpt>
      <trkpt lat="43.86697" lon="6.20528">
        <ele>796</ele>
        <time>2022-06-09T17:31:32Z</time>
      </trkpt>
      <trkpt lat="43.86725" lon="6.20482">
        <ele>793</ele>
        <time>2022-06-09T17:31:42Z</time>
      </trkpt>
      <trkpt lat="43.86733" lon="6.2048">
        <ele>794</ele>
        <time>2022-06-09T17:31:44Z</time>
      </trkpt>
      <trkpt lat="43.86761" lon="6.20489">
        <ele>800</ele>
        <time>2022-06-09T17:31:50Z</time>
      </trkpt>
      <trkpt lat="43.8678" lon="6.2049">
        <ele>803</ele>
        <time>2022-06-09T17:31:55Z</time>
      </trkpt>
      <trkpt lat="43.86801" lon="6.20474">
        <ele>805</ele>
        <time>2022-06-09T17:32:00Z</time>
      </trkpt>
      <trkpt lat="43.86836" lon="6.20421">
        <ele>807</ele>
        <time>2022-06-09T17:32:13Z</time>
      </trkpt>
      <trkpt lat="43.86851" lon="6.2037">
        <ele>806</ele>
        <time>2022-06-09T17:32:22Z</time>
      </trkpt>
      <trkpt lat="43.86863" lon="6.20354">
        <ele>808</ele>
        <time>2022-06-09T17:32:26Z</time>
      </trkpt>
      <trkpt lat="43.86914" lon="6.20313">
        <ele>820</ele>
        <time>2022-06-09T17:32:39Z</time>
      </trkpt>
      <trkpt lat="43.86934" lon="6.20291">
        <ele>824</ele>
        <time>2022-06-09T17:32:45Z</time>
      </trkpt>
      <trkpt lat="43.86936" lon="6.20271">
        <ele>824</ele>
        <time>2022-06-09T17:32:49Z</time>
      </trkpt>
      <trkpt lat="43.86928" lon="6.20252">
        <ele>822</ele>
        <time>2022-06-09T17:32:53Z</time>
      </trkpt>
      <trkpt lat="43.86886" lon="6.20201">
        <ele>820</ele>
        <time>2022-06-09T17:33:06Z</time>
      </trkpt>
      <trkpt lat="43.86878" lon="6.20182">
        <ele>821</ele>
        <time>2022-06-09T17:33:09Z</time>
      </trkpt>
      <trkpt lat="43.86886" lon="6.20191">
        <ele>821</ele>
        <time>2022-06-09T17:33:12Z</time>
      </trkpt>
      <trkpt lat="43.8688" lon="6.20185">
        <ele>821</ele>
        <time>2022-06-09T17:33:13Z</time>
      </trkpt>
      <trkpt lat="43.86863" lon="6.20153">
        <ele>822</ele>
        <time>2022-06-09T17:33:20Z</time>
      </trkpt>
      <trkpt lat="43.86828" lon="6.20107">
        <ele>821</ele>
        <time>2022-06-09T17:33:31Z</time>
      </trkpt>
      <trkpt lat="43.86808" lon="6.20076">
        <ele>821</ele>
        <time>2022-06-09T17:33:38Z</time>
      </trkpt>
      <trkpt lat="43.8679" lon="6.20024">
        <ele>823</ele>
        <time>2022-06-09T17:33:48Z</time>
      </trkpt>
      <trkpt lat="43.86772" lon="6.20003">
        <ele>822</ele>
        <time>2022-06-09T17:33:54Z</time>
      </trkpt>
      <trkpt lat="43.86759" lon="6.19976">
        <ele>820</ele>
        <time>2022-06-09T17:33:59Z</time>
      </trkpt>
      <trkpt lat="43.86758" lon="6.1996">
        <ele>821</ele>
        <time>2022-06-09T17:34:02Z</time>
      </trkpt>
      <trkpt lat="43.8675" lon="6.19925">
        <ele>821</ele>
        <time>2022-06-09T17:34:08Z</time>
      </trkpt>
      <trkpt lat="43.86746" lon="6.19886">
        <ele>821</ele>
        <time>2022-06-09T17:34:15Z</time>
      </trkpt>
      <trkpt lat="43.86737" lon="6.19852">
        <ele>821</ele>
        <time>2022-06-09T17:34:21Z</time>
      </trkpt>
      <trkpt lat="43.86733" lon="6.19821">
        <ele>822</ele>
        <time>2022-06-09T17:34:26Z</time>
      </trkpt>
      <trkpt lat="43.86731" lon="6.19774">
        <ele>823</ele>
        <time>2022-06-09T17:34:34Z</time>
      </trkpt>
      <trkpt lat="43.86722" lon="6.1972">
        <ele>824</ele>
        <time>2022-06-09T17:34:43Z</time>
      </trkpt>
      <trkpt lat="43.86723" lon="6.19687">
        <ele>826</ele>
        <time>2022-06-09T17:34:49Z</time>
      </trkpt>
      <trkpt lat="43.86714" lon="6.19644">
        <ele>827</ele>
        <time>2022-06-09T17:34:56Z</time>
      </trkpt>
      <trkpt lat="43.86716" lon="6.19624">
        <ele>828</ele>
        <time>2022-06-09T17:35:00Z</time>
      </trkpt>
      <trkpt lat="43.86725" lon="6.19607">
        <ele>830</ele>
        <time>2022-06-09T17:35:03Z</time>
      </trkpt>
      <trkpt lat="43.8674" lon="6.19596">
        <ele>832</ele>
        <time>2022-06-09T17:35:07Z</time>
      </trkpt>
      <trkpt lat="43.86758" lon="6.19595">
        <ele>834</ele>
        <time>2022-06-09T17:35:11Z</time>
      </trkpt>
      <trkpt lat="43.86769" lon="6.196">
        <ele>835</ele>
        <time>2022-06-09T17:35:14Z</time>
      </trkpt>
      <trkpt lat="43.86781" lon="6.1961">
        <ele>836</ele>
        <time>2022-06-09T17:35:17Z</time>
      </trkpt>
      <trkpt lat="43.86816" lon="6.19655">
        <ele>838</ele>
        <time>2022-06-09T17:35:29Z</time>
      </trkpt>
      <trkpt lat="43.86877" lon="6.1969">
        <ele>841</ele>
        <time>2022-06-09T17:35:44Z</time>
      </trkpt>
      <trkpt lat="43.86909" lon="6.19714">
        <ele>843</ele>
        <time>2022-06-09T17:35:52Z</time>
      </trkpt>
      <trkpt lat="43.86922" lon="6.19719">
        <ele>844</ele>
        <time>2022-06-09T17:35:56Z</time>
      </trkpt>
      <trkpt lat="43.8695" lon="6.19736">
        <ele>846</ele>
        <time>2022-06-09T17:36:03Z</time>
      </trkpt>
      <trkpt lat="43.87029" lon="6.1979">
        <ele>854</ele>
        <time>2022-06-09T17:36:23Z</time>
      </trkpt>
      <trkpt lat="43.87078" lon="6.19819">
        <ele>860</ele>
        <time>2022-06-09T17:36:36Z</time>
      </trkpt>
      <trkpt lat="43.8717" lon="6.1988">
        <ele>874</ele>
        <time>2022-06-09T17:37:00Z</time>
      </trkpt>
      <trkpt lat="43.87183" lon="6.19891">
        <ele>876</ele>
        <time>2022-06-09T17:37:03Z</time>
      </trkpt>
      <trkpt lat="43.87192" lon="6.19907">
        <ele>879</ele>
        <time>2022-06-09T17:37:07Z</time>
      </trkpt>
      <trkpt lat="43.87195" lon="6.19941">
        <ele>881</ele>
        <time>2022-06-09T17:37:12Z</time>
      </trkpt>
      <trkpt lat="43.87189" lon="6.1995">
        <ele>881</ele>
        <time>2022-06-09T17:37:14Z</time>
      </trkpt>
      <trkpt lat="43.87189" lon="6.1997">
        <ele>882</ele>
        <time>2022-06-09T17:37:18Z</time>
      </trkpt>
      <trkpt lat="43.87196" lon="6.19993">
        <ele>883</ele>
        <time>2022-06-09T17:37:22Z</time>
      </trkpt>
      <trkpt lat="43.87239" lon="6.2005">
        <ele>885</ele>
        <time>2022-06-09T17:37:36Z</time>
      </trkpt>
      <trkpt lat="43.87271" lon="6.20088">
        <ele>887</ele>
        <time>2022-06-09T17:37:46Z</time>
      </trkpt>
      <trkpt lat="43.87287" lon="6.20114">
        <ele>889</ele>
        <time>2022-06-09T17:37:51Z</time>
      </trkpt>
      <trkpt lat="43.87306" lon="6.20166">
        <ele>890</ele>
        <time>2022-06-09T17:38:01Z</time>
      </trkpt>
      <trkpt lat="43.87316" lon="6.20183">
        <ele>892</ele>
        <time>2022-06-09T17:38:05Z</time>
      </trkpt>
      <trkpt lat="43.87327" lon="6.20182">
        <ele>894</ele>
        <time>2022-06-09T17:38:08Z</time>
      </trkpt>
      <trkpt lat="43.87335" lon="6.20165">
        <ele>894</ele>
        <time>2022-06-09T17:38:11Z</time>
      </trkpt>
      <trkpt lat="43.87338" lon="6.20135">
        <ele>895</ele>
        <time>2022-06-09T17:38:16Z</time>
      </trkpt>
      <trkpt lat="43.87346" lon="6.20111">
        <ele>896</ele>
        <time>2022-06-09T17:38:20Z</time>
      </trkpt>
      <trkpt lat="43.87376" lon="6.20076">
        <ele>901</ele>
        <time>2022-06-09T17:38:30Z</time>
      </trkpt>
      <trkpt lat="43.87384" lon="6.20063">
        <ele>901</ele>
        <time>2022-06-09T17:38:33Z</time>
      </trkpt>
      <trkpt lat="43.87398" lon="6.2005">
        <ele>902</ele>
        <time>2022-06-09T17:38:36Z</time>
      </trkpt>
      <trkpt lat="43.8741" lon="6.20045">
        <ele>902</ele>
        <time>2022-06-09T17:38:39Z</time>
      </trkpt>
      <trkpt lat="43.87421" lon="6.20055">
        <ele>904</ele>
        <time>2022-06-09T17:38:42Z</time>
      </trkpt>
      <trkpt lat="43.87451" lon="6.20128">
        <ele>910</ele>
        <time>2022-06-09T17:38:57Z</time>
      </trkpt>
      <trkpt lat="43.8747" lon="6.20186">
        <ele>918</ele>
        <time>2022-06-09T17:39:07Z</time>
      </trkpt>
      <trkpt lat="43.87471" lon="6.20208">
        <ele>921</ele>
        <time>2022-06-09T17:39:11Z</time>
      </trkpt>
      <trkpt lat="43.87453" lon="6.20267">
        <ele>923</ele>
        <time>2022-06-09T17:39:22Z</time>
      </trkpt>
      <trkpt lat="43.87435" lon="6.20354">
        <ele>926</ele>
        <time>2022-06-09T17:39:37Z</time>
      </trkpt>
      <trkpt lat="43.87439" lon="6.20399">
        <ele>930</ele>
        <time>2022-06-09T17:39:45Z</time>
      </trkpt>
      <trkpt lat="43.87451" lon="6.20441">
        <ele>935</ele>
        <time>2022-06-09T17:39:52Z</time>
      </trkpt>
      <trkpt lat="43.87461" lon="6.20467">
        <ele>937</ele>
        <time>2022-06-09T17:39:57Z</time>
      </trkpt>
      <trkpt lat="43.87474" lon="6.20489">
        <ele>939</ele>
        <time>2022-06-09T17:40:02Z</time>
      </trkpt>
      <trkpt lat="43.87491" lon="6.2051">
        <ele>942</ele>
        <time>2022-06-09T17:40:07Z</time>
      </trkpt>
      <trkpt lat="43.87503" lon="6.2052">
        <ele>945</ele>
        <time>2022-06-09T17:40:11Z</time>
      </trkpt>
      <trkpt lat="43.87539" lon="6.20573">
        <ele>951</ele>
        <time>2022-06-09T17:40:23Z</time>
      </trkpt>
      <trkpt lat="43.87588" lon="6.20633">
        <ele>960</ele>
        <time>2022-06-09T17:40:38Z</time>
      </trkpt>
      <trkpt lat="43.87598" lon="6.20659">
        <ele>959</ele>
        <time>2022-06-09T17:40:43Z</time>
      </trkpt>
      <trkpt lat="43.87602" lon="6.20677">
        <ele>959</ele>
        <time>2022-06-09T17:40:46Z</time>
      </trkpt>
      <trkpt lat="43.87604" lon="6.2071">
        <ele>961</ele>
        <time>2022-06-09T17:40:52Z</time>
      </trkpt>
      <trkpt lat="43.87614" lon="6.20718">
        <ele>961</ele>
        <time>2022-06-09T17:40:55Z</time>
      </trkpt>
      <trkpt lat="43.87623" lon="6.2073">
        <ele>960</ele>
        <time>2022-06-09T17:40:57Z</time>
      </trkpt>
      <trkpt lat="43.87642" lon="6.20761">
        <ele>957</ele>
        <time>2022-06-09T17:41:04Z</time>
      </trkpt>
      <trkpt lat="43.87656" lon="6.2079">
        <ele>955</ele>
        <time>2022-06-09T17:41:10Z</time>
      </trkpt>
      <trkpt lat="43.8767" lon="6.2081">
        <ele>950</ele>
        <time>2022-06-09T17:41:15Z</time>
      </trkpt>
      <trkpt lat="43.87688" lon="6.20881">
        <ele>950</ele>
        <time>2022-06-09T17:41:28Z</time>
      </trkpt>
      <trkpt lat="43.87697" lon="6.20889">
        <ele>948</ele>
        <time>2022-06-09T17:41:30Z</time>
      </trkpt>
      <trkpt lat="43.87727" lon="6.209">
        <ele>940</ele>
        <time>2022-06-09T17:41:37Z</time>
      </trkpt>
      <trkpt lat="43.87768" lon="6.20932">
        <ele>930</ele>
        <time>2022-06-09T17:41:48Z</time>
      </trkpt>
      <trkpt lat="43.87778" lon="6.20947">
        <ele>928</ele>
        <time>2022-06-09T17:41:52Z</time>
      </trkpt>
      <trkpt lat="43.8779" lon="6.21061">
        <ele>933</ele>
        <time>2022-06-09T17:42:11Z</time>
      </trkpt>
      <trkpt lat="43.87789" lon="6.2108">
        <ele>935</ele>
        <time>2022-06-09T17:42:14Z</time>
      </trkpt>
      <trkpt lat="43.87795" lon="6.21094">
        <ele>935</ele>
        <time>2022-06-09T17:42:17Z</time>
      </trkpt>
      <trkpt lat="43.87806" lon="6.21101">
        <ele>933</ele>
        <time>2022-06-09T17:42:20Z</time>
      </trkpt>
      <trkpt lat="43.87816" lon="6.21103">
        <ele>930</ele>
        <time>2022-06-09T17:42:22Z</time>
      </trkpt>
      <trkpt lat="43.87835" lon="6.21102">
        <ele>923</ele>
        <time>2022-06-09T17:42:27Z</time>
      </trkpt>
      <trkpt lat="43.87872" lon="6.21086">
        <ele>918</ele>
        <time>2022-06-09T17:42:36Z</time>
      </trkpt>
      <trkpt lat="43.87891" lon="6.21062">
        <ele>914</ele>
        <time>2022-06-09T17:42:42Z</time>
      </trkpt>
      <trkpt lat="43.87914" lon="6.21017">
        <ele>904</ele>
        <time>2022-06-09T17:42:51Z</time>
      </trkpt>
      <trkpt lat="43.87919" lon="6.21013">
        <ele>903</ele>
        <time>2022-06-09T17:42:52Z</time>
      </trkpt>
      <trkpt lat="43.87925" lon="6.21012">
        <ele>902</ele>
        <time>2022-06-09T17:42:54Z</time>
      </trkpt>
      <trkpt lat="43.87937" lon="6.21019">
        <ele>902</ele>
        <time>2022-06-09T17:42:57Z</time>
      </trkpt>
      <trkpt lat="43.87972" lon="6.21055">
        <ele>902</ele>
        <time>2022-06-09T17:43:07Z</time>
      </trkpt>
      <trkpt lat="43.88037" lon="6.21131">
        <ele>900</ele>
        <time>2022-06-09T17:43:27Z</time>
      </trkpt>
      <trkpt lat="43.88053" lon="6.21146">
        <ele>898</ele>
        <time>2022-06-09T17:43:31Z</time>
      </trkpt>
      <trkpt lat="43.88087" lon="6.21166">
        <ele>893</ele>
        <time>2022-06-09T17:43:40Z</time>
      </trkpt>
      <trkpt lat="43.88099" lon="6.2117">
        <ele>894</ele>
        <time>2022-06-09T17:43:43Z</time>
      </trkpt>
      <trkpt lat="43.88115" lon="6.21161">
        <ele>895</ele>
        <time>2022-06-09T17:43:47Z</time>
      </trkpt>
      <trkpt lat="43.88138" lon="6.21121">
        <ele>897</ele>
        <time>2022-06-09T17:43:56Z</time>
      </trkpt>
      <trkpt lat="43.88146" lon="6.21098">
        <ele>898</ele>
        <time>2022-06-09T17:44:00Z</time>
      </trkpt>
      <trkpt lat="43.88154" lon="6.21039">
        <ele>901</ele>
        <time>2022-06-09T17:44:10Z</time>
      </trkpt>
      <trkpt lat="43.88151" lon="6.20986">
        <ele>902</ele>
        <time>2022-06-09T17:44:19Z</time>
      </trkpt>
      <trkpt lat="43.88153" lon="6.20982">
        <ele>903</ele>
        <time>2022-06-09T17:44:20Z</time>
      </trkpt>
      <trkpt lat="43.88156" lon="6.20982">
        <ele>903</ele>
        <time>2022-06-09T17:44:20Z</time>
      </trkpt>
      <trkpt lat="43.88165" lon="6.21007">
        <ele>904</ele>
        <time>2022-06-09T17:44:25Z</time>
      </trkpt>
      <trkpt lat="43.88168" lon="6.21042">
        <ele>903</ele>
        <time>2022-06-09T17:44:31Z</time>
      </trkpt>
      <trkpt lat="43.88167" lon="6.2107">
        <ele>902</ele>
        <time>2022-06-09T17:44:36Z</time>
      </trkpt>
      <trkpt lat="43.8817" lon="6.21092">
        <ele>902</ele>
        <time>2022-06-09T17:44:40Z</time>
      </trkpt>
      <trkpt lat="43.88181" lon="6.21115">
        <ele>904</ele>
        <time>2022-06-09T17:44:44Z</time>
      </trkpt>
      <trkpt lat="43.88184" lon="6.21169">
        <ele>903</ele>
        <time>2022-06-09T17:44:53Z</time>
      </trkpt>
      <trkpt lat="43.88191" lon="6.21204">
        <ele>904</ele>
        <time>2022-06-09T17:44:59Z</time>
      </trkpt>
      <trkpt lat="43.88208" lon="6.21262">
        <ele>906</ele>
        <time>2022-06-09T17:45:10Z</time>
      </trkpt>
      <trkpt lat="43.88226" lon="6.21282">
        <ele>909</ele>
        <time>2022-06-09T17:45:15Z</time>
      </trkpt>
      <trkpt lat="43.88231" lon="6.21313">
        <ele>909</ele>
        <time>2022-06-09T17:45:21Z</time>
      </trkpt>
      <trkpt lat="43.88228" lon="6.21336">
        <ele>908</ele>
        <time>2022-06-09T17:45:25Z</time>
      </trkpt>
      <trkpt lat="43.88231" lon="6.21352">
        <ele>908</ele>
        <time>2022-06-09T17:45:27Z</time>
      </trkpt>
      <trkpt lat="43.88254" lon="6.21375">
        <ele>910</ele>
        <time>2022-06-09T17:45:34Z</time>
      </trkpt>
      <trkpt lat="43.88271" lon="6.21402">
        <ele>913</ele>
        <time>2022-06-09T17:45:40Z</time>
      </trkpt>
      <trkpt lat="43.8829" lon="6.21425">
        <ele>917</ele>
        <time>2022-06-09T17:45:46Z</time>
      </trkpt>
      <trkpt lat="43.88326" lon="6.21457">
        <ele>925</ele>
        <time>2022-06-09T17:45:56Z</time>
      </trkpt>
      <trkpt lat="43.88327" lon="6.21469">
        <ele>926</ele>
        <time>2022-06-09T17:45:58Z</time>
      </trkpt>
      <trkpt lat="43.88312" lon="6.21504">
        <ele>922</ele>
        <time>2022-06-09T17:46:05Z</time>
      </trkpt>
      <trkpt lat="43.88308" lon="6.21522">
        <ele>921</ele>
        <time>2022-06-09T17:46:08Z</time>
      </trkpt>
      <trkpt lat="43.88304" lon="6.21542">
        <ele>921</ele>
        <time>2022-06-09T17:46:11Z</time>
      </trkpt>
      <trkpt lat="43.88305" lon="6.21555">
        <ele>921</ele>
        <time>2022-06-09T17:46:14Z</time>
      </trkpt>
      <trkpt lat="43.88308" lon="6.21558">
        <ele>922</ele>
        <time>2022-06-09T17:46:15Z</time>
      </trkpt>
      <trkpt lat="43.88312" lon="6.21558">
        <ele>923</ele>
        <time>2022-06-09T17:46:15Z</time>
      </trkpt>
      <trkpt lat="43.88332" lon="6.21535">
        <ele>927</ele>
        <time>2022-06-09T17:46:22Z</time>
      </trkpt>
      <trkpt lat="43.88375" lon="6.2151">
        <ele>934</ele>
        <time>2022-06-09T17:46:32Z</time>
      </trkpt>
      <trkpt lat="43.88384" lon="6.215">
        <ele>936</ele>
        <time>2022-06-09T17:46:35Z</time>
      </trkpt>
      <trkpt lat="43.88406" lon="6.21486">
        <ele>938</ele>
        <time>2022-06-09T17:46:41Z</time>
      </trkpt>
      <trkpt lat="43.88418" lon="6.21475">
        <ele>939</ele>
        <time>2022-06-09T17:46:44Z</time>
      </trkpt>
      <trkpt lat="43.88432" lon="6.21474">
        <ele>941</ele>
        <time>2022-06-09T17:46:47Z</time>
      </trkpt>
      <trkpt lat="43.88452" lon="6.21482">
        <ele>946</ele>
        <time>2022-06-09T17:46:52Z</time>
      </trkpt>
      <trkpt lat="43.88475" lon="6.21484">
        <ele>950</ele>
        <time>2022-06-09T17:46:58Z</time>
      </trkpt>
      <trkpt lat="43.88497" lon="6.21503">
        <ele>957</ele>
        <time>2022-06-09T17:47:04Z</time>
      </trkpt>
      <trkpt lat="43.8852" lon="6.21549">
        <ele>960</ele>
        <time>2022-06-09T17:47:13Z</time>
      </trkpt>
      <trkpt lat="43.88537" lon="6.21568">
        <ele>964</ele>
        <time>2022-06-09T17:47:18Z</time>
      </trkpt>
      <trkpt lat="43.88541" lon="6.21583">
        <ele>965</ele>
        <time>2022-06-09T17:47:21Z</time>
      </trkpt>
      <trkpt lat="43.88544" lon="6.21617">
        <ele>971</ele>
        <time>2022-06-09T17:47:27Z</time>
      </trkpt>
      <trkpt lat="43.88542" lon="6.21636">
        <ele>973</ele>
        <time>2022-06-09T17:47:30Z</time>
      </trkpt>
      <trkpt lat="43.88525" lon="6.21662">
        <ele>972</ele>
        <time>2022-06-09T17:47:36Z</time>
      </trkpt>
      <trkpt lat="43.88506" lon="6.21681">
        <ele>970</ele>
        <time>2022-06-09T17:47:41Z</time>
      </trkpt>
      <trkpt lat="43.88469" lon="6.21707">
        <ele>964</ele>
        <time>2022-06-09T17:47:51Z</time>
      </trkpt>
      <trkpt lat="43.88463" lon="6.21717">
        <ele>964</ele>
        <time>2022-06-09T17:47:53Z</time>
      </trkpt>
      <trkpt lat="43.88465" lon="6.21768">
        <ele>969</ele>
        <time>2022-06-09T17:48:02Z</time>
      </trkpt>
      <trkpt lat="43.88469" lon="6.21785">
        <ele>971</ele>
        <time>2022-06-09T17:48:05Z</time>
      </trkpt>
      <trkpt lat="43.88479" lon="6.21806">
        <ele>974</ele>
        <time>2022-06-09T17:48:09Z</time>
      </trkpt>
      <trkpt lat="43.88489" lon="6.21819">
        <ele>977</ele>
        <time>2022-06-09T17:48:12Z</time>
      </trkpt>
      <trkpt lat="43.88537" lon="6.21844">
        <ele>986</ele>
        <time>2022-06-09T17:48:24Z</time>
      </trkpt>
      <trkpt lat="43.88564" lon="6.21866">
        <ele>989</ele>
        <time>2022-06-09T17:48:31Z</time>
      </trkpt>
      <trkpt lat="43.88606" lon="6.21884">
        <ele>995</ele>
        <time>2022-06-09T17:48:42Z</time>
      </trkpt>
      <trkpt lat="43.88638" lon="6.21909">
        <ele>1000</ele>
        <time>2022-06-09T17:48:50Z</time>
      </trkpt>
      <trkpt lat="43.8868" lon="6.21932">
        <ele>1006</ele>
        <time>2022-06-09T17:49:01Z</time>
      </trkpt>
      <trkpt lat="43.887" lon="6.21947">
        <ele>1008</ele>
        <time>2022-06-09T17:49:06Z</time>
      </trkpt>
      <trkpt lat="43.88734" lon="6.21998">
        <ele>1011</ele>
        <time>2022-06-09T17:49:18Z</time>
      </trkpt>
      <trkpt lat="43.88778" lon="6.22031">
        <ele>1016</ele>
        <time>2022-06-09T17:49:30Z</time>
      </trkpt>
      <trkpt lat="43.88816" lon="6.2207">
        <ele>1020</ele>
        <time>2022-06-09T17:49:41Z</time>
      </trkpt>
      <trkpt lat="43.88818" lon="6.22069">
        <ele>1020</ele>
        <time>2022-06-09T17:49:41Z</time>
      </trkpt>
      <trkpt lat="43.88868" lon="6.22118">
        <ele>1024</ele>
        <time>2022-06-09T17:49:55Z</time>
      </trkpt>
      <trkpt lat="43.88897" lon="6.22151">
        <ele>1030</ele>
        <time>2022-06-09T17:50:04Z</time>
      </trkpt>
      <trkpt lat="43.88912" lon="6.22163">
        <ele>1034</ele>
        <time>2022-06-09T17:50:08Z</time>
      </trkpt>
      <trkpt lat="43.88918" lon="6.22175">
        <ele>1036</ele>
        <time>2022-06-09T17:50:11Z</time>
      </trkpt>
      <trkpt lat="43.88916" lon="6.22205">
        <ele>1037</ele>
        <time>2022-06-09T17:50:16Z</time>
      </trkpt>
      <trkpt lat="43.88918" lon="6.22282">
        <ele>1039</ele>
        <time>2022-06-09T17:50:29Z</time>
      </trkpt>
      <trkpt lat="43.88922" lon="6.22296">
        <ele>1040</ele>
        <time>2022-06-09T17:50:31Z</time>
      </trkpt>
      <trkpt lat="43.88932" lon="6.22313">
        <ele>1042</ele>
        <time>2022-06-09T17:50:35Z</time>
      </trkpt>
      <trkpt lat="43.88941" lon="6.22326">
        <ele>1044</ele>
        <time>2022-06-09T17:50:38Z</time>
      </trkpt>
      <trkpt lat="43.88952" lon="6.22335">
        <ele>1046</ele>
        <time>2022-06-09T17:50:41Z</time>
      </trkpt>
      <trkpt lat="43.88976" lon="6.22351">
        <ele>1048</ele>
        <time>2022-06-09T17:50:47Z</time>
      </trkpt>
      <trkpt lat="43.89012" lon="6.22368">
        <ele>1049</ele>
        <time>2022-06-09T17:50:56Z</time>
      </trkpt>
      <trkpt lat="43.89031" lon="6.22381">
        <ele>1048</ele>
        <time>2022-06-09T17:51:01Z</time>
      </trkpt>
      <trkpt lat="43.89055" lon="6.22386">
        <ele>1048</ele>
        <time>2022-06-09T17:51:07Z</time>
      </trkpt>
      <trkpt lat="43.89082" lon="6.2238">
        <ele>1049</ele>
        <time>2022-06-09T17:51:13Z</time>
      </trkpt>
      <trkpt lat="43.8913" lon="6.22363">
        <ele>1051</ele>
        <time>2022-06-09T17:51:25Z</time>
      </trkpt>
      <trkpt lat="43.89201" lon="6.22348">
        <ele>1048</ele>
        <time>2022-06-09T17:51:41Z</time>
      </trkpt>
      <trkpt lat="43.89238" lon="6.22329">
        <ele>1048</ele>
        <time>2022-06-09T17:51:51Z</time>
      </trkpt>
      <trkpt lat="43.89289" lon="6.22314">
        <ele>1044</ele>
        <time>2022-06-09T17:52:03Z</time>
      </trkpt>
      <trkpt lat="43.89324" lon="6.22291">
        <ele>1041</ele>
        <time>2022-06-09T17:52:12Z</time>
      </trkpt>
      <trkpt lat="43.89337" lon="6.22292">
        <ele>1040</ele>
        <time>2022-06-09T17:52:15Z</time>
      </trkpt>
      <trkpt lat="43.89349" lon="6.22298">
        <ele>1041</ele>
        <time>2022-06-09T17:52:18Z</time>
      </trkpt>
      <trkpt lat="43.89364" lon="6.223">
        <ele>1042</ele>
        <time>2022-06-09T17:52:21Z</time>
      </trkpt>
      <trkpt lat="43.89382" lon="6.22298">
        <ele>1044</ele>
        <time>2022-06-09T17:52:26Z</time>
      </trkpt>
      <trkpt lat="43.89419" lon="6.22282">
        <ele>1045</ele>
        <time>2022-06-09T17:52:35Z</time>
      </trkpt>
      <trkpt lat="43.89433" lon="6.2228">
        <ele>1045</ele>
        <time>2022-06-09T17:52:38Z</time>
      </trkpt>
      <trkpt lat="43.89451" lon="6.22292">
        <ele>1046</ele>
        <time>2022-06-09T17:52:43Z</time>
      </trkpt>
      <trkpt lat="43.89473" lon="6.22301">
        <ele>1048</ele>
        <time>2022-06-09T17:52:48Z</time>
      </trkpt>
      <trkpt lat="43.8949" lon="6.22312">
        <ele>1049</ele>
        <time>2022-06-09T17:52:52Z</time>
      </trkpt>
      <trkpt lat="43.89505" lon="6.22324">
        <ele>1050</ele>
        <time>2022-06-09T17:52:56Z</time>
      </trkpt>
      <trkpt lat="43.89505" lon="6.22327">
        <ele>1051</ele>
        <time>2022-06-09T17:52:57Z</time>
      </trkpt>
      <trkpt lat="43.89512" lon="6.22325">
        <ele>1050</ele>
        <time>2022-06-09T17:52:58Z</time>
      </trkpt>
      <trkpt lat="43.89513" lon="6.22323">
        <ele>1049</ele>
        <time>2022-06-09T17:52:59Z</time>
      </trkpt>
      <trkpt lat="43.89509" lon="6.22326">
        <ele>1050</ele>
        <time>2022-06-09T17:53:00Z</time>
      </trkpt>
      <trkpt lat="43.89509" lon="6.22324">
        <ele>1050</ele>
        <time>2022-06-09T17:53:00Z</time>
      </trkpt>
      <trkpt lat="43.89511" lon="6.2232">
        <ele>1049</ele>
        <time>2022-06-09T17:53:01Z</time>
      </trkpt>
      <trkpt lat="43.89514" lon="6.2232">
        <ele>1049</ele>
        <time>2022-06-09T17:53:02Z</time>
      </trkpt>
      <trkpt lat="43.89507" lon="6.22326">
        <ele>1050</ele>
        <time>2022-06-09T17:53:04Z</time>
      </trkpt>
      <trkpt lat="43.89506" lon="6.22323">
        <ele>1050</ele>
        <time>2022-06-09T17:53:04Z</time>
      </trkpt>
      <trkpt lat="43.8951" lon="6.22325">
        <ele>1050</ele>
        <time>2022-06-09T17:53:05Z</time>
      </trkpt>
      <trkpt lat="43.89507" lon="6.22324">
        <ele>1050</ele>
        <time>2022-06-09T17:53:06Z</time>
      </trkpt>
      <trkpt lat="43.89506" lon="6.22327">
        <ele>1051</ele>
        <time>2022-06-09T17:53:07Z</time>
      </trkpt>
      <trkpt lat="43.8958" lon="6.22374">
        <ele>1057</ele>
        <time>2022-06-09T17:53:26Z</time>
      </trkpt>
      <trkpt lat="43.89598" lon="6.22392">
        <ele>1057</ele>
        <time>2022-06-09T17:53:31Z</time>
      </trkpt>
      <trkpt lat="43.89622" lon="6.22427">
        <ele>1059</ele>
        <time>2022-06-09T17:53:39Z</time>
      </trkpt>
      <trkpt lat="43.89645" lon="6.22467">
        <ele>1061</ele>
        <time>2022-06-09T17:53:47Z</time>
      </trkpt>
      <trkpt lat="43.89663" lon="6.22542">
        <ele>1073</ele>
        <time>2022-06-09T17:54:01Z</time>
      </trkpt>
      <trkpt lat="43.89667" lon="6.22575">
        <ele>1080</ele>
        <time>2022-06-09T17:54:06Z</time>
      </trkpt>
      <trkpt lat="43.89678" lon="6.22627">
        <ele>1085</ele>
        <time>2022-06-09T17:54:16Z</time>
      </trkpt>
      <trkpt lat="43.89684" lon="6.22636">
        <ele>1086</ele>
        <time>2022-06-09T17:54:18Z</time>
      </trkpt>
      <trkpt lat="43.89688" lon="6.22656">
        <ele>1088</ele>
        <time>2022-06-09T17:54:21Z</time>
      </trkpt>
      <trkpt lat="43.89705" lon="6.22693">
        <ele>1093</ele>
        <time>2022-06-09T17:54:28Z</time>
      </trkpt>
      <trkpt lat="43.89717" lon="6.22704">
        <ele>1094</ele>
        <time>2022-06-09T17:54:32Z</time>
      </trkpt>
      <trkpt lat="43.89725" lon="6.22706">
        <ele>1093</ele>
        <time>2022-06-09T17:54:34Z</time>
      </trkpt>
      <trkpt lat="43.89732" lon="6.22711">
        <ele>1093</ele>
        <time>2022-06-09T17:54:36Z</time>
      </trkpt>
      <trkpt lat="43.89744" lon="6.22708">
        <ele>1090</ele>
        <time>2022-06-09T17:54:38Z</time>
      </trkpt>
      <trkpt lat="43.89769" lon="6.22682">
        <ele>1089</ele>
        <time>2022-06-09T17:54:46Z</time>
      </trkpt>
      <trkpt lat="43.89816" lon="6.22619">
        <ele>1090</ele>
        <time>2022-06-09T17:55:01Z</time>
      </trkpt>
      <trkpt lat="43.89828" lon="6.226">
        <ele>1089</ele>
        <time>2022-06-09T17:55:05Z</time>
      </trkpt>
      <trkpt lat="43.89835" lon="6.22582">
        <ele>1086</ele>
        <time>2022-06-09T17:55:09Z</time>
      </trkpt>
      <trkpt lat="43.89867" lon="6.22548">
        <ele>1086</ele>
        <time>2022-06-09T17:55:18Z</time>
      </trkpt>
      <trkpt lat="43.89888" lon="6.22545">
        <ele>1090</ele>
        <time>2022-06-09T17:55:23Z</time>
      </trkpt>
      <trkpt lat="43.89922" lon="6.22557">
        <ele>1101</ele>
        <time>2022-06-09T17:55:31Z</time>
      </trkpt>
      <trkpt lat="43.89931" lon="6.22558">
        <ele>1102</ele>
        <time>2022-06-09T17:55:33Z</time>
      </trkpt>
      <trkpt lat="43.89944" lon="6.22567">
        <ele>1106</ele>
        <time>2022-06-09T17:55:37Z</time>
      </trkpt>
      <trkpt lat="43.89968" lon="6.22574">
        <ele>1111</ele>
        <time>2022-06-09T17:55:42Z</time>
      </trkpt>
      <trkpt lat="43.89981" lon="6.22567">
        <ele>1112</ele>
        <time>2022-06-09T17:55:46Z</time>
      </trkpt>
      <trkpt lat="43.90027" lon="6.22498">
        <ele>1113</ele>
        <time>2022-06-09T17:56:02Z</time>
      </trkpt>
      <trkpt lat="43.90029" lon="6.22489">
        <ele>1114</ele>
        <time>2022-06-09T17:56:03Z</time>
      </trkpt>
      <trkpt lat="43.90024" lon="6.2247">
        <ele>1112</ele>
        <time>2022-06-09T17:56:07Z</time>
      </trkpt>
      <trkpt lat="43.90013" lon="6.22443">
        <ele>1108</ele>
        <time>2022-06-09T17:56:12Z</time>
      </trkpt>
      <trkpt lat="43.9001" lon="6.22422">
        <ele>1106</ele>
        <time>2022-06-09T17:56:15Z</time>
      </trkpt>
      <trkpt lat="43.9001" lon="6.22398">
        <ele>1105</ele>
        <time>2022-06-09T17:56:19Z</time>
      </trkpt>
      <trkpt lat="43.90021" lon="6.22334">
        <ele>1108</ele>
        <time>2022-06-09T17:56:30Z</time>
      </trkpt>
      <trkpt lat="43.90031" lon="6.22313">
        <ele>1110</ele>
        <time>2022-06-09T17:56:35Z</time>
      </trkpt>
      <trkpt lat="43.90061" lon="6.22262">
        <ele>1114</ele>
        <time>2022-06-09T17:56:46Z</time>
      </trkpt>
      <trkpt lat="43.90101" lon="6.22213">
        <ele>1117</ele>
        <time>2022-06-09T17:56:58Z</time>
      </trkpt>
      <trkpt lat="43.90139" lon="6.22171">
        <ele>1116</ele>
        <time>2022-06-09T17:57:10Z</time>
      </trkpt>
      <trkpt lat="43.90148" lon="6.22156">
        <ele>1115</ele>
        <time>2022-06-09T17:57:13Z</time>
      </trkpt>
      <trkpt lat="43.90159" lon="6.22144">
        <ele>1116</ele>
        <time>2022-06-09T17:57:16Z</time>
      </trkpt>
      <trkpt lat="43.90176" lon="6.2213">
        <ele>1115</ele>
        <time>2022-06-09T17:57:21Z</time>
      </trkpt>
      <trkpt lat="43.9019" lon="6.22126">
        <ele>1114</ele>
        <time>2022-06-09T17:57:24Z</time>
      </trkpt>
      <trkpt lat="43.90206" lon="6.22129">
        <ele>1114</ele>
        <time>2022-06-09T17:57:28Z</time>
      </trkpt>
      <trkpt lat="43.90228" lon="6.22141">
        <ele>1117</ele>
        <time>2022-06-09T17:57:33Z</time>
      </trkpt>
      <trkpt lat="43.9025" lon="6.22157">
        <ele>1122</ele>
        <time>2022-06-09T17:57:39Z</time>
      </trkpt>
      <trkpt lat="43.90272" lon="6.22182">
        <ele>1125</ele>
        <time>2022-06-09T17:57:46Z</time>
      </trkpt>
      <trkpt lat="43.90304" lon="6.22223">
        <ele>1128</ele>
        <time>2022-06-09T17:57:56Z</time>
      </trkpt>
      <trkpt lat="43.90338" lon="6.22285">
        <ele>1133</ele>
        <time>2022-06-09T17:58:09Z</time>
      </trkpt>
      <trkpt lat="43.90347" lon="6.22325">
        <ele>1139</ele>
        <time>2022-06-09T17:58:16Z</time>
      </trkpt>
      <trkpt lat="43.90345" lon="6.22339">
        <ele>1142</ele>
        <time>2022-06-09T17:58:19Z</time>
      </trkpt>
      <trkpt lat="43.90349" lon="6.22413">
        <ele>1150</ele>
        <time>2022-06-09T17:58:31Z</time>
      </trkpt>
      <trkpt lat="43.90343" lon="6.22431">
        <ele>1156</ele>
        <time>2022-06-09T17:58:34Z</time>
      </trkpt>
      <trkpt lat="43.90344" lon="6.22447">
        <ele>1158</ele>
        <time>2022-06-09T17:58:37Z</time>
      </trkpt>
      <trkpt lat="43.90354" lon="6.22469">
        <ele>1159</ele>
        <time>2022-06-09T17:58:41Z</time>
      </trkpt>
      <trkpt lat="43.90393" lon="6.22501">
        <ele>1156</ele>
        <time>2022-06-09T17:58:52Z</time>
      </trkpt>
      <trkpt lat="43.90392" lon="6.22509">
        <ele>1158</ele>
        <time>2022-06-09T17:58:53Z</time>
      </trkpt>
      <trkpt lat="43.90416" lon="6.22525">
        <ele>1157</ele>
        <time>2022-06-09T17:59:00Z</time>
      </trkpt>
      <trkpt lat="43.90428" lon="6.22536">
        <ele>1159</ele>
        <time>2022-06-09T17:59:03Z</time>
      </trkpt>
      <trkpt lat="43.90437" lon="6.22547">
        <ele>1162</ele>
        <time>2022-06-09T17:59:06Z</time>
      </trkpt>
      <trkpt lat="43.9045" lon="6.22557">
        <ele>1163</ele>
        <time>2022-06-09T17:59:09Z</time>
      </trkpt>
      <trkpt lat="43.90467" lon="6.22578">
        <ele>1168</ele>
        <time>2022-06-09T17:59:15Z</time>
      </trkpt>
      <trkpt lat="43.90502" lon="6.22594">
        <ele>1168</ele>
        <time>2022-06-09T17:59:23Z</time>
      </trkpt>
      <trkpt lat="43.90546" lon="6.22602">
        <ele>1169</ele>
        <time>2022-06-09T17:59:34Z</time>
      </trkpt>
      <trkpt lat="43.90579" lon="6.22612">
        <ele>1171</ele>
        <time>2022-06-09T17:59:41Z</time>
      </trkpt>
      <trkpt lat="43.90633" lon="6.22639">
        <ele>1174</ele>
        <time>2022-06-09T17:59:55Z</time>
      </trkpt>
      <trkpt lat="43.90693" lon="6.22655">
        <ele>1170</ele>
        <time>2022-06-09T18:00:09Z</time>
      </trkpt>
      <trkpt lat="43.90721" lon="6.2267">
        <ele>1168</ele>
        <time>2022-06-09T18:00:16Z</time>
      </trkpt>
      <trkpt lat="43.90743" lon="6.22686">
        <ele>1168</ele>
        <time>2022-06-09T18:00:22Z</time>
      </trkpt>
      <trkpt lat="43.90791" lon="6.2273">
        <ele>1169</ele>
        <time>2022-06-09T18:00:35Z</time>
      </trkpt>
      <trkpt lat="43.9085" lon="6.22796">
        <ele>1175</ele>
        <time>2022-06-09T18:00:53Z</time>
      </trkpt>
      <trkpt lat="43.90876" lon="6.22831">
        <ele>1179</ele>
        <time>2022-06-09T18:01:01Z</time>
      </trkpt>
      <trkpt lat="43.9089" lon="6.22845">
        <ele>1179</ele>
        <time>2022-06-09T18:01:05Z</time>
      </trkpt>
      <trkpt lat="43.90934" lon="6.2288">
        <ele>1181</ele>
        <time>2022-06-09T18:01:17Z</time>
      </trkpt>
      <trkpt lat="43.9095" lon="6.22888">
        <ele>1181</ele>
        <time>2022-06-09T18:01:21Z</time>
      </trkpt>
      <trkpt lat="43.90992" lon="6.22902">
        <ele>1178</ele>
        <time>2022-06-09T18:01:31Z</time>
      </trkpt>
      <trkpt lat="43.9101" lon="6.22916">
        <ele>1180</ele>
        <time>2022-06-09T18:01:36Z</time>
      </trkpt>
      <trkpt lat="43.91017" lon="6.22928">
        <ele>1184</ele>
        <time>2022-06-09T18:01:39Z</time>
      </trkpt>
      <trkpt lat="43.91028" lon="6.22958">
        <ele>1192</ele>
        <time>2022-06-09T18:01:44Z</time>
      </trkpt>
      <trkpt lat="43.91038" lon="6.22965">
        <ele>1194</ele>
        <time>2022-06-09T18:01:47Z</time>
      </trkpt>
      <trkpt lat="43.91051" lon="6.22958">
        <ele>1193</ele>
        <time>2022-06-09T18:01:50Z</time>
      </trkpt>
      <trkpt lat="43.91064" lon="6.22942">
        <ele>1189</ele>
        <time>2022-06-09T18:01:54Z</time>
      </trkpt>
      <trkpt lat="43.91071" lon="6.22927">
        <ele>1186</ele>
        <time>2022-06-09T18:01:57Z</time>
      </trkpt>
      <trkpt lat="43.91096" lon="6.22908">
        <ele>1185</ele>
        <time>2022-06-09T18:02:04Z</time>
      </trkpt>
      <trkpt lat="43.91113" lon="6.22906">
        <ele>1189</ele>
        <time>2022-06-09T18:02:08Z</time>
      </trkpt>
      <trkpt lat="43.9113" lon="6.22908">
        <ele>1194</ele>
        <time>2022-06-09T18:02:12Z</time>
      </trkpt>
      <trkpt lat="43.91139" lon="6.22912">
        <ele>1197</ele>
        <time>2022-06-09T18:02:14Z</time>
      </trkpt>
      <trkpt lat="43.91152" lon="6.22912">
        <ele>1200</ele>
        <time>2022-06-09T18:02:17Z</time>
      </trkpt>
      <trkpt lat="43.91157" lon="6.22907">
        <ele>1201</ele>
        <time>2022-06-09T18:02:19Z</time>
      </trkpt>
      <trkpt lat="43.91159" lon="6.22912">
        <ele>1202</ele>
        <time>2022-06-09T18:02:20Z</time>
      </trkpt>
      <trkpt lat="43.91163" lon="6.2291">
        <ele>1203</ele>
        <time>2022-06-09T18:02:21Z</time>
      </trkpt>
      <trkpt lat="43.91168" lon="6.22913">
        <ele>1205</ele>
        <time>2022-06-09T18:02:22Z</time>
      </trkpt>
      <trkpt lat="43.91202" lon="6.22906">
        <ele>1213</ele>
        <time>2022-06-09T18:02:30Z</time>
      </trkpt>
      <trkpt lat="43.91206" lon="6.22909">
        <ele>1214</ele>
        <time>2022-06-09T18:02:31Z</time>
      </trkpt>
      <trkpt lat="43.91221" lon="6.22912">
        <ele>1219</ele>
        <time>2022-06-09T18:02:35Z</time>
      </trkpt>
      <trkpt lat="43.91234" lon="6.22911">
        <ele>1223</ele>
        <time>2022-06-09T18:02:38Z</time>
      </trkpt>
      <trkpt lat="43.91239" lon="6.22916">
        <ele>1225</ele>
        <time>2022-06-09T18:02:39Z</time>
      </trkpt>
      <trkpt lat="43.91256" lon="6.22925">
        <ele>1230</ele>
        <time>2022-06-09T18:02:43Z</time>
      </trkpt>
      <trkpt lat="43.91265" lon="6.22946">
        <ele>1236</ele>
        <time>2022-06-09T18:02:47Z</time>
      </trkpt>
      <trkpt lat="43.91271" lon="6.22952">
        <ele>1238</ele>
        <time>2022-06-09T18:02:49Z</time>
      </trkpt>
      <trkpt lat="43.91273" lon="6.22965">
        <ele>1241</ele>
        <time>2022-06-09T18:02:51Z</time>
      </trkpt>
      <trkpt lat="43.91267" lon="6.22982">
        <ele>1243</ele>
        <time>2022-06-09T18:02:55Z</time>
      </trkpt>
      <trkpt lat="43.91273" lon="6.22986">
        <ele>1245</ele>
        <time>2022-06-09T18:02:56Z</time>
      </trkpt>
      <trkpt lat="43.91296" lon="6.22975">
        <ele>1246</ele>
        <time>2022-06-09T18:03:02Z</time>
      </trkpt>
      <trkpt lat="43.91318" lon="6.22973">
        <ele>1249</ele>
        <time>2022-06-09T18:03:07Z</time>
      </trkpt>
      <trkpt lat="43.91329" lon="6.22976">
        <ele>1251</ele>
        <time>2022-06-09T18:03:10Z</time>
      </trkpt>
      <trkpt lat="43.91366" lon="6.23005">
        <ele>1255</ele>
        <time>2022-06-09T18:03:19Z</time>
      </trkpt>
      <trkpt lat="43.91371" lon="6.23018">
        <ele>1258</ele>
        <time>2022-06-09T18:03:22Z</time>
      </trkpt>
      <trkpt lat="43.91365" lon="6.23019">
        <ele>1259</ele>
        <time>2022-06-09T18:03:23Z</time>
      </trkpt>
      <trkpt lat="43.91353" lon="6.23014">
        <ele>1258</ele>
        <time>2022-06-09T18:03:26Z</time>
      </trkpt>
      <trkpt lat="43.91321" lon="6.23019">
        <ele>1259</ele>
        <time>2022-06-09T18:03:34Z</time>
      </trkpt>
      <trkpt lat="43.91285" lon="6.23044">
        <ele>1260</ele>
        <time>2022-06-09T18:03:43Z</time>
      </trkpt>
      <trkpt lat="43.91285" lon="6.23052">
        <ele>1262</ele>
        <time>2022-06-09T18:03:45Z</time>
      </trkpt>
      <trkpt lat="43.91287" lon="6.23053">
        <ele>1262</ele>
        <time>2022-06-09T18:03:45Z</time>
      </trkpt>
      <trkpt lat="43.91309" lon="6.23046">
        <ele>1264</ele>
        <time>2022-06-09T18:03:50Z</time>
      </trkpt>
      <trkpt lat="43.91326" lon="6.2305">
        <ele>1267</ele>
        <time>2022-06-09T18:03:54Z</time>
      </trkpt>
      <trkpt lat="43.91373" lon="6.23078">
        <ele>1274</ele>
        <time>2022-06-09T18:04:06Z</time>
      </trkpt>
      <trkpt lat="43.9138" lon="6.23092">
        <ele>1278</ele>
        <time>2022-06-09T18:04:09Z</time>
      </trkpt>
      <trkpt lat="43.91377" lon="6.23094">
        <ele>1278</ele>
        <time>2022-06-09T18:04:10Z</time>
      </trkpt>
      <trkpt lat="43.91369" lon="6.23089">
        <ele>1277</ele>
        <time>2022-06-09T18:04:12Z</time>
      </trkpt>
      <trkpt lat="43.91357" lon="6.23089">
        <ele>1277</ele>
        <time>2022-06-09T18:04:15Z</time>
      </trkpt>
      <trkpt lat="43.91338" lon="6.23093">
        <ele>1278</ele>
        <time>2022-06-09T18:04:19Z</time>
      </trkpt>
      <trkpt lat="43.91299" lon="6.23111">
        <ele>1279</ele>
        <time>2022-06-09T18:04:29Z</time>
      </trkpt>
      <trkpt lat="43.91199" lon="6.23194">
        <ele>1286</ele>
        <time>2022-06-09T18:04:56Z</time>
      </trkpt>
      <trkpt lat="43.91184" lon="6.23218">
        <ele>1291</ele>
        <time>2022-06-09T18:05:01Z</time>
      </trkpt>
      <trkpt lat="43.91174" lon="6.23245">
        <ele>1297</ele>
        <time>2022-06-09T18:05:07Z</time>
      </trkpt>
      <trkpt lat="43.9117" lon="6.23274">
        <ele>1303</ele>
        <time>2022-06-09T18:05:12Z</time>
      </trkpt>
      <trkpt lat="43.91172" lon="6.23276">
        <ele>1304</ele>
        <time>2022-06-09T18:05:12Z</time>
      </trkpt>
      <trkpt lat="43.91179" lon="6.23269">
        <ele>1304</ele>
        <time>2022-06-09T18:05:14Z</time>
      </trkpt>
      <trkpt lat="43.91182" lon="6.23261">
        <ele>1303</ele>
        <time>2022-06-09T18:05:16Z</time>
      </trkpt>
      <trkpt lat="43.91187" lon="6.23259">
        <ele>1303</ele>
        <time>2022-06-09T18:05:17Z</time>
      </trkpt>
      <trkpt lat="43.91201" lon="6.23241">
        <ele>1302</ele>
        <time>2022-06-09T18:05:21Z</time>
      </trkpt>
      <trkpt lat="43.91212" lon="6.23239">
        <ele>1303</ele>
        <time>2022-06-09T18:05:24Z</time>
      </trkpt>
      <trkpt lat="43.91216" lon="6.23243">
        <ele>1305</ele>
        <time>2022-06-09T18:05:25Z</time>
      </trkpt>
      <trkpt lat="43.91217" lon="6.23249">
        <ele>1308</ele>
        <time>2022-06-09T18:05:26Z</time>
      </trkpt>
      <trkpt lat="43.91208" lon="6.2327">
        <ele>1310</ele>
        <time>2022-06-09T18:05:30Z</time>
      </trkpt>
      <trkpt lat="43.91197" lon="6.23285">
        <ele>1311</ele>
        <time>2022-06-09T18:05:34Z</time>
      </trkpt>
      <trkpt lat="43.91193" lon="6.23295">
        <ele>1313</ele>
        <time>2022-06-09T18:05:36Z</time>
      </trkpt>
      <trkpt lat="43.91165" lon="6.23328">
        <ele>1316</ele>
        <time>2022-06-09T18:05:44Z</time>
      </trkpt>
      <trkpt lat="43.9115" lon="6.23339">
        <ele>1317</ele>
        <time>2022-06-09T18:05:48Z</time>
      </trkpt>
      <trkpt lat="43.91113" lon="6.23359">
        <ele>1317</ele>
        <time>2022-06-09T18:05:58Z</time>
      </trkpt>
      <trkpt lat="43.91072" lon="6.23376">
        <ele>1316</ele>
        <time>2022-06-09T18:06:08Z</time>
      </trkpt>
      <trkpt lat="43.91044" lon="6.23399">
        <ele>1318</ele>
        <time>2022-06-09T18:06:15Z</time>
      </trkpt>
      <trkpt lat="43.91029" lon="6.23405">
        <ele>1318</ele>
        <time>2022-06-09T18:06:19Z</time>
      </trkpt>
      <trkpt lat="43.90985" lon="6.23405">
        <ele>1320</ele>
        <time>2022-06-09T18:06:29Z</time>
      </trkpt>
      <trkpt lat="43.90965" lon="6.23412">
        <ele>1325</ele>
        <time>2022-06-09T18:06:34Z</time>
      </trkpt>
      <trkpt lat="43.90955" lon="6.23422">
        <ele>1327</ele>
        <time>2022-06-09T18:06:37Z</time>
      </trkpt>
      <trkpt lat="43.90947" lon="6.23437">
        <ele>1329</ele>
        <time>2022-06-09T18:06:40Z</time>
      </trkpt>
      <trkpt lat="43.90945" lon="6.23449">
        <ele>1330</ele>
        <time>2022-06-09T18:06:42Z</time>
      </trkpt>
      <trkpt lat="43.90942" lon="6.23452">
        <ele>1331</ele>
        <time>2022-06-09T18:06:43Z</time>
      </trkpt>
      <trkpt lat="43.90931" lon="6.23454">
        <ele>1333</ele>
        <time>2022-06-09T18:06:45Z</time>
      </trkpt>
      <trkpt lat="43.90934" lon="6.23467">
        <ele>1332</ele>
        <time>2022-06-09T18:06:48Z</time>
      </trkpt>
      <trkpt lat="43.9093" lon="6.23482">
        <ele>1333</ele>
        <time>2022-06-09T18:06:50Z</time>
      </trkpt>
      <trkpt lat="43.90924" lon="6.23499">
        <ele>1335</ele>
        <time>2022-06-09T18:06:54Z</time>
      </trkpt>
      <trkpt lat="43.90911" lon="6.23514">
        <ele>1338</ele>
        <time>2022-06-09T18:06:58Z</time>
      </trkpt>
      <trkpt lat="43.90902" lon="6.23538">
        <ele>1342</ele>
        <time>2022-06-09T18:07:02Z</time>
      </trkpt>
      <trkpt lat="43.90898" lon="6.23561">
        <ele>1344</ele>
        <time>2022-06-09T18:07:06Z</time>
      </trkpt>
      <trkpt lat="43.90892" lon="6.23572">
        <ele>1346</ele>
        <time>2022-06-09T18:07:08Z</time>
      </trkpt>
      <trkpt lat="43.90888" lon="6.2359">
        <ele>1348</ele>
        <time>2022-06-09T18:07:12Z</time>
      </trkpt>
      <trkpt lat="43.90881" lon="6.23601">
        <ele>1350</ele>
        <time>2022-06-09T18:07:14Z</time>
      </trkpt>
      <trkpt lat="43.90877" lon="6.23621">
        <ele>1351</ele>
        <time>2022-06-09T18:07:17Z</time>
      </trkpt>
      <trkpt lat="43.90859" lon="6.23669">
        <ele>1355</ele>
        <time>2022-06-09T18:07:27Z</time>
      </trkpt>
      <trkpt lat="43.9085" lon="6.23684">
        <ele>1357</ele>
        <time>2022-06-09T18:07:30Z</time>
      </trkpt>
      <trkpt lat="43.90835" lon="6.23698">
        <ele>1360</ele>
        <time>2022-06-09T18:07:34Z</time>
      </trkpt>
      <trkpt lat="43.90807" lon="6.2374">
        <ele>1365</ele>
        <time>2022-06-09T18:07:44Z</time>
      </trkpt>
      <trkpt lat="43.9079" lon="6.23755">
        <ele>1368</ele>
        <time>2022-06-09T18:07:48Z</time>
      </trkpt>
      <trkpt lat="43.9078" lon="6.23757">
        <ele>1371</ele>
        <time>2022-06-09T18:07:51Z</time>
      </trkpt>
      <trkpt lat="43.90765" lon="6.23764">
        <ele>1374</ele>
        <time>2022-06-09T18:07:54Z</time>
      </trkpt>
      <trkpt lat="43.90762" lon="6.23763">
        <ele>1375</ele>
        <time>2022-06-09T18:07:55Z</time>
      </trkpt>
      <trkpt lat="43.90761" lon="6.23771">
        <ele>1374</ele>
        <time>2022-06-09T18:07:57Z</time>
      </trkpt>
      <trkpt lat="43.90748" lon="6.23775">
        <ele>1377</ele>
        <time>2022-06-09T18:08:00Z</time>
      </trkpt>
      <trkpt lat="43.90726" lon="6.23795">
        <ele>1381</ele>
        <time>2022-06-09T18:08:06Z</time>
      </trkpt>
      <trkpt lat="43.90677" lon="6.23824">
        <ele>1389</ele>
        <time>2022-06-09T18:08:18Z</time>
      </trkpt>
      <trkpt lat="43.90647" lon="6.23848">
        <ele>1396</ele>
        <time>2022-06-09T18:08:26Z</time>
      </trkpt>
      <trkpt lat="43.90625" lon="6.23855">
        <ele>1402</ele>
        <time>2022-06-09T18:08:32Z</time>
      </trkpt>
      <trkpt lat="43.90614" lon="6.23855">
        <ele>1405</ele>
        <time>2022-06-09T18:08:34Z</time>
      </trkpt>
      <trkpt lat="43.90607" lon="6.23858">
        <ele>1407</ele>
        <time>2022-06-09T18:08:36Z</time>
      </trkpt>
      <trkpt lat="43.906" lon="6.23866">
        <ele>1409</ele>
        <time>2022-06-09T18:08:38Z</time>
      </trkpt>
      <trkpt lat="43.90595" lon="6.23883">
        <ele>1410</ele>
        <time>2022-06-09T18:08:41Z</time>
      </trkpt>
      <trkpt lat="43.90615" lon="6.23904">
        <ele>1405</ele>
        <time>2022-06-09T18:08:47Z</time>
      </trkpt>
      <trkpt lat="43.90626" lon="6.2392">
        <ele>1403</ele>
        <time>2022-06-09T18:08:51Z</time>
      </trkpt>
      <trkpt lat="43.90634" lon="6.23937">
        <ele>1404</ele>
        <time>2022-06-09T18:08:54Z</time>
      </trkpt>
      <trkpt lat="43.90638" lon="6.23958">
        <ele>1406</ele>
        <time>2022-06-09T18:08:58Z</time>
      </trkpt>
      <trkpt lat="43.90635" lon="6.2398">
        <ele>1411</ele>
        <time>2022-06-09T18:09:02Z</time>
      </trkpt>
      <trkpt lat="43.9064" lon="6.23993">
        <ele>1412</ele>
        <time>2022-06-09T18:09:04Z</time>
      </trkpt>
      <trkpt lat="43.90642" lon="6.24017">
        <ele>1415</ele>
        <time>2022-06-09T18:09:08Z</time>
      </trkpt>
      <trkpt lat="43.90654" lon="6.24064">
        <ele>1418</ele>
        <time>2022-06-09T18:09:16Z</time>
      </trkpt>
      <trkpt lat="43.90654" lon="6.24118">
        <ele>1423</ele>
        <time>2022-06-09T18:09:26Z</time>
      </trkpt>
      <trkpt lat="43.90659" lon="6.24145">
        <ele>1423</ele>
        <time>2022-06-09T18:09:30Z</time>
      </trkpt>
      <trkpt lat="43.90654" lon="6.24142">
        <ele>1425</ele>
        <time>2022-06-09T18:09:32Z</time>
      </trkpt>
      <trkpt lat="43.9065" lon="6.24145">
        <ele>1427</ele>
        <time>2022-06-09T18:09:33Z</time>
      </trkpt>
      <trkpt lat="43.90656" lon="6.24147">
        <ele>1424</ele>
        <time>2022-06-09T18:09:34Z</time>
      </trkpt>
      <trkpt lat="43.90659" lon="6.24157">
        <ele>1424</ele>
        <time>2022-06-09T18:09:36Z</time>
      </trkpt>
      <trkpt lat="43.90658" lon="6.24169">
        <ele>1425</ele>
        <time>2022-06-09T18:09:38Z</time>
      </trkpt>
      <trkpt lat="43.90643" lon="6.24196">
        <ele>1432</ele>
        <time>2022-06-09T18:09:44Z</time>
      </trkpt>
      <trkpt lat="43.90626" lon="6.24249">
        <ele>1439</ele>
        <time>2022-06-09T18:09:53Z</time>
      </trkpt>
      <trkpt lat="43.9062" lon="6.2426">
        <ele>1442</ele>
        <time>2022-06-09T18:09:56Z</time>
      </trkpt>
      <trkpt lat="43.90611" lon="6.24294">
        <ele>1447</ele>
        <time>2022-06-09T18:10:02Z</time>
      </trkpt>
      <trkpt lat="43.90614" lon="6.24332">
        <ele>1447</ele>
        <time>2022-06-09T18:10:08Z</time>
      </trkpt>
      <trkpt lat="43.90619" lon="6.24346">
        <ele>1447</ele>
        <time>2022-06-09T18:10:11Z</time>
      </trkpt>
      <trkpt lat="43.90632" lon="6.24369">
        <ele>1444</ele>
        <time>2022-06-09T18:10:16Z</time>
      </trkpt>
      <trkpt lat="43.90641" lon="6.24399">
        <ele>1444</ele>
        <time>2022-06-09T18:10:21Z</time>
      </trkpt>
      <trkpt lat="43.90644" lon="6.24419">
        <ele>1445</ele>
        <time>2022-06-09T18:10:25Z</time>
      </trkpt>
      <trkpt lat="43.90638" lon="6.2442">
        <ele>1446</ele>
        <time>2022-06-09T18:10:26Z</time>
      </trkpt>
      <trkpt lat="43.90625" lon="6.24406">
        <ele>1448</ele>
        <time>2022-06-09T18:10:30Z</time>
      </trkpt>
      <trkpt lat="43.90614" lon="6.24385">
        <ele>1449</ele>
        <time>2022-06-09T18:10:34Z</time>
      </trkpt>
      <trkpt lat="43.90604" lon="6.24374">
        <ele>1451</ele>
        <time>2022-06-09T18:10:37Z</time>
      </trkpt>
      <trkpt lat="43.90565" lon="6.24343">
        <ele>1460</ele>
        <time>2022-06-09T18:10:48Z</time>
      </trkpt>
      <trkpt lat="43.90544" lon="6.24323">
        <ele>1466</ele>
        <time>2022-06-09T18:10:54Z</time>
      </trkpt>
      <trkpt lat="43.90521" lon="6.24307">
        <ele>1472</ele>
        <time>2022-06-09T18:11:00Z</time>
      </trkpt>
      <trkpt lat="43.90499" lon="6.24302">
        <ele>1477</ele>
        <time>2022-06-09T18:11:05Z</time>
      </trkpt>
      <trkpt lat="43.90488" lon="6.24302">
        <ele>1476</ele>
        <time>2022-06-09T18:11:07Z</time>
      </trkpt>
      <trkpt lat="43.9048" lon="6.24305">
        <ele>1475</ele>
        <time>2022-06-09T18:11:09Z</time>
      </trkpt>
      <trkpt lat="43.90477" lon="6.24311">
        <ele>1475</ele>
        <time>2022-06-09T18:11:11Z</time>
      </trkpt>
      <trkpt lat="43.90464" lon="6.24323">
        <ele>1473</ele>
        <time>2022-06-09T18:11:14Z</time>
      </trkpt>
      <trkpt lat="43.90456" lon="6.24334">
        <ele>1471</ele>
        <time>2022-06-09T18:11:17Z</time>
      </trkpt>
      <trkpt lat="43.90447" lon="6.24357">
        <ele>1473</ele>
        <time>2022-06-09T18:11:21Z</time>
      </trkpt>
      <trkpt lat="43.90429" lon="6.24381">
        <ele>1474</ele>
        <time>2022-06-09T18:11:27Z</time>
      </trkpt>
      <trkpt lat="43.90411" lon="6.24391">
        <ele>1474</ele>
        <time>2022-06-09T18:11:32Z</time>
      </trkpt>
      <trkpt lat="43.90386" lon="6.2442">
        <ele>1470</ele>
        <time>2022-06-09T18:11:39Z</time>
      </trkpt>
      <trkpt lat="43.90354" lon="6.2445">
        <ele>1468</ele>
        <time>2022-06-09T18:11:48Z</time>
      </trkpt>
      <trkpt lat="43.90301" lon="6.24489">
        <ele>1464</ele>
        <time>2022-06-09T18:12:02Z</time>
      </trkpt>
      <trkpt lat="43.90221" lon="6.2453">
        <ele>1454</ele>
        <time>2022-06-09T18:12:22Z</time>
      </trkpt>
      <trkpt lat="43.90217" lon="6.24534">
        <ele>1454</ele>
        <time>2022-06-09T18:12:23Z</time>
      </trkpt>
      <trkpt lat="43.90147" lon="6.24565">
        <ele>1447</ele>
        <time>2022-06-09T18:12:41Z</time>
      </trkpt>
      <trkpt lat="43.90112" lon="6.24592">
        <ele>1448</ele>
        <time>2022-06-09T18:12:50Z</time>
      </trkpt>
      <trkpt lat="43.90089" lon="6.24606">
        <ele>1448</ele>
        <time>2022-06-09T18:12:56Z</time>
      </trkpt>
      <trkpt lat="43.90046" lon="6.24612">
        <ele>1445</ele>
        <time>2022-06-09T18:13:06Z</time>
      </trkpt>
      <trkpt lat="43.90021" lon="6.24613">
        <ele>1442</ele>
        <time>2022-06-09T18:13:12Z</time>
      </trkpt>
      <trkpt lat="43.89985" lon="6.24624">
        <ele>1442</ele>
        <time>2022-06-09T18:13:20Z</time>
      </trkpt>
      <trkpt lat="43.8996" lon="6.24629">
        <ele>1440</ele>
        <time>2022-06-09T18:13:26Z</time>
      </trkpt>
      <trkpt lat="43.89922" lon="6.24626">
        <ele>1433</ele>
        <time>2022-06-09T18:13:35Z</time>
      </trkpt>
      <trkpt lat="43.89903" lon="6.24631">
        <ele>1431</ele>
        <time>2022-06-09T18:13:40Z</time>
      </trkpt>
      <trkpt lat="43.89877" lon="6.24648">
        <ele>1430</ele>
        <time>2022-06-09T18:13:46Z</time>
      </trkpt>
      <trkpt lat="43.89846" lon="6.24684">
        <ele>1434</ele>
        <time>2022-06-09T18:13:56Z</time>
      </trkpt>
      <trkpt lat="43.89821" lon="6.24693">
        <ele>1433</ele>
        <time>2022-06-09T18:14:02Z</time>
      </trkpt>
      <trkpt lat="43.89792" lon="6.24728">
        <ele>1439</ele>
        <time>2022-06-09T18:14:11Z</time>
      </trkpt>
      <trkpt lat="43.89781" lon="6.24737">
        <ele>1439</ele>
        <time>2022-06-09T18:14:14Z</time>
      </trkpt>
      <trkpt lat="43.89769" lon="6.24762">
        <ele>1443</ele>
        <time>2022-06-09T18:14:19Z</time>
      </trkpt>
      <trkpt lat="43.89754" lon="6.24776">
        <ele>1443</ele>
        <time>2022-06-09T18:14:23Z</time>
      </trkpt>
      <trkpt lat="43.89731" lon="6.24791">
        <ele>1445</ele>
        <time>2022-06-09T18:14:29Z</time>
      </trkpt>
      <trkpt lat="43.89704" lon="6.24804">
        <ele>1447</ele>
        <time>2022-06-09T18:14:36Z</time>
      </trkpt>
      <trkpt lat="43.89684" lon="6.24808">
        <ele>1447</ele>
        <time>2022-06-09T18:14:40Z</time>
      </trkpt>
      <trkpt lat="43.89668" lon="6.24815">
        <ele>1448</ele>
        <time>2022-06-09T18:14:44Z</time>
      </trkpt>
      <trkpt lat="43.89651" lon="6.2483">
        <ele>1451</ele>
        <time>2022-06-09T18:14:49Z</time>
      </trkpt>
      <trkpt lat="43.89633" lon="6.24829">
        <ele>1450</ele>
        <time>2022-06-09T18:14:53Z</time>
      </trkpt>
      <trkpt lat="43.89602" lon="6.24817">
        <ele>1446</ele>
        <time>2022-06-09T18:15:01Z</time>
      </trkpt>
      <trkpt lat="43.89586" lon="6.24818">
        <ele>1445</ele>
        <time>2022-06-09T18:15:04Z</time>
      </trkpt>
      <trkpt lat="43.89575" lon="6.24824">
        <ele>1446</ele>
        <time>2022-06-09T18:15:07Z</time>
      </trkpt>
      <trkpt lat="43.89542" lon="6.24866">
        <ele>1455</ele>
        <time>2022-06-09T18:15:18Z</time>
      </trkpt>
      <trkpt lat="43.89523" lon="6.24896">
        <ele>1462</ele>
        <time>2022-06-09T18:15:24Z</time>
      </trkpt>
      <trkpt lat="43.8951" lon="6.24907">
        <ele>1464</ele>
        <time>2022-06-09T18:15:28Z</time>
      </trkpt>
      <trkpt lat="43.89497" lon="6.24909">
        <ele>1463</ele>
        <time>2022-06-09T18:15:31Z</time>
      </trkpt>
      <trkpt lat="43.89479" lon="6.24903">
        <ele>1462</ele>
        <time>2022-06-09T18:15:35Z</time>
      </trkpt>
      <trkpt lat="43.89431" lon="6.24902">
        <ele>1463</ele>
        <time>2022-06-09T18:15:47Z</time>
      </trkpt>
      <trkpt lat="43.89392" lon="6.24909">
        <ele>1466</ele>
        <time>2022-06-09T18:15:56Z</time>
      </trkpt>
      <trkpt lat="43.8937" lon="6.24919">
        <ele>1467</ele>
        <time>2022-06-09T18:16:01Z</time>
      </trkpt>
      <trkpt lat="43.89352" lon="6.2492">
        <ele>1468</ele>
        <time>2022-06-09T18:16:05Z</time>
      </trkpt>
      <trkpt lat="43.89319" lon="6.24898">
        <ele>1467</ele>
        <time>2022-06-09T18:16:14Z</time>
      </trkpt>
      <trkpt lat="43.89299" lon="6.24896">
        <ele>1468</ele>
        <time>2022-06-09T18:16:19Z</time>
      </trkpt>
      <trkpt lat="43.89275" lon="6.249">
        <ele>1468</ele>
        <time>2022-06-09T18:16:24Z</time>
      </trkpt>
      <trkpt lat="43.89272" lon="6.24904">
        <ele>1467</ele>
        <time>2022-06-09T18:16:25Z</time>
      </trkpt>
      <trkpt lat="43.89269" lon="6.24932">
        <ele>1466</ele>
        <time>2022-06-09T18:16:30Z</time>
      </trkpt>
      <trkpt lat="43.89264" lon="6.24951">
        <ele>1466</ele>
        <time>2022-06-09T18:16:33Z</time>
      </trkpt>
      <trkpt lat="43.89245" lon="6.24976">
        <ele>1463</ele>
        <time>2022-06-09T18:16:39Z</time>
      </trkpt>
      <trkpt lat="43.89232" lon="6.2501">
        <ele>1461</ele>
        <time>2022-06-09T18:16:46Z</time>
      </trkpt>
      <trkpt lat="43.8922" lon="6.25033">
        <ele>1460</ele>
        <time>2022-06-09T18:16:51Z</time>
      </trkpt>
      <trkpt lat="43.8921" lon="6.25046">
        <ele>1459</ele>
        <time>2022-06-09T18:16:54Z</time>
      </trkpt>
      <trkpt lat="43.8912" lon="6.2513">
        <ele>1450</ele>
        <time>2022-06-09T18:17:19Z</time>
      </trkpt>
      <trkpt lat="43.89043" lon="6.25186">
        <ele>1440</ele>
        <time>2022-06-09T18:17:40Z</time>
      </trkpt>
      <trkpt lat="43.89014" lon="6.25213">
        <ele>1437</ele>
        <time>2022-06-09T18:17:48Z</time>
      </trkpt>
      <trkpt lat="43.88991" lon="6.25258">
        <ele>1438</ele>
        <time>2022-06-09T18:17:57Z</time>
      </trkpt>
      <trkpt lat="43.88977" lon="6.25267">
        <ele>1436</ele>
        <time>2022-06-09T18:18:01Z</time>
      </trkpt>
      <trkpt lat="43.88949" lon="6.25273">
        <ele>1431</ele>
        <time>2022-06-09T18:18:07Z</time>
      </trkpt>
      <trkpt lat="43.88916" lon="6.25288">
        <ele>1427</ele>
        <time>2022-06-09T18:18:15Z</time>
      </trkpt>
      <trkpt lat="43.88901" lon="6.25301">
        <ele>1427</ele>
        <time>2022-06-09T18:18:19Z</time>
      </trkpt>
      <trkpt lat="43.88868" lon="6.25338">
        <ele>1427</ele>
        <time>2022-06-09T18:18:29Z</time>
      </trkpt>
      <trkpt lat="43.88824" lon="6.25364">
        <ele>1424</ele>
        <time>2022-06-09T18:18:41Z</time>
      </trkpt>
      <trkpt lat="43.88805" lon="6.25369">
        <ele>1423</ele>
        <time>2022-06-09T18:18:45Z</time>
      </trkpt>
      <trkpt lat="43.88785" lon="6.25367">
        <ele>1420</ele>
        <time>2022-06-09T18:18:50Z</time>
      </trkpt>
      <trkpt lat="43.88767" lon="6.25369">
        <ele>1418</ele>
        <time>2022-06-09T18:18:54Z</time>
      </trkpt>
      <trkpt lat="43.8869" lon="6.25414">
        <ele>1411</ele>
        <time>2022-06-09T18:19:13Z</time>
      </trkpt>
      <trkpt lat="43.88671" lon="6.25415">
        <ele>1407</ele>
        <time>2022-06-09T18:19:18Z</time>
      </trkpt>
      <trkpt lat="43.88652" lon="6.25411">
        <ele>1403</ele>
        <time>2022-06-09T18:19:22Z</time>
      </trkpt>
      <trkpt lat="43.88623" lon="6.25411">
        <ele>1399</ele>
        <time>2022-06-09T18:19:29Z</time>
      </trkpt>
      <trkpt lat="43.88591" lon="6.25435">
        <ele>1400</ele>
        <time>2022-06-09T18:19:38Z</time>
      </trkpt>
      <trkpt lat="43.88554" lon="6.25456">
        <ele>1400</ele>
        <time>2022-06-09T18:19:47Z</time>
      </trkpt>
      <trkpt lat="43.8852" lon="6.255">
        <ele>1404</ele>
        <time>2022-06-09T18:19:58Z</time>
      </trkpt>
      <trkpt lat="43.88517" lon="6.25514">
        <ele>1405</ele>
        <time>2022-06-09T18:20:00Z</time>
      </trkpt>
      <trkpt lat="43.88519" lon="6.25523">
        <ele>1407</ele>
        <time>2022-06-09T18:20:02Z</time>
      </trkpt>
      <trkpt lat="43.88517" lon="6.25525">
        <ele>1407</ele>
        <time>2022-06-09T18:20:02Z</time>
      </trkpt>
      <trkpt lat="43.88519" lon="6.25523">
        <ele>1407</ele>
        <time>2022-06-09T18:20:03Z</time>
      </trkpt>
      <trkpt lat="43.88522" lon="6.25528">
        <ele>1408</ele>
        <time>2022-06-09T18:20:04Z</time>
      </trkpt>
      <trkpt lat="43.88517" lon="6.25522">
        <ele>1406</ele>
        <time>2022-06-09T18:20:06Z</time>
      </trkpt>
      <trkpt lat="43.88504" lon="6.25578">
        <ele>1412</ele>
        <time>2022-06-09T18:20:16Z</time>
      </trkpt>
      <trkpt lat="43.88492" lon="6.25597">
        <ele>1413</ele>
        <time>2022-06-09T18:20:20Z</time>
      </trkpt>
      <trkpt lat="43.88472" lon="6.2561">
        <ele>1412</ele>
        <time>2022-06-09T18:20:25Z</time>
      </trkpt>
      <trkpt lat="43.88467" lon="6.25619">
        <ele>1412</ele>
        <time>2022-06-09T18:20:27Z</time>
      </trkpt>
      <trkpt lat="43.88456" lon="6.2563">
        <ele>1412</ele>
        <time>2022-06-09T18:20:30Z</time>
      </trkpt>
      <trkpt lat="43.88444" lon="6.25665">
        <ele>1417</ele>
        <time>2022-06-09T18:20:37Z</time>
      </trkpt>
      <trkpt lat="43.88435" lon="6.2568">
        <ele>1419</ele>
        <time>2022-06-09T18:20:40Z</time>
      </trkpt>
      <trkpt lat="43.88416" lon="6.25697">
        <ele>1418</ele>
        <time>2022-06-09T18:20:45Z</time>
      </trkpt>
      <trkpt lat="43.88395" lon="6.257">
        <ele>1415</ele>
        <time>2022-06-09T18:20:50Z</time>
      </trkpt>
      <trkpt lat="43.88381" lon="6.2571">
        <ele>1415</ele>
        <time>2022-06-09T18:20:54Z</time>
      </trkpt>
      <trkpt lat="43.88369" lon="6.25723">
        <ele>1416</ele>
        <time>2022-06-09T18:20:57Z</time>
      </trkpt>
      <trkpt lat="43.88347" lon="6.25771">
        <ele>1422</ele>
        <time>2022-06-09T18:21:07Z</time>
      </trkpt>
      <trkpt lat="43.88329" lon="6.25804">
        <ele>1425</ele>
        <time>2022-06-09T18:21:14Z</time>
      </trkpt>
      <trkpt lat="43.88305" lon="6.25869">
        <ele>1433</ele>
        <time>2022-06-09T18:21:26Z</time>
      </trkpt>
      <trkpt lat="43.88294" lon="6.25888">
        <ele>1435</ele>
        <time>2022-06-09T18:21:30Z</time>
      </trkpt>
      <trkpt lat="43.88223" lon="6.25978">
        <ele>1440</ele>
        <time>2022-06-09T18:21:53Z</time>
      </trkpt>
      <trkpt lat="43.88183" lon="6.26019">
        <ele>1441</ele>
        <time>2022-06-09T18:22:04Z</time>
      </trkpt>
      <trkpt lat="43.88147" lon="6.26061">
        <ele>1442</ele>
        <time>2022-06-09T18:22:15Z</time>
      </trkpt>
      <trkpt lat="43.88105" lon="6.26128">
        <ele>1450</ele>
        <time>2022-06-09T18:22:30Z</time>
      </trkpt>
      <trkpt lat="43.88087" lon="6.26148">
        <ele>1450</ele>
        <time>2022-06-09T18:22:36Z</time>
      </trkpt>
      <trkpt lat="43.88069" lon="6.26175">
        <ele>1453</ele>
        <time>2022-06-09T18:22:42Z</time>
      </trkpt>
      <trkpt lat="43.88006" lon="6.26249">
        <ele>1456</ele>
        <time>2022-06-09T18:23:01Z</time>
      </trkpt>
      <trkpt lat="43.87983" lon="6.26283">
        <ele>1460</ele>
        <time>2022-06-09T18:23:09Z</time>
      </trkpt>
      <trkpt lat="43.87949" lon="6.26326">
        <ele>1465</ele>
        <time>2022-06-09T18:23:20Z</time>
      </trkpt>
      <trkpt lat="43.87856" lon="6.26424">
        <ele>1470</ele>
        <time>2022-06-09T18:23:47Z</time>
      </trkpt>
      <trkpt lat="43.87816" lon="6.26454">
        <ele>1467</ele>
        <time>2022-06-09T18:23:58Z</time>
      </trkpt>
      <trkpt lat="43.87745" lon="6.26522">
        <ele>1469</ele>
        <time>2022-06-09T18:24:18Z</time>
      </trkpt>
      <trkpt lat="43.87724" lon="6.26538">
        <ele>1466</ele>
        <time>2022-06-09T18:24:23Z</time>
      </trkpt>
      <trkpt lat="43.87652" lon="6.26631">
        <ele>1469</ele>
        <time>2022-06-09T18:24:46Z</time>
      </trkpt>
      <trkpt lat="43.8761" lon="6.26671">
        <ele>1468</ele>
        <time>2022-06-09T18:24:58Z</time>
      </trkpt>
      <trkpt lat="43.87571" lon="6.26713">
        <ele>1471</ele>
        <time>2022-06-09T18:25:10Z</time>
      </trkpt>
      <trkpt lat="43.87518" lon="6.26744">
        <ele>1473</ele>
        <time>2022-06-09T18:25:23Z</time>
      </trkpt>
      <trkpt lat="43.87499" lon="6.26745">
        <ele>1470</ele>
        <time>2022-06-09T18:25:28Z</time>
      </trkpt>
      <trkpt lat="43.87405" lon="6.26791">
        <ele>1466</ele>
        <time>2022-06-09T18:25:51Z</time>
      </trkpt>
      <trkpt lat="43.87338" lon="6.26834">
        <ele>1465</ele>
        <time>2022-06-09T18:26:08Z</time>
      </trkpt>
      <trkpt lat="43.87308" lon="6.2685">
        <ele>1468</ele>
        <time>2022-06-09T18:26:16Z</time>
      </trkpt>
      <trkpt lat="43.87249" lon="6.26865">
        <ele>1469</ele>
        <time>2022-06-09T18:26:30Z</time>
      </trkpt>
      <trkpt lat="43.87219" lon="6.26874">
        <ele>1470</ele>
        <time>2022-06-09T18:26:37Z</time>
      </trkpt>
      <trkpt lat="43.8718" lon="6.2689">
        <ele>1474</ele>
        <time>2022-06-09T18:26:46Z</time>
      </trkpt>
      <trkpt lat="43.87151" lon="6.26897">
        <ele>1475</ele>
        <time>2022-06-09T18:26:53Z</time>
      </trkpt>
      <trkpt lat="43.87088" lon="6.26907">
        <ele>1473</ele>
        <time>2022-06-09T18:27:08Z</time>
      </trkpt>
      <trkpt lat="43.87069" lon="6.26907">
        <ele>1473</ele>
        <time>2022-06-09T18:27:12Z</time>
      </trkpt>
      <trkpt lat="43.87036" lon="6.26902">
        <ele>1472</ele>
        <time>2022-06-09T18:27:20Z</time>
      </trkpt>
      <trkpt lat="43.86975" lon="6.26898">
        <ele>1474</ele>
        <time>2022-06-09T18:27:34Z</time>
      </trkpt>
      <trkpt lat="43.86947" lon="6.26892">
        <ele>1473</ele>
        <time>2022-06-09T18:27:41Z</time>
      </trkpt>
      <trkpt lat="43.8689" lon="6.2686">
        <ele>1465</ele>
        <time>2022-06-09T18:27:55Z</time>
      </trkpt>
      <trkpt lat="43.86874" lon="6.26872">
        <ele>1465</ele>
        <time>2022-06-09T18:28:00Z</time>
      </trkpt>
      <trkpt lat="43.86852" lon="6.26908">
        <ele>1468</ele>
        <time>2022-06-09T18:28:08Z</time>
      </trkpt>
      <trkpt lat="43.86852" lon="6.26917">
        <ele>1469</ele>
        <time>2022-06-09T18:28:09Z</time>
      </trkpt>
      <trkpt lat="43.86848" lon="6.26908">
        <ele>1467</ele>
        <time>2022-06-09T18:28:11Z</time>
      </trkpt>
      <trkpt lat="43.86848" lon="6.26917">
        <ele>1468</ele>
        <time>2022-06-09T18:28:12Z</time>
      </trkpt>
      <trkpt lat="43.86837" lon="6.26934">
        <ele>1471</ele>
        <time>2022-06-09T18:28:16Z</time>
      </trkpt>
      <trkpt lat="43.8679" lon="6.26988">
        <ele>1479</ele>
        <time>2022-06-09T18:28:31Z</time>
      </trkpt>
      <trkpt lat="43.86778" lon="6.26994">
        <ele>1479</ele>
        <time>2022-06-09T18:28:34Z</time>
      </trkpt>
      <trkpt lat="43.86772" lon="6.26991">
        <ele>1477</ele>
        <time>2022-06-09T18:28:35Z</time>
      </trkpt>
      <trkpt lat="43.8677" lon="6.26994">
        <ele>1477</ele>
        <time>2022-06-09T18:28:36Z</time>
      </trkpt>
      <trkpt lat="43.86733" lon="6.26991">
        <ele>1472</ele>
        <time>2022-06-09T18:28:44Z</time>
      </trkpt>
      <trkpt lat="43.86709" lon="6.27003">
        <ele>1473</ele>
        <time>2022-06-09T18:28:50Z</time>
      </trkpt>
      <trkpt lat="43.8666" lon="6.27036">
        <ele>1478</ele>
        <time>2022-06-09T18:29:03Z</time>
      </trkpt>
      <trkpt lat="43.86588" lon="6.27078">
        <ele>1480</ele>
        <time>2022-06-09T18:29:21Z</time>
      </trkpt>
      <trkpt lat="43.86573" lon="6.27092">
        <ele>1483</ele>
        <time>2022-06-09T18:29:25Z</time>
      </trkpt>
      <trkpt lat="43.86565" lon="6.27094">
        <ele>1483</ele>
        <time>2022-06-09T18:29:27Z</time>
      </trkpt>
      <trkpt lat="43.86559" lon="6.27099">
        <ele>1483</ele>
        <time>2022-06-09T18:29:29Z</time>
      </trkpt>
      <trkpt lat="43.86498" lon="6.27114">
        <ele>1482</ele>
        <time>2022-06-09T18:29:43Z</time>
      </trkpt>
      <trkpt lat="43.86478" lon="6.27122">
        <ele>1482</ele>
        <time>2022-06-09T18:29:48Z</time>
      </trkpt>
      <trkpt lat="43.86384" lon="6.27147">
        <ele>1479</ele>
        <time>2022-06-09T18:30:11Z</time>
      </trkpt>
      <trkpt lat="43.86366" lon="6.27156">
        <ele>1479</ele>
        <time>2022-06-09T18:30:15Z</time>
      </trkpt>
      <trkpt lat="43.86334" lon="6.27185">
        <ele>1482</ele>
        <time>2022-06-09T18:30:24Z</time>
      </trkpt>
      <trkpt lat="43.86306" lon="6.27198">
        <ele>1481</ele>
        <time>2022-06-09T18:30:31Z</time>
      </trkpt>
      <trkpt lat="43.86261" lon="6.27244">
        <ele>1485</ele>
        <time>2022-06-09T18:30:44Z</time>
      </trkpt>
      <trkpt lat="43.86177" lon="6.27302">
        <ele>1486</ele>
        <time>2022-06-09T18:31:06Z</time>
      </trkpt>
      <trkpt lat="43.86129" lon="6.27345">
        <ele>1483</ele>
        <time>2022-06-09T18:31:19Z</time>
      </trkpt>
      <trkpt lat="43.86123" lon="6.27356">
        <ele>1484</ele>
        <time>2022-06-09T18:31:22Z</time>
      </trkpt>
      <trkpt lat="43.86118" lon="6.27357">
        <ele>1483</ele>
        <time>2022-06-09T18:31:23Z</time>
      </trkpt>
      <trkpt lat="43.8612" lon="6.27357">
        <ele>1484</ele>
        <time>2022-06-09T18:31:23Z</time>
      </trkpt>
      <trkpt lat="43.86119" lon="6.27363">
        <ele>1485</ele>
        <time>2022-06-09T18:31:24Z</time>
      </trkpt>
      <trkpt lat="43.86091" lon="6.27415">
        <ele>1489</ele>
        <time>2022-06-09T18:31:35Z</time>
      </trkpt>
      <trkpt lat="43.86072" lon="6.27444">
        <ele>1491</ele>
        <time>2022-06-09T18:31:42Z</time>
      </trkpt>
      <trkpt lat="43.86016" lon="6.27519">
        <ele>1493</ele>
        <time>2022-06-09T18:32:00Z</time>
      </trkpt>
      <trkpt lat="43.85958" lon="6.27589">
        <ele>1494</ele>
        <time>2022-06-09T18:32:18Z</time>
      </trkpt>
      <trkpt lat="43.85903" lon="6.27644">
        <ele>1496</ele>
        <time>2022-06-09T18:32:34Z</time>
      </trkpt>
      <trkpt lat="43.85826" lon="6.27704">
        <ele>1503</ele>
        <time>2022-06-09T18:32:54Z</time>
      </trkpt>
      <trkpt lat="43.85792" lon="6.27723">
        <ele>1506</ele>
        <time>2022-06-09T18:33:03Z</time>
      </trkpt>
      <trkpt lat="43.85774" lon="6.27731">
        <ele>1507</ele>
        <time>2022-06-09T18:33:07Z</time>
      </trkpt>
      <trkpt lat="43.85692" lon="6.27757">
        <ele>1508</ele>
        <time>2022-06-09T18:33:27Z</time>
      </trkpt>
      <trkpt lat="43.85654" lon="6.27776">
        <ele>1509</ele>
        <time>2022-06-09T18:33:36Z</time>
      </trkpt>
      <trkpt lat="43.85638" lon="6.27787">
        <ele>1508</ele>
        <time>2022-06-09T18:33:41Z</time>
      </trkpt>
      <trkpt lat="43.85624" lon="6.27828">
        <ele>1514</ele>
        <time>2022-06-09T18:33:48Z</time>
      </trkpt>
      <trkpt lat="43.85623" lon="6.27847">
        <ele>1516</ele>
        <time>2022-06-09T18:33:51Z</time>
      </trkpt>
      <trkpt lat="43.85626" lon="6.27872">
        <ele>1520</ele>
        <time>2022-06-09T18:33:56Z</time>
      </trkpt>
      <trkpt lat="43.85622" lon="6.27896">
        <ele>1523</ele>
        <time>2022-06-09T18:34:00Z</time>
      </trkpt>
      <trkpt lat="43.85615" lon="6.27913">
        <ele>1523</ele>
        <time>2022-06-09T18:34:03Z</time>
      </trkpt>
      <trkpt lat="43.85586" lon="6.27937">
        <ele>1522</ele>
        <time>2022-06-09T18:34:11Z</time>
      </trkpt>
      <trkpt lat="43.85573" lon="6.27945">
        <ele>1522</ele>
        <time>2022-06-09T18:34:14Z</time>
      </trkpt>
      <trkpt lat="43.85522" lon="6.27964">
        <ele>1521</ele>
        <time>2022-06-09T18:34:27Z</time>
      </trkpt>
      <trkpt lat="43.85507" lon="6.27974">
        <ele>1522</ele>
        <time>2022-06-09T18:34:31Z</time>
      </trkpt>
      <trkpt lat="43.85401" lon="6.28059">
        <ele>1529</ele>
        <time>2022-06-09T18:34:59Z</time>
      </trkpt>
      <trkpt lat="43.85369" lon="6.28093">
        <ele>1531</ele>
        <time>2022-06-09T18:35:09Z</time>
      </trkpt>
      <trkpt lat="43.85364" lon="6.28103">
        <ele>1531</ele>
        <time>2022-06-09T18:35:11Z</time>
      </trkpt>
      <trkpt lat="43.8533" lon="6.28142">
        <ele>1532</ele>
        <time>2022-06-09T18:35:21Z</time>
      </trkpt>
      <trkpt lat="43.85324" lon="6.28162">
        <ele>1535</ele>
        <time>2022-06-09T18:35:25Z</time>
      </trkpt>
      <trkpt lat="43.85324" lon="6.28207">
        <ele>1537</ele>
        <time>2022-06-09T18:35:32Z</time>
      </trkpt>
      <trkpt lat="43.85314" lon="6.2822">
        <ele>1537</ele>
        <time>2022-06-09T18:35:35Z</time>
      </trkpt>
      <trkpt lat="43.85275" lon="6.28226">
        <ele>1535</ele>
        <time>2022-06-09T18:35:45Z</time>
      </trkpt>
      <trkpt lat="43.85253" lon="6.28224">
        <ele>1534</ele>
        <time>2022-06-09T18:35:50Z</time>
      </trkpt>
      <trkpt lat="43.85232" lon="6.28227">
        <ele>1536</ele>
        <time>2022-06-09T18:35:55Z</time>
      </trkpt>
      <trkpt lat="43.85175" lon="6.28264">
        <ele>1539</ele>
        <time>2022-06-09T18:36:09Z</time>
      </trkpt>
      <trkpt lat="43.85158" lon="6.28286">
        <ele>1539</ele>
        <time>2022-06-09T18:36:15Z</time>
      </trkpt>
      <trkpt lat="43.85143" lon="6.28298">
        <ele>1539</ele>
        <time>2022-06-09T18:36:19Z</time>
      </trkpt>
      <trkpt lat="43.85117" lon="6.28307">
        <ele>1540</ele>
        <time>2022-06-09T18:36:25Z</time>
      </trkpt>
      <trkpt lat="43.85101" lon="6.28316">
        <ele>1539</ele>
        <time>2022-06-09T18:36:29Z</time>
      </trkpt>
      <trkpt lat="43.85051" lon="6.2836">
        <ele>1538</ele>
        <time>2022-06-09T18:36:43Z</time>
      </trkpt>
      <trkpt lat="43.85026" lon="6.28393">
        <ele>1536</ele>
        <time>2022-06-09T18:36:51Z</time>
      </trkpt>
      <trkpt lat="43.85013" lon="6.28416">
        <ele>1533</ele>
        <time>2022-06-09T18:36:56Z</time>
      </trkpt>
      <trkpt lat="43.84998" lon="6.28428">
        <ele>1533</ele>
        <time>2022-06-09T18:37:00Z</time>
      </trkpt>
      <trkpt lat="43.84982" lon="6.2845">
        <ele>1533</ele>
        <time>2022-06-09T18:37:05Z</time>
      </trkpt>
      <trkpt lat="43.84965" lon="6.28492">
        <ele>1530</ele>
        <time>2022-06-09T18:37:13Z</time>
      </trkpt>
      <trkpt lat="43.8495" lon="6.28516">
        <ele>1528</ele>
        <time>2022-06-09T18:37:19Z</time>
      </trkpt>
      <trkpt lat="43.84942" lon="6.28526">
        <ele>1527</ele>
        <time>2022-06-09T18:37:21Z</time>
      </trkpt>
      <trkpt lat="43.84919" lon="6.28545">
        <ele>1524</ele>
        <time>2022-06-09T18:37:27Z</time>
      </trkpt>
      <trkpt lat="43.84881" lon="6.28595">
        <ele>1518</ele>
        <time>2022-06-09T18:37:40Z</time>
      </trkpt>
      <trkpt lat="43.84829" lon="6.28638">
        <ele>1514</ele>
        <time>2022-06-09T18:37:54Z</time>
      </trkpt>
      <trkpt lat="43.84765" lon="6.28678">
        <ele>1508</ele>
        <time>2022-06-09T18:38:10Z</time>
      </trkpt>
      <trkpt lat="43.84725" lon="6.28681">
        <ele>1511</ele>
        <time>2022-06-09T18:38:20Z</time>
      </trkpt>
      <trkpt lat="43.84721" lon="6.28688">
        <ele>1510</ele>
        <time>2022-06-09T18:38:21Z</time>
      </trkpt>
      <trkpt lat="43.84723" lon="6.28696">
        <ele>1508</ele>
        <time>2022-06-09T18:38:23Z</time>
      </trkpt>
      <trkpt lat="43.84712" lon="6.28699">
        <ele>1508</ele>
        <time>2022-06-09T18:38:25Z</time>
      </trkpt>
      <trkpt lat="43.8471" lon="6.28718">
        <ele>1504</ele>
        <time>2022-06-09T18:38:28Z</time>
      </trkpt>
      <trkpt lat="43.84734" lon="6.28733">
        <ele>1499</ele>
        <time>2022-06-09T18:38:35Z</time>
      </trkpt>
      <trkpt lat="43.84748" lon="6.28751">
        <ele>1495</ele>
        <time>2022-06-09T18:38:39Z</time>
      </trkpt>
      <trkpt lat="43.84743" lon="6.28752">
        <ele>1495</ele>
        <time>2022-06-09T18:38:40Z</time>
      </trkpt>
      <trkpt lat="43.84737" lon="6.28758">
        <ele>1495</ele>
        <time>2022-06-09T18:38:42Z</time>
      </trkpt>
      <trkpt lat="43.84711" lon="6.28788">
        <ele>1493</ele>
        <time>2022-06-09T18:38:50Z</time>
      </trkpt>
      <trkpt lat="43.84707" lon="6.28796">
        <ele>1492</ele>
        <time>2022-06-09T18:38:51Z</time>
      </trkpt>
      <trkpt lat="43.84703" lon="6.28806">
        <ele>1491</ele>
        <time>2022-06-09T18:38:53Z</time>
      </trkpt>
      <trkpt lat="43.847" lon="6.28827">
        <ele>1488</ele>
        <time>2022-06-09T18:38:57Z</time>
      </trkpt>
      <trkpt lat="43.84702" lon="6.2885">
        <ele>1484</ele>
        <time>2022-06-09T18:39:01Z</time>
      </trkpt>
      <trkpt lat="43.84717" lon="6.28877">
        <ele>1478</ele>
        <time>2022-06-09T18:39:07Z</time>
      </trkpt>
      <trkpt lat="43.84724" lon="6.28931">
        <ele>1468</ele>
        <time>2022-06-09T18:39:16Z</time>
      </trkpt>
      <trkpt lat="43.84729" lon="6.28951">
        <ele>1464</ele>
        <time>2022-06-09T18:39:19Z</time>
      </trkpt>
      <trkpt lat="43.84748" lon="6.28993">
        <ele>1457</ele>
        <time>2022-06-09T18:39:28Z</time>
      </trkpt>
      <trkpt lat="43.84751" lon="6.28996">
        <ele>1457</ele>
        <time>2022-06-09T18:39:29Z</time>
      </trkpt>
      <trkpt lat="43.84753" lon="6.28993">
        <ele>1457</ele>
        <time>2022-06-09T18:39:29Z</time>
      </trkpt>
      <trkpt lat="43.84751" lon="6.28991">
        <ele>1457</ele>
        <time>2022-06-09T18:39:30Z</time>
      </trkpt>
      <trkpt lat="43.84751" lon="6.28998">
        <ele>1456</ele>
        <time>2022-06-09T18:39:31Z</time>
      </trkpt>
      <trkpt lat="43.84778" lon="6.29036">
        <ele>1445</ele>
        <time>2022-06-09T18:39:40Z</time>
      </trkpt>
      <trkpt lat="43.84796" lon="6.29045">
        <ele>1441</ele>
        <time>2022-06-09T18:39:45Z</time>
      </trkpt>
      <trkpt lat="43.84819" lon="6.29044">
        <ele>1439</ele>
        <time>2022-06-09T18:39:50Z</time>
      </trkpt>
      <trkpt lat="43.84859" lon="6.29009">
        <ele>1439</ele>
        <time>2022-06-09T18:40:01Z</time>
      </trkpt>
      <trkpt lat="43.84894" lon="6.28989">
        <ele>1437</ele>
        <time>2022-06-09T18:40:10Z</time>
      </trkpt>
      <trkpt lat="43.84912" lon="6.28984">
        <ele>1435</ele>
        <time>2022-06-09T18:40:14Z</time>
      </trkpt>
      <trkpt lat="43.8496" lon="6.28976">
        <ele>1432</ele>
        <time>2022-06-09T18:40:25Z</time>
      </trkpt>
      <trkpt lat="43.84983" lon="6.28978">
        <ele>1429</ele>
        <time>2022-06-09T18:40:31Z</time>
      </trkpt>
      <trkpt lat="43.84998" lon="6.28988">
        <ele>1424</ele>
        <time>2022-06-09T18:40:35Z</time>
      </trkpt>
      <trkpt lat="43.85059" lon="6.29">
        <ele>1414</ele>
        <time>2022-06-09T18:40:49Z</time>
      </trkpt>
      <trkpt lat="43.85099" lon="6.28993">
        <ele>1410</ele>
        <time>2022-06-09T18:40:58Z</time>
      </trkpt>
      <trkpt lat="43.85129" lon="6.28979">
        <ele>1408</ele>
        <time>2022-06-09T18:41:06Z</time>
      </trkpt>
      <trkpt lat="43.85167" lon="6.28968">
        <ele>1401</ele>
        <time>2022-06-09T18:41:15Z</time>
      </trkpt>
      <trkpt lat="43.85224" lon="6.28925">
        <ele>1399</ele>
        <time>2022-06-09T18:41:30Z</time>
      </trkpt>
      <trkpt lat="43.85291" lon="6.28895">
        <ele>1389</ele>
        <time>2022-06-09T18:41:46Z</time>
      </trkpt>
      <trkpt lat="43.85372" lon="6.28875">
        <ele>1376</ele>
        <time>2022-06-09T18:42:06Z</time>
      </trkpt>
      <trkpt lat="43.85385" lon="6.28873">
        <ele>1374</ele>
        <time>2022-06-09T18:42:09Z</time>
      </trkpt>
      <trkpt lat="43.85422" lon="6.28875">
        <ele>1365</ele>
        <time>2022-06-09T18:42:17Z</time>
      </trkpt>
      <trkpt lat="43.85447" lon="6.28871">
        <ele>1364</ele>
        <time>2022-06-09T18:42:23Z</time>
      </trkpt>
      <trkpt lat="43.8548" lon="6.28878">
        <ele>1358</ele>
        <time>2022-06-09T18:42:31Z</time>
      </trkpt>
      <trkpt lat="43.85508" lon="6.28891">
        <ele>1352</ele>
        <time>2022-06-09T18:42:38Z</time>
      </trkpt>
      <trkpt lat="43.85535" lon="6.28897">
        <ele>1351</ele>
        <time>2022-06-09T18:42:44Z</time>
      </trkpt>
      <trkpt lat="43.85626" lon="6.28951">
        <ele>1350</ele>
        <time>2022-06-09T18:43:07Z</time>
      </trkpt>
      <trkpt lat="43.85636" lon="6.28964">
        <ele>1350</ele>
        <time>2022-06-09T18:43:11Z</time>
      </trkpt>
      <trkpt lat="43.85649" lon="6.2901">
        <ele>1348</ele>
        <time>2022-06-09T18:43:19Z</time>
      </trkpt>
      <trkpt lat="43.85657" lon="6.29022">
        <ele>1347</ele>
        <time>2022-06-09T18:43:22Z</time>
      </trkpt>
      <trkpt lat="43.85659" lon="6.29043">
        <ele>1346</ele>
        <time>2022-06-09T18:43:25Z</time>
      </trkpt>
      <trkpt lat="43.85654" lon="6.29085">
        <ele>1345</ele>
        <time>2022-06-09T18:43:32Z</time>
      </trkpt>
      <trkpt lat="43.85641" lon="6.29095">
        <ele>1346</ele>
        <time>2022-06-09T18:43:36Z</time>
      </trkpt>
      <trkpt lat="43.85619" lon="6.29118">
        <ele>1349</ele>
        <time>2022-06-09T18:43:42Z</time>
      </trkpt>
      <trkpt lat="43.8561" lon="6.29133">
        <ele>1350</ele>
        <time>2022-06-09T18:43:46Z</time>
      </trkpt>
      <trkpt lat="43.85603" lon="6.29134">
        <ele>1351</ele>
        <time>2022-06-09T18:43:47Z</time>
      </trkpt>
      <trkpt lat="43.85594" lon="6.29142">
        <ele>1351</ele>
        <time>2022-06-09T18:43:50Z</time>
      </trkpt>
      <trkpt lat="43.85574" lon="6.29176">
        <ele>1352</ele>
        <time>2022-06-09T18:43:57Z</time>
      </trkpt>
      <trkpt lat="43.85551" lon="6.29203">
        <ele>1351</ele>
        <time>2022-06-09T18:44:04Z</time>
      </trkpt>
      <trkpt lat="43.85513" lon="6.29277">
        <ele>1347</ele>
        <time>2022-06-09T18:44:20Z</time>
      </trkpt>
      <trkpt lat="43.85513" lon="6.29334">
        <ele>1341</ele>
        <time>2022-06-09T18:44:29Z</time>
      </trkpt>
      <trkpt lat="43.855" lon="6.29363">
        <ele>1338</ele>
        <time>2022-06-09T18:44:35Z</time>
      </trkpt>
      <trkpt lat="43.85472" lon="6.29398">
        <ele>1333</ele>
        <time>2022-06-09T18:44:44Z</time>
      </trkpt>
      <trkpt lat="43.85464" lon="6.29413">
        <ele>1330</ele>
        <time>2022-06-09T18:44:47Z</time>
      </trkpt>
      <trkpt lat="43.85446" lon="6.29429">
        <ele>1327</ele>
        <time>2022-06-09T18:44:52Z</time>
      </trkpt>
      <trkpt lat="43.8543" lon="6.29432">
        <ele>1326</ele>
        <time>2022-06-09T18:44:56Z</time>
      </trkpt>
      <trkpt lat="43.85415" lon="6.29441">
        <ele>1324</ele>
        <time>2022-06-09T18:44:59Z</time>
      </trkpt>
      <trkpt lat="43.85409" lon="6.29451">
        <ele>1323</ele>
        <time>2022-06-09T18:45:02Z</time>
      </trkpt>
      <trkpt lat="43.85399" lon="6.29453">
        <ele>1323</ele>
        <time>2022-06-09T18:45:04Z</time>
      </trkpt>
      <trkpt lat="43.85388" lon="6.2946">
        <ele>1322</ele>
        <time>2022-06-09T18:45:07Z</time>
      </trkpt>
      <trkpt lat="43.85378" lon="6.29503">
        <ele>1315</ele>
        <time>2022-06-09T18:45:14Z</time>
      </trkpt>
      <trkpt lat="43.85367" lon="6.29525">
        <ele>1311</ele>
        <time>2022-06-09T18:45:19Z</time>
      </trkpt>
      <trkpt lat="43.85359" lon="6.29559">
        <ele>1306</ele>
        <time>2022-06-09T18:45:25Z</time>
      </trkpt>
      <trkpt lat="43.85341" lon="6.29596">
        <ele>1300</ele>
        <time>2022-06-09T18:45:32Z</time>
      </trkpt>
      <trkpt lat="43.85335" lon="6.29636">
        <ele>1295</ele>
        <time>2022-06-09T18:45:39Z</time>
      </trkpt>
      <trkpt lat="43.8534" lon="6.29655">
        <ele>1292</ele>
        <time>2022-06-09T18:45:43Z</time>
      </trkpt>
      <trkpt lat="43.85329" lon="6.29683">
        <ele>1290</ele>
        <time>2022-06-09T18:45:48Z</time>
      </trkpt>
      <trkpt lat="43.85329" lon="6.29694">
        <ele>1289</ele>
        <time>2022-06-09T18:45:50Z</time>
      </trkpt>
      <trkpt lat="43.85336" lon="6.29709">
        <ele>1288</ele>
        <time>2022-06-09T18:45:53Z</time>
      </trkpt>
      <trkpt lat="43.85336" lon="6.29726">
        <ele>1286</ele>
        <time>2022-06-09T18:45:56Z</time>
      </trkpt>
      <trkpt lat="43.85323" lon="6.29745">
        <ele>1285</ele>
        <time>2022-06-09T18:46:00Z</time>
      </trkpt>
      <trkpt lat="43.85288" lon="6.29769">
        <ele>1285</ele>
        <time>2022-06-09T18:46:09Z</time>
      </trkpt>
      <trkpt lat="43.85223" lon="6.29819">
        <ele>1284</ele>
        <time>2022-06-09T18:46:27Z</time>
      </trkpt>
      <trkpt lat="43.8521" lon="6.29844">
        <ele>1283</ele>
        <time>2022-06-09T18:46:32Z</time>
      </trkpt>
      <trkpt lat="43.85211" lon="6.29923">
        <ele>1287</ele>
        <time>2022-06-09T18:46:45Z</time>
      </trkpt>
      <trkpt lat="43.85204" lon="6.29957">
        <ele>1288</ele>
        <time>2022-06-09T18:46:51Z</time>
      </trkpt>
      <trkpt lat="43.85189" lon="6.29969">
        <ele>1287</ele>
        <time>2022-06-09T18:46:55Z</time>
      </trkpt>
      <trkpt lat="43.85142" lon="6.29989">
        <ele>1284</ele>
        <time>2022-06-09T18:47:07Z</time>
      </trkpt>
      <trkpt lat="43.85119" lon="6.30007">
        <ele>1285</ele>
        <time>2022-06-09T18:47:13Z</time>
      </trkpt>
      <trkpt lat="43.85096" lon="6.30012">
        <ele>1285</ele>
        <time>2022-06-09T18:47:18Z</time>
      </trkpt>
      <trkpt lat="43.85072" lon="6.30012">
        <ele>1284</ele>
        <time>2022-06-09T18:47:24Z</time>
      </trkpt>
      <trkpt lat="43.85052" lon="6.30021">
        <ele>1286</ele>
        <time>2022-06-09T18:47:29Z</time>
      </trkpt>
      <trkpt lat="43.85026" lon="6.30028">
        <ele>1288</ele>
        <time>2022-06-09T18:47:35Z</time>
      </trkpt>
      <trkpt lat="43.85002" lon="6.30038">
        <ele>1289</ele>
        <time>2022-06-09T18:47:41Z</time>
      </trkpt>
      <trkpt lat="43.84985" lon="6.30056">
        <ele>1290</ele>
        <time>2022-06-09T18:47:46Z</time>
      </trkpt>
      <trkpt lat="43.84961" lon="6.3013">
        <ele>1292</ele>
        <time>2022-06-09T18:47:59Z</time>
      </trkpt>
      <trkpt lat="43.84936" lon="6.30193">
        <ele>1291</ele>
        <time>2022-06-09T18:48:12Z</time>
      </trkpt>
      <trkpt lat="43.84901" lon="6.30271">
        <ele>1290</ele>
        <time>2022-06-09T18:48:27Z</time>
      </trkpt>
      <trkpt lat="43.84868" lon="6.3036">
        <ele>1292</ele>
        <time>2022-06-09T18:48:44Z</time>
      </trkpt>
      <trkpt lat="43.84816" lon="6.30429">
        <ele>1290</ele>
        <time>2022-06-09T18:49:01Z</time>
      </trkpt>
      <trkpt lat="43.84794" lon="6.30462">
        <ele>1290</ele>
        <time>2022-06-09T18:49:08Z</time>
      </trkpt>
      <trkpt lat="43.84789" lon="6.30472">
        <ele>1291</ele>
        <time>2022-06-09T18:49:10Z</time>
      </trkpt>
      <trkpt lat="43.84772" lon="6.30531">
        <ele>1288</ele>
        <time>2022-06-09T18:49:21Z</time>
      </trkpt>
      <trkpt lat="43.84763" lon="6.30551">
        <ele>1285</ele>
        <time>2022-06-09T18:49:25Z</time>
      </trkpt>
      <trkpt lat="43.8478" lon="6.30514">
        <ele>1291</ele>
        <time>2022-06-09T18:49:32Z</time>
      </trkpt>
      <trkpt lat="43.84783" lon="6.30513">
        <ele>1291</ele>
        <time>2022-06-09T18:49:33Z</time>
      </trkpt>
      <trkpt lat="43.84772" lon="6.30535">
        <ele>1288</ele>
        <time>2022-06-09T18:49:38Z</time>
      </trkpt>
      <trkpt lat="43.84756" lon="6.3056">
        <ele>1284</ele>
        <time>2022-06-09T18:49:43Z</time>
      </trkpt>
      <trkpt lat="43.84735" lon="6.30578">
        <ele>1282</ele>
        <time>2022-06-09T18:49:49Z</time>
      </trkpt>
      <trkpt lat="43.84715" lon="6.30602">
        <ele>1280</ele>
        <time>2022-06-09T18:49:55Z</time>
      </trkpt>
      <trkpt lat="43.84671" lon="6.30668">
        <ele>1277</ele>
        <time>2022-06-09T18:50:10Z</time>
      </trkpt>
      <trkpt lat="43.84653" lon="6.30685">
        <ele>1273</ele>
        <time>2022-06-09T18:50:15Z</time>
      </trkpt>
      <trkpt lat="43.84635" lon="6.30693">
        <ele>1270</ele>
        <time>2022-06-09T18:50:20Z</time>
      </trkpt>
      <trkpt lat="43.84632" lon="6.30698">
        <ele>1269</ele>
        <time>2022-06-09T18:50:21Z</time>
      </trkpt>
      <trkpt lat="43.84632" lon="6.30704">
        <ele>1269</ele>
        <time>2022-06-09T18:50:22Z</time>
      </trkpt>
      <trkpt lat="43.84637" lon="6.3071">
        <ele>1269</ele>
        <time>2022-06-09T18:50:24Z</time>
      </trkpt>
      <trkpt lat="43.84656" lon="6.30705">
        <ele>1270</ele>
        <time>2022-06-09T18:50:28Z</time>
      </trkpt>
      <trkpt lat="43.84688" lon="6.30686">
        <ele>1271</ele>
        <time>2022-06-09T18:50:36Z</time>
      </trkpt>
      <trkpt lat="43.84727" lon="6.30653">
        <ele>1270</ele>
        <time>2022-06-09T18:50:47Z</time>
      </trkpt>
      <trkpt lat="43.84762" lon="6.30634">
        <ele>1271</ele>
        <time>2022-06-09T18:50:56Z</time>
      </trkpt>
      <trkpt lat="43.84792" lon="6.3062">
        <ele>1275</ele>
        <time>2022-06-09T18:51:03Z</time>
      </trkpt>
      <trkpt lat="43.84806" lon="6.30627">
        <ele>1274</ele>
        <time>2022-06-09T18:51:06Z</time>
      </trkpt>
      <trkpt lat="43.84823" lon="6.30661">
        <ele>1265</ele>
        <time>2022-06-09T18:51:13Z</time>
      </trkpt>
      <trkpt lat="43.84823" lon="6.30671">
        <ele>1263</ele>
        <time>2022-06-09T18:51:15Z</time>
      </trkpt>
      <trkpt lat="43.84834" lon="6.30684">
        <ele>1259</ele>
        <time>2022-06-09T18:51:18Z</time>
      </trkpt>
      <trkpt lat="43.84851" lon="6.30687">
        <ele>1262</ele>
        <time>2022-06-09T18:51:22Z</time>
      </trkpt>
      <trkpt lat="43.84859" lon="6.30692">
        <ele>1262</ele>
        <time>2022-06-09T18:51:25Z</time>
      </trkpt>
      <trkpt lat="43.84886" lon="6.30732">
        <ele>1259</ele>
        <time>2022-06-09T18:51:34Z</time>
      </trkpt>
      <trkpt lat="43.84911" lon="6.30777">
        <ele>1256</ele>
        <time>2022-06-09T18:51:43Z</time>
      </trkpt>
      <trkpt lat="43.84946" lon="6.30883">
        <ele>1247</ele>
        <time>2022-06-09T18:52:03Z</time>
      </trkpt>
      <trkpt lat="43.84961" lon="6.30907">
        <ele>1246</ele>
        <time>2022-06-09T18:52:08Z</time>
      </trkpt>
      <trkpt lat="43.84982" lon="6.3093">
        <ele>1246</ele>
        <time>2022-06-09T18:52:15Z</time>
      </trkpt>
      <trkpt lat="43.84979" lon="6.30935">
        <ele>1245</ele>
        <time>2022-06-09T18:52:16Z</time>
      </trkpt>
      <trkpt lat="43.84957" lon="6.30922">
        <ele>1242</ele>
        <time>2022-06-09T18:52:21Z</time>
      </trkpt>
      <trkpt lat="43.84944" lon="6.30917">
        <ele>1240</ele>
        <time>2022-06-09T18:52:24Z</time>
      </trkpt>
      <trkpt lat="43.84933" lon="6.30917">
        <ele>1238</ele>
        <time>2022-06-09T18:52:27Z</time>
      </trkpt>
      <trkpt lat="43.84908" lon="6.30899">
        <ele>1235</ele>
        <time>2022-06-09T18:52:34Z</time>
      </trkpt>
      <trkpt lat="43.8489" lon="6.30872">
        <ele>1234</ele>
        <time>2022-06-09T18:52:40Z</time>
      </trkpt>
      <trkpt lat="43.84834" lon="6.30816">
        <ele>1229</ele>
        <time>2022-06-09T18:52:56Z</time>
      </trkpt>
      <trkpt lat="43.84829" lon="6.30816">
        <ele>1228</ele>
        <time>2022-06-09T18:52:57Z</time>
      </trkpt>
      <trkpt lat="43.84825" lon="6.30819">
        <ele>1228</ele>
        <time>2022-06-09T18:52:58Z</time>
      </trkpt>
      <trkpt lat="43.84826" lon="6.3083">
        <ele>1226</ele>
        <time>2022-06-09T18:53:00Z</time>
      </trkpt>
      <trkpt lat="43.84847" lon="6.30858">
        <ele>1226</ele>
        <time>2022-06-09T18:53:07Z</time>
      </trkpt>
      <trkpt lat="43.84879" lon="6.30958">
        <ele>1218</ele>
        <time>2022-06-09T18:53:25Z</time>
      </trkpt>
      <trkpt lat="43.84907" lon="6.30994">
        <ele>1216</ele>
        <time>2022-06-09T18:53:34Z</time>
      </trkpt>
      <trkpt lat="43.84925" lon="6.31022">
        <ele>1214</ele>
        <time>2022-06-09T18:53:40Z</time>
      </trkpt>
      <trkpt lat="43.84935" lon="6.31031">
        <ele>1215</ele>
        <time>2022-06-09T18:53:43Z</time>
      </trkpt>
      <trkpt lat="43.8496" lon="6.31039">
        <ele>1218</ele>
        <time>2022-06-09T18:53:49Z</time>
      </trkpt>
      <trkpt lat="43.85001" lon="6.31072">
        <ele>1220</ele>
        <time>2022-06-09T18:54:00Z</time>
      </trkpt>
      <trkpt lat="43.85011" lon="6.31081">
        <ele>1220</ele>
        <time>2022-06-09T18:54:03Z</time>
      </trkpt>
      <trkpt lat="43.85014" lon="6.31087">
        <ele>1221</ele>
        <time>2022-06-09T18:54:04Z</time>
      </trkpt>
      <trkpt lat="43.85013" lon="6.31098">
        <ele>1222</ele>
        <time>2022-06-09T18:54:06Z</time>
      </trkpt>
      <trkpt lat="43.85" lon="6.31111">
        <ele>1222</ele>
        <time>2022-06-09T18:54:10Z</time>
      </trkpt>
      <trkpt lat="43.84956" lon="6.31122">
        <ele>1213</ele>
        <time>2022-06-09T18:54:20Z</time>
      </trkpt>
      <trkpt lat="43.84937" lon="6.31131">
        <ele>1209</ele>
        <time>2022-06-09T18:54:25Z</time>
      </trkpt>
      <trkpt lat="43.84922" lon="6.31165">
        <ele>1208</ele>
        <time>2022-06-09T18:54:32Z</time>
      </trkpt>
      <trkpt lat="43.8491" lon="6.31264">
        <ele>1210</ele>
        <time>2022-06-09T18:54:49Z</time>
      </trkpt>
      <trkpt lat="43.84861" lon="6.3135">
        <ele>1206</ele>
        <time>2022-06-09T18:55:07Z</time>
      </trkpt>
      <trkpt lat="43.84832" lon="6.31463">
        <ele>1213</ele>
        <time>2022-06-09T18:55:27Z</time>
      </trkpt>
      <trkpt lat="43.84816" lon="6.31481">
        <ele>1213</ele>
        <time>2022-06-09T18:55:32Z</time>
      </trkpt>
      <trkpt lat="43.84776" lon="6.31505">
        <ele>1210</ele>
        <time>2022-06-09T18:55:42Z</time>
      </trkpt>
      <trkpt lat="43.84748" lon="6.31533">
        <ele>1207</ele>
        <time>2022-06-09T18:55:50Z</time>
      </trkpt>
      <trkpt lat="43.84728" lon="6.31559">
        <ele>1204</ele>
        <time>2022-06-09T18:55:57Z</time>
      </trkpt>
      <trkpt lat="43.84724" lon="6.31584">
        <ele>1204</ele>
        <time>2022-06-09T18:56:01Z</time>
      </trkpt>
      <trkpt lat="43.84732" lon="6.31608">
        <ele>1206</ele>
        <time>2022-06-09T18:56:06Z</time>
      </trkpt>
      <trkpt lat="43.84743" lon="6.31629">
        <ele>1209</ele>
        <time>2022-06-09T18:56:10Z</time>
      </trkpt>
      <trkpt lat="43.84763" lon="6.31691">
        <ele>1214</ele>
        <time>2022-06-09T18:56:21Z</time>
      </trkpt>
      <trkpt lat="43.84762" lon="6.31726">
        <ele>1216</ele>
        <time>2022-06-09T18:56:27Z</time>
      </trkpt>
      <trkpt lat="43.84758" lon="6.3173">
        <ele>1215</ele>
        <time>2022-06-09T18:56:28Z</time>
      </trkpt>
      <trkpt lat="43.84754" lon="6.31726">
        <ele>1214</ele>
        <time>2022-06-09T18:56:30Z</time>
      </trkpt>
      <trkpt lat="43.84754" lon="6.31729">
        <ele>1214</ele>
        <time>2022-06-09T18:56:30Z</time>
      </trkpt>
      <trkpt lat="43.84757" lon="6.31729">
        <ele>1215</ele>
        <time>2022-06-09T18:56:31Z</time>
      </trkpt>
      <trkpt lat="43.84748" lon="6.31734">
        <ele>1214</ele>
        <time>2022-06-09T18:56:33Z</time>
      </trkpt>
      <trkpt lat="43.84746" lon="6.31729">
        <ele>1214</ele>
        <time>2022-06-09T18:56:34Z</time>
      </trkpt>
      <trkpt lat="43.84726" lon="6.31716">
        <ele>1214</ele>
        <time>2022-06-09T18:56:39Z</time>
      </trkpt>
      <trkpt lat="43.8469" lon="6.31682">
        <ele>1209</ele>
        <time>2022-06-09T18:56:49Z</time>
      </trkpt>
      <trkpt lat="43.8467" lon="6.31674">
        <ele>1207</ele>
        <time>2022-06-09T18:56:54Z</time>
      </trkpt>
      <trkpt lat="43.84631" lon="6.31663">
        <ele>1206</ele>
        <time>2022-06-09T18:57:03Z</time>
      </trkpt>
      <trkpt lat="43.84614" lon="6.31662">
        <ele>1206</ele>
        <time>2022-06-09T18:57:07Z</time>
      </trkpt>
      <trkpt lat="43.84565" lon="6.31674">
        <ele>1208</ele>
        <time>2022-06-09T18:57:19Z</time>
      </trkpt>
      <trkpt lat="43.84542" lon="6.31694">
        <ele>1210</ele>
        <time>2022-06-09T18:57:25Z</time>
      </trkpt>
      <trkpt lat="43.84532" lon="6.31709">
        <ele>1211</ele>
        <time>2022-06-09T18:57:29Z</time>
      </trkpt>
      <trkpt lat="43.84522" lon="6.31733">
        <ele>1214</ele>
        <time>2022-06-09T18:57:33Z</time>
      </trkpt>
      <trkpt lat="43.84515" lon="6.31739">
        <ele>1215</ele>
        <time>2022-06-09T18:57:35Z</time>
      </trkpt>
      <trkpt lat="43.84508" lon="6.3174">
        <ele>1214</ele>
        <time>2022-06-09T18:57:37Z</time>
      </trkpt>
      <trkpt lat="43.84489" lon="6.3173">
        <ele>1211</ele>
        <time>2022-06-09T18:57:42Z</time>
      </trkpt>
      <trkpt lat="43.84469" lon="6.31726">
        <ele>1209</ele>
        <time>2022-06-09T18:57:47Z</time>
      </trkpt>
      <trkpt lat="43.84454" lon="6.31739">
        <ele>1209</ele>
        <time>2022-06-09T18:57:51Z</time>
      </trkpt>
      <trkpt lat="43.8444" lon="6.31783">
        <ele>1217</ele>
        <time>2022-06-09T18:57:59Z</time>
      </trkpt>
      <trkpt lat="43.8441" lon="6.31793">
        <ele>1217</ele>
        <time>2022-06-09T18:58:06Z</time>
      </trkpt>
      <trkpt lat="43.84399" lon="6.31794">
        <ele>1218</ele>
        <time>2022-06-09T18:58:09Z</time>
      </trkpt>
      <trkpt lat="43.84388" lon="6.3179">
        <ele>1217</ele>
        <time>2022-06-09T18:58:11Z</time>
      </trkpt>
      <trkpt lat="43.8438" lon="6.3179">
        <ele>1217</ele>
        <time>2022-06-09T18:58:13Z</time>
      </trkpt>
      <trkpt lat="43.84361" lon="6.31794">
        <ele>1218</ele>
        <time>2022-06-09T18:58:18Z</time>
      </trkpt>
      <trkpt lat="43.84347" lon="6.31803">
        <ele>1221</ele>
        <time>2022-06-09T18:58:21Z</time>
      </trkpt>
      <trkpt lat="43.84309" lon="6.31835">
        <ele>1231</ele>
        <time>2022-06-09T18:58:32Z</time>
      </trkpt>
      <trkpt lat="43.84294" lon="6.3184">
        <ele>1233</ele>
        <time>2022-06-09T18:58:35Z</time>
      </trkpt>
      <trkpt lat="43.84282" lon="6.31848">
        <ele>1235</ele>
        <time>2022-06-09T18:58:38Z</time>
      </trkpt>
      <trkpt lat="43.84265" lon="6.31851">
        <ele>1237</ele>
        <time>2022-06-09T18:58:42Z</time>
      </trkpt>
      <trkpt lat="43.84252" lon="6.31849">
        <ele>1237</ele>
        <time>2022-06-09T18:58:45Z</time>
      </trkpt>
      <trkpt lat="43.84217" lon="6.31843">
        <ele>1237</ele>
        <time>2022-06-09T18:58:54Z</time>
      </trkpt>
      <trkpt lat="43.84182" lon="6.31831">
        <ele>1236</ele>
        <time>2022-06-09T18:59:02Z</time>
      </trkpt>
      <trkpt lat="43.84141" lon="6.31839">
        <ele>1238</ele>
        <time>2022-06-09T18:59:12Z</time>
      </trkpt>
      <trkpt lat="43.84102" lon="6.31856">
        <ele>1240</ele>
        <time>2022-06-09T18:59:21Z</time>
      </trkpt>
      <trkpt lat="43.84078" lon="6.3187">
        <ele>1241</ele>
        <time>2022-06-09T18:59:27Z</time>
      </trkpt>
      <trkpt lat="43.84056" lon="6.3189">
        <ele>1240</ele>
        <time>2022-06-09T18:59:33Z</time>
      </trkpt>
      <trkpt lat="43.84035" lon="6.31918">
        <ele>1241</ele>
        <time>2022-06-09T18:59:40Z</time>
      </trkpt>
      <trkpt lat="43.84029" lon="6.31942">
        <ele>1241</ele>
        <time>2022-06-09T18:59:44Z</time>
      </trkpt>
      <trkpt lat="43.84028" lon="6.31972">
        <ele>1244</ele>
        <time>2022-06-09T18:59:50Z</time>
      </trkpt>
      <trkpt lat="43.84047" lon="6.32095">
        <ele>1255</ele>
        <time>2022-06-09T19:00:11Z</time>
      </trkpt>
      <trkpt lat="43.84054" lon="6.32216">
        <ele>1255</ele>
        <time>2022-06-09T19:00:31Z</time>
      </trkpt>
      <trkpt lat="43.84047" lon="6.32235">
        <ele>1254</ele>
        <time>2022-06-09T19:00:35Z</time>
      </trkpt>
      <trkpt lat="43.84026" lon="6.32276">
        <ele>1250</ele>
        <time>2022-06-09T19:00:43Z</time>
      </trkpt>
      <trkpt lat="43.84019" lon="6.32333">
        <ele>1251</ele>
        <time>2022-06-09T19:00:53Z</time>
      </trkpt>
      <trkpt lat="43.83988" lon="6.3242">
        <ele>1247</ele>
        <time>2022-06-09T19:01:09Z</time>
      </trkpt>
      <trkpt lat="43.83988" lon="6.32452">
        <ele>1247</ele>
        <time>2022-06-09T19:01:15Z</time>
      </trkpt>
      <trkpt lat="43.84008" lon="6.32528">
        <ele>1252</ele>
        <time>2022-06-09T19:01:28Z</time>
      </trkpt>
      <trkpt lat="43.84008" lon="6.32555">
        <ele>1253</ele>
        <time>2022-06-09T19:01:33Z</time>
      </trkpt>
      <trkpt lat="43.84003" lon="6.32566">
        <ele>1251</ele>
        <time>2022-06-09T19:01:35Z</time>
      </trkpt>
      <trkpt lat="43.83995" lon="6.32573">
        <ele>1250</ele>
        <time>2022-06-09T19:01:37Z</time>
      </trkpt>
      <trkpt lat="43.83986" lon="6.32575">
        <ele>1248</ele>
        <time>2022-06-09T19:01:39Z</time>
      </trkpt>
      <trkpt lat="43.83923" lon="6.3257">
        <ele>1236</ele>
        <time>2022-06-09T19:01:54Z</time>
      </trkpt>
      <trkpt lat="43.83911" lon="6.32576">
        <ele>1236</ele>
        <time>2022-06-09T19:01:57Z</time>
      </trkpt>
      <trkpt lat="43.83884" lon="6.32602">
        <ele>1239</ele>
        <time>2022-06-09T19:02:05Z</time>
      </trkpt>
      <trkpt lat="43.83872" lon="6.32609">
        <ele>1239</ele>
        <time>2022-06-09T19:02:08Z</time>
      </trkpt>
      <trkpt lat="43.838" lon="6.32628">
        <ele>1231</ele>
        <time>2022-06-09T19:02:25Z</time>
      </trkpt>
      <trkpt lat="43.83795" lon="6.32632">
        <ele>1230</ele>
        <time>2022-06-09T19:02:26Z</time>
      </trkpt>
      <trkpt lat="43.83782" lon="6.32655">
        <ele>1229</ele>
        <time>2022-06-09T19:02:31Z</time>
      </trkpt>
      <trkpt lat="43.83759" lon="6.32742">
        <ele>1232</ele>
        <time>2022-06-09T19:02:47Z</time>
      </trkpt>
      <trkpt lat="43.83731" lon="6.32788">
        <ele>1235</ele>
        <time>2022-06-09T19:02:57Z</time>
      </trkpt>
      <trkpt lat="43.83715" lon="6.32795">
        <ele>1236</ele>
        <time>2022-06-09T19:03:01Z</time>
      </trkpt>
      <trkpt lat="43.83707" lon="6.32794">
        <ele>1236</ele>
        <time>2022-06-09T19:03:03Z</time>
      </trkpt>
      <trkpt lat="43.83694" lon="6.32787">
        <ele>1234</ele>
        <time>2022-06-09T19:03:06Z</time>
      </trkpt>
      <trkpt lat="43.83681" lon="6.32771">
        <ele>1230</ele>
        <time>2022-06-09T19:03:10Z</time>
      </trkpt>
      <trkpt lat="43.83668" lon="6.32761">
        <ele>1226</ele>
        <time>2022-06-09T19:03:14Z</time>
      </trkpt>
      <trkpt lat="43.83644" lon="6.32754">
        <ele>1223</ele>
        <time>2022-06-09T19:03:19Z</time>
      </trkpt>
      <trkpt lat="43.83624" lon="6.32759">
        <ele>1223</ele>
        <time>2022-06-09T19:03:24Z</time>
      </trkpt>
      <trkpt lat="43.83569" lon="6.32806">
        <ele>1231</ele>
        <time>2022-06-09T19:03:39Z</time>
      </trkpt>
      <trkpt lat="43.83534" lon="6.32857">
        <ele>1240</ele>
        <time>2022-06-09T19:03:51Z</time>
      </trkpt>
      <trkpt lat="43.83518" lon="6.32856">
        <ele>1239</ele>
        <time>2022-06-09T19:03:55Z</time>
      </trkpt>
      <trkpt lat="43.83501" lon="6.32843">
        <ele>1235</ele>
        <time>2022-06-09T19:03:59Z</time>
      </trkpt>
      <trkpt lat="43.83493" lon="6.32827">
        <ele>1233</ele>
        <time>2022-06-09T19:04:03Z</time>
      </trkpt>
      <trkpt lat="43.83489" lon="6.3281">
        <ele>1230</ele>
        <time>2022-06-09T19:04:06Z</time>
      </trkpt>
      <trkpt lat="43.83477" lon="6.32792">
        <ele>1228</ele>
        <time>2022-06-09T19:04:10Z</time>
      </trkpt>
      <trkpt lat="43.83465" lon="6.32777">
        <ele>1227</ele>
        <time>2022-06-09T19:04:13Z</time>
      </trkpt>
      <trkpt lat="43.8345" lon="6.32769">
        <ele>1228</ele>
        <time>2022-06-09T19:04:17Z</time>
      </trkpt>
      <trkpt lat="43.83431" lon="6.32762">
        <ele>1229</ele>
        <time>2022-06-09T19:04:22Z</time>
      </trkpt>
      <trkpt lat="43.83378" lon="6.32753">
        <ele>1234</ele>
        <time>2022-06-09T19:04:34Z</time>
      </trkpt>
      <trkpt lat="43.83317" lon="6.32747">
        <ele>1237</ele>
        <time>2022-06-09T19:04:49Z</time>
      </trkpt>
      <trkpt lat="43.83291" lon="6.32749">
        <ele>1238</ele>
        <time>2022-06-09T19:04:55Z</time>
      </trkpt>
      <trkpt lat="43.83278" lon="6.32771">
        <ele>1241</ele>
        <time>2022-06-09T19:04:59Z</time>
      </trkpt>
      <trkpt lat="43.83262" lon="6.32772">
        <ele>1241</ele>
        <time>2022-06-09T19:05:03Z</time>
      </trkpt>
      <trkpt lat="43.83236" lon="6.32793">
        <ele>1243</ele>
        <time>2022-06-09T19:05:10Z</time>
      </trkpt>
      <trkpt lat="43.83224" lon="6.32811">
        <ele>1244</ele>
        <time>2022-06-09T19:05:14Z</time>
      </trkpt>
      <trkpt lat="43.83217" lon="6.32837">
        <ele>1245</ele>
        <time>2022-06-09T19:05:19Z</time>
      </trkpt>
      <trkpt lat="43.832" lon="6.32876">
        <ele>1247</ele>
        <time>2022-06-09T19:05:27Z</time>
      </trkpt>
      <trkpt lat="43.83192" lon="6.32902">
        <ele>1248</ele>
        <time>2022-06-09T19:05:31Z</time>
      </trkpt>
      <trkpt lat="43.83186" lon="6.32911">
        <ele>1248</ele>
        <time>2022-06-09T19:05:33Z</time>
      </trkpt>
      <trkpt lat="43.83172" lon="6.32912">
        <ele>1245</ele>
        <time>2022-06-09T19:05:37Z</time>
      </trkpt>
      <trkpt lat="43.83146" lon="6.32897">
        <ele>1244</ele>
        <time>2022-06-09T19:05:43Z</time>
      </trkpt>
      <trkpt lat="43.83135" lon="6.32885">
        <ele>1242</ele>
        <time>2022-06-09T19:05:47Z</time>
      </trkpt>
      <trkpt lat="43.83111" lon="6.32872">
        <ele>1240</ele>
        <time>2022-06-09T19:05:53Z</time>
      </trkpt>
      <trkpt lat="43.83084" lon="6.32866">
        <ele>1237</ele>
        <time>2022-06-09T19:05:59Z</time>
      </trkpt>
      <trkpt lat="43.8305" lon="6.32868">
        <ele>1236</ele>
        <time>2022-06-09T19:06:07Z</time>
      </trkpt>
      <trkpt lat="43.83037" lon="6.32883">
        <ele>1239</ele>
        <time>2022-06-09T19:06:11Z</time>
      </trkpt>
      <trkpt lat="43.83017" lon="6.329">
        <ele>1240</ele>
        <time>2022-06-09T19:06:16Z</time>
      </trkpt>
      <trkpt lat="43.82974" lon="6.32924">
        <ele>1237</ele>
        <time>2022-06-09T19:06:27Z</time>
      </trkpt>
      <trkpt lat="43.82954" lon="6.32947">
        <ele>1236</ele>
        <time>2022-06-09T19:06:33Z</time>
      </trkpt>
      <trkpt lat="43.82918" lon="6.3302">
        <ele>1231</ele>
        <time>2022-06-09T19:06:48Z</time>
      </trkpt>
      <trkpt lat="43.82911" lon="6.33058">
        <ele>1230</ele>
        <time>2022-06-09T19:06:55Z</time>
      </trkpt>
      <trkpt lat="43.82911" lon="6.33087">
        <ele>1232</ele>
        <time>2022-06-09T19:07:00Z</time>
      </trkpt>
      <trkpt lat="43.82908" lon="6.33098">
        <ele>1231</ele>
        <time>2022-06-09T19:07:02Z</time>
      </trkpt>
      <trkpt lat="43.82902" lon="6.33105">
        <ele>1230</ele>
        <time>2022-06-09T19:07:03Z</time>
      </trkpt>
      <trkpt lat="43.82882" lon="6.33118">
        <ele>1225</ele>
        <time>2022-06-09T19:07:09Z</time>
      </trkpt>
      <trkpt lat="43.8287" lon="6.33134">
        <ele>1223</ele>
        <time>2022-06-09T19:07:13Z</time>
      </trkpt>
      <trkpt lat="43.82845" lon="6.3316">
        <ele>1219</ele>
        <time>2022-06-09T19:07:20Z</time>
      </trkpt>
      <trkpt lat="43.828" lon="6.33231">
        <ele>1217</ele>
        <time>2022-06-09T19:07:36Z</time>
      </trkpt>
      <trkpt lat="43.8279" lon="6.33252">
        <ele>1216</ele>
        <time>2022-06-09T19:07:40Z</time>
      </trkpt>
      <trkpt lat="43.82769" lon="6.33326">
        <ele>1218</ele>
        <time>2022-06-09T19:07:53Z</time>
      </trkpt>
      <trkpt lat="43.82757" lon="6.33356">
        <ele>1219</ele>
        <time>2022-06-09T19:07:59Z</time>
      </trkpt>
      <trkpt lat="43.82714" lon="6.33419">
        <ele>1217</ele>
        <time>2022-06-09T19:08:14Z</time>
      </trkpt>
      <trkpt lat="43.82693" lon="6.33466">
        <ele>1218</ele>
        <time>2022-06-09T19:08:23Z</time>
      </trkpt>
      <trkpt lat="43.82656" lon="6.33524">
        <ele>1213</ele>
        <time>2022-06-09T19:08:36Z</time>
      </trkpt>
      <trkpt lat="43.82644" lon="6.33552">
        <ele>1211</ele>
        <time>2022-06-09T19:08:42Z</time>
      </trkpt>
      <trkpt lat="43.82638" lon="6.3359">
        <ele>1210</ele>
        <time>2022-06-09T19:08:48Z</time>
      </trkpt>
      <trkpt lat="43.82639" lon="6.33622">
        <ele>1210</ele>
        <time>2022-06-09T19:08:54Z</time>
      </trkpt>
      <trkpt lat="43.82634" lon="6.33648">
        <ele>1208</ele>
        <time>2022-06-09T19:08:58Z</time>
      </trkpt>
      <trkpt lat="43.82616" lon="6.33697">
        <ele>1207</ele>
        <time>2022-06-09T19:09:07Z</time>
      </trkpt>
      <trkpt lat="43.82589" lon="6.33741">
        <ele>1206</ele>
        <time>2022-06-09T19:09:17Z</time>
      </trkpt>
      <trkpt lat="43.82558" lon="6.33778">
        <ele>1207</ele>
        <time>2022-06-09T19:09:27Z</time>
      </trkpt>
      <trkpt lat="43.82534" lon="6.33825">
        <ele>1212</ele>
        <time>2022-06-09T19:09:36Z</time>
      </trkpt>
      <trkpt lat="43.82511" lon="6.33855">
        <ele>1211</ele>
        <time>2022-06-09T19:09:44Z</time>
      </trkpt>
      <trkpt lat="43.82498" lon="6.33881">
        <ele>1211</ele>
        <time>2022-06-09T19:09:49Z</time>
      </trkpt>
      <trkpt lat="43.82473" lon="6.33948">
        <ele>1210</ele>
        <time>2022-06-09T19:10:02Z</time>
      </trkpt>
      <trkpt lat="43.82471" lon="6.33962">
        <ele>1210</ele>
        <time>2022-06-09T19:10:04Z</time>
      </trkpt>
      <trkpt lat="43.82459" lon="6.33988">
        <ele>1208</ele>
        <time>2022-06-09T19:10:09Z</time>
      </trkpt>
      <trkpt lat="43.82454" lon="6.34011">
        <ele>1208</ele>
        <time>2022-06-09T19:10:13Z</time>
      </trkpt>
      <trkpt lat="43.8245" lon="6.34073">
        <ele>1208</ele>
        <time>2022-06-09T19:10:24Z</time>
      </trkpt>
      <trkpt lat="43.82438" lon="6.34117">
        <ele>1208</ele>
        <time>2022-06-09T19:10:32Z</time>
      </trkpt>
      <trkpt lat="43.82429" lon="6.3413">
        <ele>1207</ele>
        <time>2022-06-09T19:10:35Z</time>
      </trkpt>
      <trkpt lat="43.82383" lon="6.34174">
        <ele>1200</ele>
        <time>2022-06-09T19:10:48Z</time>
      </trkpt>
      <trkpt lat="43.82372" lon="6.34194">
        <ele>1197</ele>
        <time>2022-06-09T19:10:52Z</time>
      </trkpt>
      <trkpt lat="43.82364" lon="6.34265">
        <ele>1193</ele>
        <time>2022-06-09T19:11:04Z</time>
      </trkpt>
      <trkpt lat="43.82367" lon="6.34297">
        <ele>1191</ele>
        <time>2022-06-09T19:11:10Z</time>
      </trkpt>
      <trkpt lat="43.8238" lon="6.34359">
        <ele>1186</ele>
        <time>2022-06-09T19:11:21Z</time>
      </trkpt>
      <trkpt lat="43.82375" lon="6.344">
        <ele>1180</ele>
        <time>2022-06-09T19:11:28Z</time>
      </trkpt>
      <trkpt lat="43.82384" lon="6.34448">
        <ele>1176</ele>
        <time>2022-06-09T19:11:36Z</time>
      </trkpt>
      <trkpt lat="43.8239" lon="6.34457">
        <ele>1176</ele>
        <time>2022-06-09T19:11:38Z</time>
      </trkpt>
      <trkpt lat="43.82388" lon="6.34496">
        <ele>1172</ele>
        <time>2022-06-09T19:11:45Z</time>
      </trkpt>
      <trkpt lat="43.82379" lon="6.34545">
        <ele>1170</ele>
        <time>2022-06-09T19:11:53Z</time>
      </trkpt>
      <trkpt lat="43.82349" lon="6.34638">
        <ele>1163</ele>
        <time>2022-06-09T19:12:10Z</time>
      </trkpt>
      <trkpt lat="43.82347" lon="6.3465">
        <ele>1162</ele>
        <time>2022-06-09T19:12:12Z</time>
      </trkpt>
      <trkpt lat="43.82336" lon="6.3466">
        <ele>1160</ele>
        <time>2022-06-09T19:12:15Z</time>
      </trkpt>
      <trkpt lat="43.82319" lon="6.34743">
        <ele>1152</ele>
        <time>2022-06-09T19:12:30Z</time>
      </trkpt>
      <trkpt lat="43.8232" lon="6.34779">
        <ele>1151</ele>
        <time>2022-06-09T19:12:36Z</time>
      </trkpt>
      <trkpt lat="43.82317" lon="6.34806">
        <ele>1150</ele>
        <time>2022-06-09T19:12:41Z</time>
      </trkpt>
      <trkpt lat="43.82298" lon="6.34839">
        <ele>1147</ele>
        <time>2022-06-09T19:12:48Z</time>
      </trkpt>
      <trkpt lat="43.82269" lon="6.34876">
        <ele>1145</ele>
        <time>2022-06-09T19:12:57Z</time>
      </trkpt>
      <trkpt lat="43.8225" lon="6.34957">
        <ele>1145</ele>
        <time>2022-06-09T19:13:11Z</time>
      </trkpt>
      <trkpt lat="43.82257" lon="6.34983">
        <ele>1146</ele>
        <time>2022-06-09T19:13:16Z</time>
      </trkpt>
      <trkpt lat="43.82291" lon="6.35001">
        <ele>1150</ele>
        <time>2022-06-09T19:13:24Z</time>
      </trkpt>
      <trkpt lat="43.82321" lon="6.35075">
        <ele>1156</ele>
        <time>2022-06-09T19:13:39Z</time>
      </trkpt>
      <trkpt lat="43.82319" lon="6.35104">
        <ele>1158</ele>
        <time>2022-06-09T19:13:44Z</time>
      </trkpt>
      <trkpt lat="43.82303" lon="6.35145">
        <ele>1158</ele>
        <time>2022-06-09T19:13:52Z</time>
      </trkpt>
      <trkpt lat="43.82301" lon="6.35161">
        <ele>1159</ele>
        <time>2022-06-09T19:13:54Z</time>
      </trkpt>
      <trkpt lat="43.82282" lon="6.35184">
        <ele>1154</ele>
        <time>2022-06-09T19:14:00Z</time>
      </trkpt>
      <trkpt lat="43.82263" lon="6.35221">
        <ele>1150</ele>
        <time>2022-06-09T19:14:08Z</time>
      </trkpt>
      <trkpt lat="43.82254" lon="6.35275">
        <ele>1151</ele>
        <time>2022-06-09T19:14:17Z</time>
      </trkpt>
      <trkpt lat="43.82246" lon="6.35304">
        <ele>1151</ele>
        <time>2022-06-09T19:14:22Z</time>
      </trkpt>
      <trkpt lat="43.82249" lon="6.35352">
        <ele>1156</ele>
        <time>2022-06-09T19:14:31Z</time>
      </trkpt>
      <trkpt lat="43.82241" lon="6.35359">
        <ele>1157</ele>
        <time>2022-06-09T19:14:33Z</time>
      </trkpt>
      <trkpt lat="43.82226" lon="6.35351">
        <ele>1156</ele>
        <time>2022-06-09T19:14:36Z</time>
      </trkpt>
      <trkpt lat="43.82233" lon="6.35357">
        <ele>1157</ele>
        <time>2022-06-09T19:14:38Z</time>
      </trkpt>
      <trkpt lat="43.82246" lon="6.35361">
        <ele>1158</ele>
        <time>2022-06-09T19:14:42Z</time>
      </trkpt>
      <trkpt lat="43.82236" lon="6.35356">
        <ele>1157</ele>
        <time>2022-06-09T19:14:44Z</time>
      </trkpt>
      <trkpt lat="43.82228" lon="6.35354">
        <ele>1156</ele>
        <time>2022-06-09T19:14:46Z</time>
      </trkpt>
      <trkpt lat="43.82228" lon="6.35356">
        <ele>1156</ele>
        <time>2022-06-09T19:14:46Z</time>
      </trkpt>
      <trkpt lat="43.82231" lon="6.35357">
        <ele>1157</ele>
        <time>2022-06-09T19:14:47Z</time>
      </trkpt>
      <trkpt lat="43.82227" lon="6.35352">
        <ele>1156</ele>
        <time>2022-06-09T19:14:48Z</time>
      </trkpt>
      <trkpt lat="43.82235" lon="6.35349">
        <ele>1156</ele>
        <time>2022-06-09T19:14:50Z</time>
      </trkpt>
      <trkpt lat="43.82232" lon="6.3535">
        <ele>1156</ele>
        <time>2022-06-09T19:14:51Z</time>
      </trkpt>
      <trkpt lat="43.82231" lon="6.35354">
        <ele>1156</ele>
        <time>2022-06-09T19:14:52Z</time>
      </trkpt>
      <trkpt lat="43.82227" lon="6.35355">
        <ele>1156</ele>
        <time>2022-06-09T19:14:53Z</time>
      </trkpt>
      <trkpt lat="43.8223" lon="6.35352">
        <ele>1156</ele>
        <time>2022-06-09T19:14:53Z</time>
      </trkpt>
      <trkpt lat="43.82234" lon="6.35357">
        <ele>1157</ele>
        <time>2022-06-09T19:14:55Z</time>
      </trkpt>
      <trkpt lat="43.82233" lon="6.3536">
        <ele>1157</ele>
        <time>2022-06-09T19:14:55Z</time>
      </trkpt>
      <trkpt lat="43.82229" lon="6.35359">
        <ele>1157</ele>
        <time>2022-06-09T19:14:56Z</time>
      </trkpt>
      <trkpt lat="43.82229" lon="6.35355">
        <ele>1156</ele>
        <time>2022-06-09T19:14:57Z</time>
      </trkpt>
      <trkpt lat="43.82225" lon="6.35355">
        <ele>1156</ele>
        <time>2022-06-09T19:14:58Z</time>
      </trkpt>
      <trkpt lat="43.82224" lon="6.35351">
        <ele>1155</ele>
        <time>2022-06-09T19:14:58Z</time>
      </trkpt>
      <trkpt lat="43.82234" lon="6.35357">
        <ele>1157</ele>
        <time>2022-06-09T19:15:01Z</time>
      </trkpt>
      <trkpt lat="43.82232" lon="6.35357">
        <ele>1157</ele>
        <time>2022-06-09T19:15:01Z</time>
      </trkpt>
      <trkpt lat="43.82234" lon="6.35357">
        <ele>1157</ele>
        <time>2022-06-09T19:15:02Z</time>
      </trkpt>
      <trkpt lat="43.82232" lon="6.3536">
        <ele>1157</ele>
        <time>2022-06-09T19:15:03Z</time>
      </trkpt>
      <trkpt lat="43.82225" lon="6.35357">
        <ele>1157</ele>
        <time>2022-06-09T19:15:04Z</time>
      </trkpt>
      <trkpt lat="43.82223" lon="6.35355">
        <ele>1156</ele>
        <time>2022-06-09T19:15:05Z</time>
      </trkpt>
      <trkpt lat="43.82232" lon="6.35357">
        <ele>1157</ele>
        <time>2022-06-09T19:15:07Z</time>
      </trkpt>
      <trkpt lat="43.82215" lon="6.35341">
        <ele>1153</ele>
        <time>2022-06-09T19:15:12Z</time>
      </trkpt>
      <trkpt lat="43.82198" lon="6.35318">
        <ele>1148</ele>
        <time>2022-06-09T19:15:17Z</time>
      </trkpt>
      <trkpt lat="43.82183" lon="6.35319">
        <ele>1147</ele>
        <time>2022-06-09T19:15:21Z</time>
      </trkpt>
      <trkpt lat="43.82174" lon="6.35323">
        <ele>1147</ele>
        <time>2022-06-09T19:15:23Z</time>
      </trkpt>
      <trkpt lat="43.8217" lon="6.35333">
        <ele>1149</ele>
        <time>2022-06-09T19:15:25Z</time>
      </trkpt>
      <trkpt lat="43.82187" lon="6.35361">
        <ele>1157</ele>
        <time>2022-06-09T19:15:31Z</time>
      </trkpt>
      <trkpt lat="43.82193" lon="6.35377">
        <ele>1160</ele>
        <time>2022-06-09T19:15:34Z</time>
      </trkpt>
      <trkpt lat="43.82169" lon="6.35407">
        <ele>1168</ele>
        <time>2022-06-09T19:15:42Z</time>
      </trkpt>
      <trkpt lat="43.82163" lon="6.35419">
        <ele>1171</ele>
        <time>2022-06-09T19:15:44Z</time>
      </trkpt>
      <trkpt lat="43.82152" lon="6.35431">
        <ele>1175</ele>
        <time>2022-06-09T19:15:48Z</time>
      </trkpt>
      <trkpt lat="43.82115" lon="6.3543">
        <ele>1172</ele>
        <time>2022-06-09T19:15:56Z</time>
      </trkpt>
      <trkpt lat="43.8204" lon="6.35441">
        <ele>1176</ele>
        <time>2022-06-09T19:16:14Z</time>
      </trkpt>
      <trkpt lat="43.82027" lon="6.35448">
        <ele>1180</ele>
        <time>2022-06-09T19:16:17Z</time>
      </trkpt>
      <trkpt lat="43.81996" lon="6.35459">
        <ele>1185</ele>
        <time>2022-06-09T19:16:25Z</time>
      </trkpt>
      <trkpt lat="43.81956" lon="6.35482">
        <ele>1193</ele>
        <time>2022-06-09T19:16:35Z</time>
      </trkpt>
      <trkpt lat="43.81884" lon="6.35514">
        <ele>1205</ele>
        <time>2022-06-09T19:16:52Z</time>
      </trkpt>
      <trkpt lat="43.81842" lon="6.35537">
        <ele>1216</ele>
        <time>2022-06-09T19:17:03Z</time>
      </trkpt>
      <trkpt lat="43.81829" lon="6.35541">
        <ele>1218</ele>
        <time>2022-06-09T19:17:06Z</time>
      </trkpt>
      <trkpt lat="43.81821" lon="6.35547">
        <ele>1220</ele>
        <time>2022-06-09T19:17:08Z</time>
      </trkpt>
      <trkpt lat="43.8177" lon="6.35568">
        <ele>1228</ele>
        <time>2022-06-09T19:17:20Z</time>
      </trkpt>
      <trkpt lat="43.81744" lon="6.35586">
        <ele>1233</ele>
        <time>2022-06-09T19:17:27Z</time>
      </trkpt>
      <trkpt lat="43.8172" lon="6.35607">
        <ele>1233</ele>
        <time>2022-06-09T19:17:34Z</time>
      </trkpt>
      <trkpt lat="43.81694" lon="6.3564">
        <ele>1238</ele>
        <time>2022-06-09T19:17:42Z</time>
      </trkpt>
      <trkpt lat="43.81654" lon="6.35699">
        <ele>1250</ele>
        <time>2022-06-09T19:17:56Z</time>
      </trkpt>
      <trkpt lat="43.81634" lon="6.35721">
        <ele>1254</ele>
        <time>2022-06-09T19:18:02Z</time>
      </trkpt>
      <trkpt lat="43.81607" lon="6.35741">
        <ele>1257</ele>
        <time>2022-06-09T19:18:09Z</time>
      </trkpt>
      <trkpt lat="43.81592" lon="6.35739">
        <ele>1254</ele>
        <time>2022-06-09T19:18:12Z</time>
      </trkpt>
      <trkpt lat="43.81558" lon="6.35744">
        <ele>1251</ele>
        <time>2022-06-09T19:18:20Z</time>
      </trkpt>
      <trkpt lat="43.8156" lon="6.35743">
        <ele>1251</ele>
        <time>2022-06-09T19:18:21Z</time>
      </trkpt>
      <trkpt lat="43.81547" lon="6.3576">
        <ele>1252</ele>
        <time>2022-06-09T19:18:25Z</time>
      </trkpt>
      <trkpt lat="43.81521" lon="6.3582">
        <ele>1254</ele>
        <time>2022-06-09T19:18:37Z</time>
      </trkpt>
      <trkpt lat="43.81515" lon="6.35847">
        <ele>1253</ele>
        <time>2022-06-09T19:18:42Z</time>
      </trkpt>
      <trkpt lat="43.8153" lon="6.35875">
        <ele>1255</ele>
        <time>2022-06-09T19:18:48Z</time>
      </trkpt>
      <trkpt lat="43.81542" lon="6.35905">
        <ele>1257</ele>
        <time>2022-06-09T19:18:53Z</time>
      </trkpt>
      <trkpt lat="43.81552" lon="6.35943">
        <ele>1256</ele>
        <time>2022-06-09T19:19:00Z</time>
      </trkpt>
      <trkpt lat="43.81564" lon="6.36039">
        <ele>1250</ele>
        <time>2022-06-09T19:19:17Z</time>
      </trkpt>
      <trkpt lat="43.81572" lon="6.36072">
        <ele>1247</ele>
        <time>2022-06-09T19:19:22Z</time>
      </trkpt>
      <trkpt lat="43.8159" lon="6.36099">
        <ele>1249</ele>
        <time>2022-06-09T19:19:29Z</time>
      </trkpt>
      <trkpt lat="43.81593" lon="6.36112">
        <ele>1249</ele>
        <time>2022-06-09T19:19:31Z</time>
      </trkpt>
      <trkpt lat="43.81583" lon="6.36134">
        <ele>1247</ele>
        <time>2022-06-09T19:19:35Z</time>
      </trkpt>
      <trkpt lat="43.81569" lon="6.36179">
        <ele>1243</ele>
        <time>2022-06-09T19:19:44Z</time>
      </trkpt>
      <trkpt lat="43.81562" lon="6.36211">
        <ele>1241</ele>
        <time>2022-06-09T19:19:49Z</time>
      </trkpt>
      <trkpt lat="43.8156" lon="6.36241">
        <ele>1240</ele>
        <time>2022-06-09T19:19:54Z</time>
      </trkpt>
      <trkpt lat="43.81571" lon="6.36284">
        <ele>1238</ele>
        <time>2022-06-09T19:20:02Z</time>
      </trkpt>
      <trkpt lat="43.81608" lon="6.36332">
        <ele>1242</ele>
        <time>2022-06-09T19:20:14Z</time>
      </trkpt>
      <trkpt lat="43.81631" lon="6.36349">
        <ele>1250</ele>
        <time>2022-06-09T19:20:20Z</time>
      </trkpt>
      <trkpt lat="43.81635" lon="6.36361">
        <ele>1253</ele>
        <time>2022-06-09T19:20:22Z</time>
      </trkpt>
      <trkpt lat="43.81606" lon="6.36385">
        <ele>1250</ele>
        <time>2022-06-09T19:20:30Z</time>
      </trkpt>
      <trkpt lat="43.81593" lon="6.364">
        <ele>1249</ele>
        <time>2022-06-09T19:20:34Z</time>
      </trkpt>
      <trkpt lat="43.81564" lon="6.36441">
        <ele>1253</ele>
        <time>2022-06-09T19:20:44Z</time>
      </trkpt>
      <trkpt lat="43.81526" lon="6.36489">
        <ele>1258</ele>
        <time>2022-06-09T19:20:56Z</time>
      </trkpt>
      <trkpt lat="43.81497" lon="6.36521">
        <ele>1258</ele>
        <time>2022-06-09T19:21:04Z</time>
      </trkpt>
      <trkpt lat="43.81483" lon="6.36542">
        <ele>1257</ele>
        <time>2022-06-09T19:21:09Z</time>
      </trkpt>
      <trkpt lat="43.81472" lon="6.3657">
        <ele>1259</ele>
        <time>2022-06-09T19:21:14Z</time>
      </trkpt>
      <trkpt lat="43.81461" lon="6.3661">
        <ele>1262</ele>
        <time>2022-06-09T19:21:22Z</time>
      </trkpt>
      <trkpt lat="43.81441" lon="6.36709">
        <ele>1269</ele>
        <time>2022-06-09T19:21:39Z</time>
      </trkpt>
      <trkpt lat="43.81439" lon="6.36775">
        <ele>1275</ele>
        <time>2022-06-09T19:21:50Z</time>
      </trkpt>
      <trkpt lat="43.81434" lon="6.3683">
        <ele>1277</ele>
        <time>2022-06-09T19:21:59Z</time>
      </trkpt>
      <trkpt lat="43.8144" lon="6.36909">
        <ele>1283</ele>
        <time>2022-06-09T19:22:13Z</time>
      </trkpt>
      <trkpt lat="43.81468" lon="6.37121">
        <ele>1293</ele>
        <time>2022-06-09T19:22:49Z</time>
      </trkpt>
      <trkpt lat="43.8148" lon="6.37145">
        <ele>1298</ele>
        <time>2022-06-09T19:22:54Z</time>
      </trkpt>
      <trkpt lat="43.81469" lon="6.37179">
        <ele>1293</ele>
        <time>2022-06-09T19:23:00Z</time>
      </trkpt>
      <trkpt lat="43.81471" lon="6.37177">
        <ele>1294</ele>
        <time>2022-06-09T19:23:01Z</time>
      </trkpt>
      <trkpt lat="43.81469" lon="6.37184">
        <ele>1293</ele>
        <time>2022-06-09T19:23:02Z</time>
      </trkpt>
      <trkpt lat="43.8147" lon="6.37229">
        <ele>1294</ele>
        <time>2022-06-09T19:23:10Z</time>
      </trkpt>
      <trkpt lat="43.81489" lon="6.37291">
        <ele>1302</ele>
        <time>2022-06-09T19:23:21Z</time>
      </trkpt>
      <trkpt lat="43.81482" lon="6.37318">
        <ele>1299</ele>
        <time>2022-06-09T19:23:26Z</time>
      </trkpt>
      <trkpt lat="43.81481" lon="6.37356">
        <ele>1300</ele>
        <time>2022-06-09T19:23:32Z</time>
      </trkpt>
      <trkpt lat="43.81477" lon="6.37381">
        <ele>1301</ele>
        <time>2022-06-09T19:23:37Z</time>
      </trkpt>
      <trkpt lat="43.81468" lon="6.37491">
        <ele>1309</ele>
        <time>2022-06-09T19:23:55Z</time>
      </trkpt>
      <trkpt lat="43.81453" lon="6.3757">
        <ele>1313</ele>
        <time>2022-06-09T19:24:09Z</time>
      </trkpt>
      <trkpt lat="43.81445" lon="6.37634">
        <ele>1315</ele>
        <time>2022-06-09T19:24:20Z</time>
      </trkpt>
      <trkpt lat="43.81443" lon="6.37704">
        <ele>1317</ele>
        <time>2022-06-09T19:24:32Z</time>
      </trkpt>
      <trkpt lat="43.81438" lon="6.37754">
        <ele>1315</ele>
        <time>2022-06-09T19:24:40Z</time>
      </trkpt>
      <trkpt lat="43.81441" lon="6.37776">
        <ele>1317</ele>
        <time>2022-06-09T19:24:44Z</time>
      </trkpt>
      <trkpt lat="43.81449" lon="6.37793">
        <ele>1320</ele>
        <time>2022-06-09T19:24:48Z</time>
      </trkpt>
      <trkpt lat="43.81458" lon="6.37805">
        <ele>1323</ele>
        <time>2022-06-09T19:24:50Z</time>
      </trkpt>
      <trkpt lat="43.81457" lon="6.37834">
        <ele>1323</ele>
        <time>2022-06-09T19:24:55Z</time>
      </trkpt>
      <trkpt lat="43.81465" lon="6.37874">
        <ele>1328</ele>
        <time>2022-06-09T19:25:02Z</time>
      </trkpt>
      <trkpt lat="43.81468" lon="6.37874">
        <ele>1329</ele>
        <time>2022-06-09T19:25:03Z</time>
      </trkpt>
      <trkpt lat="43.81487" lon="6.37852">
        <ele>1334</ele>
        <time>2022-06-09T19:25:09Z</time>
      </trkpt>
      <trkpt lat="43.81526" lon="6.37849">
        <ele>1345</ele>
        <time>2022-06-09T19:25:18Z</time>
      </trkpt>
      <trkpt lat="43.81534" lon="6.37843">
        <ele>1347</ele>
        <time>2022-06-09T19:25:20Z</time>
      </trkpt>
      <trkpt lat="43.81537" lon="6.37821">
        <ele>1348</ele>
        <time>2022-06-09T19:25:24Z</time>
      </trkpt>
      <trkpt lat="43.81552" lon="6.37788">
        <ele>1353</ele>
        <time>2022-06-09T19:25:30Z</time>
      </trkpt>
      <trkpt lat="43.81556" lon="6.37764">
        <ele>1356</ele>
        <time>2022-06-09T19:25:35Z</time>
      </trkpt>
      <trkpt lat="43.81565" lon="6.37741">
        <ele>1360</ele>
        <time>2022-06-09T19:25:39Z</time>
      </trkpt>
      <trkpt lat="43.81564" lon="6.37718">
        <ele>1360</ele>
        <time>2022-06-09T19:25:43Z</time>
      </trkpt>
      <trkpt lat="43.81569" lon="6.37682">
        <ele>1363</ele>
        <time>2022-06-09T19:25:49Z</time>
      </trkpt>
      <trkpt lat="43.81578" lon="6.37643">
        <ele>1366</ele>
        <time>2022-06-09T19:25:56Z</time>
      </trkpt>
      <trkpt lat="43.81603" lon="6.37592">
        <ele>1378</ele>
        <time>2022-06-09T19:26:06Z</time>
      </trkpt>
      <trkpt lat="43.81625" lon="6.37535">
        <ele>1387</ele>
        <time>2022-06-09T19:26:17Z</time>
      </trkpt>
      <trkpt lat="43.81642" lon="6.37475">
        <ele>1391</ele>
        <time>2022-06-09T19:26:28Z</time>
      </trkpt>
      <trkpt lat="43.81651" lon="6.37459">
        <ele>1395</ele>
        <time>2022-06-09T19:26:32Z</time>
      </trkpt>
      <trkpt lat="43.81669" lon="6.37411">
        <ele>1398</ele>
        <time>2022-06-09T19:26:41Z</time>
      </trkpt>
      <trkpt lat="43.81689" lon="6.37373">
        <ele>1405</ele>
        <time>2022-06-09T19:26:49Z</time>
      </trkpt>
      <trkpt lat="43.81702" lon="6.37356">
        <ele>1411</ele>
        <time>2022-06-09T19:26:53Z</time>
      </trkpt>
      <trkpt lat="43.81715" lon="6.3733">
        <ele>1416</ele>
        <time>2022-06-09T19:26:58Z</time>
      </trkpt>
      <trkpt lat="43.81711" lon="6.37289">
        <ele>1414</ele>
        <time>2022-06-09T19:27:05Z</time>
      </trkpt>
      <trkpt lat="43.81711" lon="6.3727">
        <ele>1414</ele>
        <time>2022-06-09T19:27:08Z</time>
      </trkpt>
      <trkpt lat="43.81714" lon="6.37261">
        <ele>1416</ele>
        <time>2022-06-09T19:27:10Z</time>
      </trkpt>
      <trkpt lat="43.81712" lon="6.37246">
        <ele>1416</ele>
        <time>2022-06-09T19:27:12Z</time>
      </trkpt>
      <trkpt lat="43.81714" lon="6.37232">
        <ele>1419</ele>
        <time>2022-06-09T19:27:15Z</time>
      </trkpt>
      <trkpt lat="43.81703" lon="6.37183">
        <ele>1418</ele>
        <time>2022-06-09T19:27:24Z</time>
      </trkpt>
      <trkpt lat="43.81703" lon="6.37164">
        <ele>1421</ele>
        <time>2022-06-09T19:27:27Z</time>
      </trkpt>
      <trkpt lat="43.81698" lon="6.37143">
        <ele>1420</ele>
        <time>2022-06-09T19:27:30Z</time>
      </trkpt>
      <trkpt lat="43.81696" lon="6.37072">
        <ele>1427</ele>
        <time>2022-06-09T19:27:42Z</time>
      </trkpt>
      <trkpt lat="43.81694" lon="6.37064">
        <ele>1427</ele>
        <time>2022-06-09T19:27:44Z</time>
      </trkpt>
      <trkpt lat="43.81696" lon="6.37031">
        <ele>1430</ele>
        <time>2022-06-09T19:27:49Z</time>
      </trkpt>
      <trkpt lat="43.81704" lon="6.36988">
        <ele>1436</ele>
        <time>2022-06-09T19:27:57Z</time>
      </trkpt>
      <trkpt lat="43.81717" lon="6.36953">
        <ele>1438</ele>
        <time>2022-06-09T19:28:04Z</time>
      </trkpt>
      <trkpt lat="43.81726" lon="6.36949">
        <ele>1442</ele>
        <time>2022-06-09T19:28:06Z</time>
      </trkpt>
      <trkpt lat="43.81734" lon="6.36951">
        <ele>1445</ele>
        <time>2022-06-09T19:28:08Z</time>
      </trkpt>
      <trkpt lat="43.81743" lon="6.36972">
        <ele>1452</ele>
        <time>2022-06-09T19:28:12Z</time>
      </trkpt>
      <trkpt lat="43.8176" lon="6.36979">
        <ele>1457</ele>
        <time>2022-06-09T19:28:16Z</time>
      </trkpt>
      <trkpt lat="43.81766" lon="6.36993">
        <ele>1459</ele>
        <time>2022-06-09T19:28:19Z</time>
      </trkpt>
      <trkpt lat="43.81768" lon="6.37022">
        <ele>1460</ele>
        <time>2022-06-09T19:28:24Z</time>
      </trkpt>
      <trkpt lat="43.81775" lon="6.37038">
        <ele>1461</ele>
        <time>2022-06-09T19:28:27Z</time>
      </trkpt>
      <trkpt lat="43.81783" lon="6.37043">
        <ele>1462</ele>
        <time>2022-06-09T19:28:29Z</time>
      </trkpt>
      <trkpt lat="43.8178" lon="6.37044">
        <ele>1462</ele>
        <time>2022-06-09T19:28:29Z</time>
      </trkpt>
      <trkpt lat="43.81792" lon="6.37054">
        <ele>1464</ele>
        <time>2022-06-09T19:28:33Z</time>
      </trkpt>
      <trkpt lat="43.81814" lon="6.37103">
        <ele>1473</ele>
        <time>2022-06-09T19:28:42Z</time>
      </trkpt>
      <trkpt lat="43.81829" lon="6.3713">
        <ele>1482</ele>
        <time>2022-06-09T19:28:48Z</time>
      </trkpt>
      <trkpt lat="43.81835" lon="6.37149">
        <ele>1487</ele>
        <time>2022-06-09T19:28:52Z</time>
      </trkpt>
      <trkpt lat="43.81842" lon="6.37155">
        <ele>1490</ele>
        <time>2022-06-09T19:28:54Z</time>
      </trkpt>
      <trkpt lat="43.81876" lon="6.37144">
        <ele>1499</ele>
        <time>2022-06-09T19:29:02Z</time>
      </trkpt>
      <trkpt lat="43.81889" lon="6.37133">
        <ele>1500</ele>
        <time>2022-06-09T19:29:05Z</time>
      </trkpt>
      <trkpt lat="43.81906" lon="6.37129">
        <ele>1504</ele>
        <time>2022-06-09T19:29:09Z</time>
      </trkpt>
      <trkpt lat="43.81922" lon="6.3712">
        <ele>1506</ele>
        <time>2022-06-09T19:29:13Z</time>
      </trkpt>
      <trkpt lat="43.81938" lon="6.37118">
        <ele>1512</ele>
        <time>2022-06-09T19:29:17Z</time>
      </trkpt>
      <trkpt lat="43.81953" lon="6.37099">
        <ele>1511</ele>
        <time>2022-06-09T19:29:22Z</time>
      </trkpt>
      <trkpt lat="43.81979" lon="6.37082">
        <ele>1515</ele>
        <time>2022-06-09T19:29:29Z</time>
      </trkpt>
      <trkpt lat="43.81989" lon="6.37071">
        <ele>1515</ele>
        <time>2022-06-09T19:29:32Z</time>
      </trkpt>
      <trkpt lat="43.82024" lon="6.37051">
        <ele>1526</ele>
        <time>2022-06-09T19:29:40Z</time>
      </trkpt>
      <trkpt lat="43.82036" lon="6.3702">
        <ele>1525</ele>
        <time>2022-06-09T19:29:46Z</time>
      </trkpt>
      <trkpt lat="43.82044" lon="6.3701">
        <ele>1527</ele>
        <time>2022-06-09T19:29:49Z</time>
      </trkpt>
      <trkpt lat="43.82055" lon="6.36987">
        <ele>1528</ele>
        <time>2022-06-09T19:29:54Z</time>
      </trkpt>
      <trkpt lat="43.82076" lon="6.36954">
        <ele>1534</ele>
        <time>2022-06-09T19:30:01Z</time>
      </trkpt>
      <trkpt lat="43.82086" lon="6.36925">
        <ele>1534</ele>
        <time>2022-06-09T19:30:06Z</time>
      </trkpt>
      <trkpt lat="43.82104" lon="6.36891">
        <ele>1538</ele>
        <time>2022-06-09T19:30:13Z</time>
      </trkpt>
      <trkpt lat="43.82135" lon="6.36821">
        <ele>1541</ele>
        <time>2022-06-09T19:30:27Z</time>
      </trkpt>
      <trkpt lat="43.82142" lon="6.36811">
        <ele>1543</ele>
        <time>2022-06-09T19:30:30Z</time>
      </trkpt>
      <trkpt lat="43.82154" lon="6.36775">
        <ele>1544</ele>
        <time>2022-06-09T19:30:36Z</time>
      </trkpt>
      <trkpt lat="43.82161" lon="6.36761">
        <ele>1545</ele>
        <time>2022-06-09T19:30:39Z</time>
      </trkpt>
      <trkpt lat="43.82179" lon="6.36727">
        <ele>1546</ele>
        <time>2022-06-09T19:30:46Z</time>
      </trkpt>
      <trkpt lat="43.82215" lon="6.36673">
        <ele>1549</ele>
        <time>2022-06-09T19:30:59Z</time>
      </trkpt>
      <trkpt lat="43.82238" lon="6.36647">
        <ele>1552</ele>
        <time>2022-06-09T19:31:06Z</time>
      </trkpt>
      <trkpt lat="43.8227" lon="6.36604">
        <ele>1554</ele>
        <time>2022-06-09T19:31:16Z</time>
      </trkpt>
      <trkpt lat="43.82323" lon="6.36546">
        <ele>1559</ele>
        <time>2022-06-09T19:31:32Z</time>
      </trkpt>
      <trkpt lat="43.8235" lon="6.36527">
        <ele>1563</ele>
        <time>2022-06-09T19:31:39Z</time>
      </trkpt>
      <trkpt lat="43.82375" lon="6.36504">
        <ele>1567</ele>
        <time>2022-06-09T19:31:46Z</time>
      </trkpt>
      <trkpt lat="43.82411" lon="6.3648">
        <ele>1579</ele>
        <time>2022-06-09T19:31:55Z</time>
      </trkpt>
      <trkpt lat="43.82426" lon="6.36459">
        <ele>1584</ele>
        <time>2022-06-09T19:32:00Z</time>
      </trkpt>
      <trkpt lat="43.82431" lon="6.36446">
        <ele>1585</ele>
        <time>2022-06-09T19:32:03Z</time>
      </trkpt>
      <trkpt lat="43.8243" lon="6.36442">
        <ele>1584</ele>
        <time>2022-06-09T19:32:03Z</time>
      </trkpt>
      <trkpt lat="43.82439" lon="6.364">
        <ele>1585</ele>
        <time>2022-06-09T19:32:11Z</time>
      </trkpt>
      <trkpt lat="43.8244" lon="6.36384">
        <ele>1585</ele>
        <time>2022-06-09T19:32:13Z</time>
      </trkpt>
      <trkpt lat="43.82446" lon="6.36369">
        <ele>1586</ele>
        <time>2022-06-09T19:32:16Z</time>
      </trkpt>
      <trkpt lat="43.82451" lon="6.36369">
        <ele>1588</ele>
        <time>2022-06-09T19:32:18Z</time>
      </trkpt>
      <trkpt lat="43.8246" lon="6.3636">
        <ele>1591</ele>
        <time>2022-06-09T19:32:20Z</time>
      </trkpt>
      <trkpt lat="43.82469" lon="6.36372">
        <ele>1596</ele>
        <time>2022-06-09T19:32:23Z</time>
      </trkpt>
      <trkpt lat="43.82472" lon="6.36368">
        <ele>1597</ele>
        <time>2022-06-09T19:32:24Z</time>
      </trkpt>
      <trkpt lat="43.82472" lon="6.36355">
        <ele>1595</ele>
        <time>2022-06-09T19:32:26Z</time>
      </trkpt>
      <trkpt lat="43.82475" lon="6.36348">
        <ele>1596</ele>
        <time>2022-06-09T19:32:28Z</time>
      </trkpt>
      <trkpt lat="43.82484" lon="6.36356">
        <ele>1601</ele>
        <time>2022-06-09T19:32:30Z</time>
      </trkpt>
      <trkpt lat="43.82489" lon="6.36356">
        <ele>1603</ele>
        <time>2022-06-09T19:32:31Z</time>
      </trkpt>
      <trkpt lat="43.82497" lon="6.36335">
        <ele>1604</ele>
        <time>2022-06-09T19:32:35Z</time>
      </trkpt>
      <trkpt lat="43.82509" lon="6.36344">
        <ele>1607</ele>
        <time>2022-06-09T19:32:38Z</time>
      </trkpt>
      <trkpt lat="43.82514" lon="6.36329">
        <ele>1604</ele>
        <time>2022-06-09T19:32:41Z</time>
      </trkpt>
      <trkpt lat="43.82528" lon="6.3635">
        <ele>1609</ele>
        <time>2022-06-09T19:32:46Z</time>
      </trkpt>
      <trkpt lat="43.82536" lon="6.36341">
        <ele>1608</ele>
        <time>2022-06-09T19:32:48Z</time>
      </trkpt>
      <trkpt lat="43.82551" lon="6.36333">
        <ele>1608</ele>
        <time>2022-06-09T19:32:52Z</time>
      </trkpt>
      <trkpt lat="43.82561" lon="6.3632">
        <ele>1606</ele>
        <time>2022-06-09T19:32:55Z</time>
      </trkpt>
      <trkpt lat="43.82571" lon="6.36315">
        <ele>1607</ele>
        <time>2022-06-09T19:32:58Z</time>
      </trkpt>
      <trkpt lat="43.82614" lon="6.36279">
        <ele>1602</ele>
        <time>2022-06-09T19:33:10Z</time>
      </trkpt>
      <trkpt lat="43.82615" lon="6.36275">
        <ele>1601</ele>
        <time>2022-06-09T19:33:10Z</time>
      </trkpt>
      <trkpt lat="43.82628" lon="6.36266">
        <ele>1599</ele>
        <time>2022-06-09T19:33:14Z</time>
      </trkpt>
      <trkpt lat="43.82628" lon="6.36263">
        <ele>1598</ele>
        <time>2022-06-09T19:33:14Z</time>
      </trkpt>
      <trkpt lat="43.82629" lon="6.36265">
        <ele>1599</ele>
        <time>2022-06-09T19:33:15Z</time>
      </trkpt>
      <trkpt lat="43.82633" lon="6.36263">
        <ele>1598</ele>
        <time>2022-06-09T19:33:16Z</time>
      </trkpt>
      <trkpt lat="43.8264" lon="6.36256">
        <ele>1596</ele>
        <time>2022-06-09T19:33:18Z</time>
      </trkpt>
      <trkpt lat="43.82641" lon="6.3625">
        <ele>1595</ele>
        <time>2022-06-09T19:33:19Z</time>
      </trkpt>
      <trkpt lat="43.8265" lon="6.36256">
        <ele>1595</ele>
        <time>2022-06-09T19:33:21Z</time>
      </trkpt>
      <trkpt lat="43.82653" lon="6.36254">
        <ele>1595</ele>
        <time>2022-06-09T19:33:22Z</time>
      </trkpt>
      <trkpt lat="43.82662" lon="6.36274">
        <ele>1597</ele>
        <time>2022-06-09T19:33:26Z</time>
      </trkpt>
      <trkpt lat="43.8267" lon="6.36279">
        <ele>1597</ele>
        <time>2022-06-09T19:33:28Z</time>
      </trkpt>
      <trkpt lat="43.82677" lon="6.36323">
        <ele>1601</ele>
        <time>2022-06-09T19:33:35Z</time>
      </trkpt>
      <trkpt lat="43.82694" lon="6.36347">
        <ele>1597</ele>
        <time>2022-06-09T19:33:41Z</time>
      </trkpt>
      <trkpt lat="43.82704" lon="6.36371">
        <ele>1594</ele>
        <time>2022-06-09T19:33:46Z</time>
      </trkpt>
      <trkpt lat="43.82715" lon="6.36429">
        <ele>1591</ele>
        <time>2022-06-09T19:33:56Z</time>
      </trkpt>
      <trkpt lat="43.82723" lon="6.36445">
        <ele>1590</ele>
        <time>2022-06-09T19:33:59Z</time>
      </trkpt>
      <trkpt lat="43.82746" lon="6.36477">
        <ele>1584</ele>
        <time>2022-06-09T19:34:07Z</time>
      </trkpt>
      <trkpt lat="43.82763" lon="6.36522">
        <ele>1583</ele>
        <time>2022-06-09T19:34:15Z</time>
      </trkpt>
      <trkpt lat="43.82792" lon="6.36578">
        <ele>1579</ele>
        <time>2022-06-09T19:34:27Z</time>
      </trkpt>
      <trkpt lat="43.82808" lon="6.36602">
        <ele>1577</ele>
        <time>2022-06-09T19:34:32Z</time>
      </trkpt>
      <trkpt lat="43.82843" lon="6.36671">
        <ele>1574</ele>
        <time>2022-06-09T19:34:47Z</time>
      </trkpt>
      <trkpt lat="43.82859" lon="6.36708">
        <ele>1576</ele>
        <time>2022-06-09T19:34:54Z</time>
      </trkpt>
      <trkpt lat="43.82873" lon="6.36732">
        <ele>1575</ele>
        <time>2022-06-09T19:34:59Z</time>
      </trkpt>
      <trkpt lat="43.82939" lon="6.36832">
        <ele>1578</ele>
        <time>2022-06-09T19:35:22Z</time>
      </trkpt>
      <trkpt lat="43.82979" lon="6.36875">
        <ele>1581</ele>
        <time>2022-06-09T19:35:34Z</time>
      </trkpt>
      <trkpt lat="43.83002" lon="6.36909">
        <ele>1584</ele>
        <time>2022-06-09T19:35:42Z</time>
      </trkpt>
      <trkpt lat="43.83015" lon="6.36922">
        <ele>1585</ele>
        <time>2022-06-09T19:35:45Z</time>
      </trkpt>
      <trkpt lat="43.83033" lon="6.36931">
        <ele>1585</ele>
        <time>2022-06-09T19:35:50Z</time>
      </trkpt>
      <trkpt lat="43.83062" lon="6.36953">
        <ele>1584</ele>
        <time>2022-06-09T19:35:58Z</time>
      </trkpt>
      <trkpt lat="43.83084" lon="6.37">
        <ele>1580</ele>
        <time>2022-06-09T19:36:07Z</time>
      </trkpt>
      <trkpt lat="43.83126" lon="6.3706">
        <ele>1574</ele>
        <time>2022-06-09T19:36:21Z</time>
      </trkpt>
      <trkpt lat="43.83142" lon="6.37104">
        <ele>1570</ele>
        <time>2022-06-09T19:36:29Z</time>
      </trkpt>
      <trkpt lat="43.83157" lon="6.37184">
        <ele>1565</ele>
        <time>2022-06-09T19:36:43Z</time>
      </trkpt>
      <trkpt lat="43.83163" lon="6.37197">
        <ele>1561</ele>
        <time>2022-06-09T19:36:46Z</time>
      </trkpt>
      <trkpt lat="43.83163" lon="6.37216">
        <ele>1560</ele>
        <time>2022-06-09T19:36:49Z</time>
      </trkpt>
      <trkpt lat="43.83166" lon="6.37224">
        <ele>1558</ele>
        <time>2022-06-09T19:36:51Z</time>
      </trkpt>
      <trkpt lat="43.83166" lon="6.37272">
        <ele>1554</ele>
        <time>2022-06-09T19:36:59Z</time>
      </trkpt>
      <trkpt lat="43.83172" lon="6.37291">
        <ele>1551</ele>
        <time>2022-06-09T19:37:02Z</time>
      </trkpt>
      <trkpt lat="43.83167" lon="6.37344">
        <ele>1547</ele>
        <time>2022-06-09T19:37:11Z</time>
      </trkpt>
      <trkpt lat="43.8317" lon="6.37368">
        <ele>1543</ele>
        <time>2022-06-09T19:37:15Z</time>
      </trkpt>
      <trkpt lat="43.8317" lon="6.37442">
        <ele>1532</ele>
        <time>2022-06-09T19:37:28Z</time>
      </trkpt>
      <trkpt lat="43.83175" lon="6.37476">
        <ele>1525</ele>
        <time>2022-06-09T19:37:34Z</time>
      </trkpt>
      <trkpt lat="43.83183" lon="6.37494">
        <ele>1520</ele>
        <time>2022-06-09T19:37:37Z</time>
      </trkpt>
      <trkpt lat="43.83194" lon="6.37499">
        <ele>1516</ele>
        <time>2022-06-09T19:37:40Z</time>
      </trkpt>
      <trkpt lat="43.83184" lon="6.37509">
        <ele>1516</ele>
        <time>2022-06-09T19:37:43Z</time>
      </trkpt>
      <trkpt lat="43.83151" lon="6.37528">
        <ele>1518</ele>
        <time>2022-06-09T19:37:51Z</time>
      </trkpt>
      <trkpt lat="43.83141" lon="6.37526">
        <ele>1521</ele>
        <time>2022-06-09T19:37:53Z</time>
      </trkpt>
      <trkpt lat="43.83137" lon="6.37528">
        <ele>1521</ele>
        <time>2022-06-09T19:37:54Z</time>
      </trkpt>
      <trkpt lat="43.83142" lon="6.37534">
        <ele>1518</ele>
        <time>2022-06-09T19:37:56Z</time>
      </trkpt>
      <trkpt lat="43.83121" lon="6.37543">
        <ele>1521</ele>
        <time>2022-06-09T19:38:01Z</time>
      </trkpt>
      <trkpt lat="43.83103" lon="6.37595">
        <ele>1510</ele>
        <time>2022-06-09T19:38:11Z</time>
      </trkpt>
      <trkpt lat="43.83092" lon="6.37618">
        <ele>1508</ele>
        <time>2022-06-09T19:38:15Z</time>
      </trkpt>
      <trkpt lat="43.8309" lon="6.37643">
        <ele>1502</ele>
        <time>2022-06-09T19:38:20Z</time>
      </trkpt>
      <trkpt lat="43.83076" lon="6.37684">
        <ele>1500</ele>
        <time>2022-06-09T19:38:27Z</time>
      </trkpt>
      <trkpt lat="43.83065" lon="6.37758">
        <ele>1494</ele>
        <time>2022-06-09T19:38:40Z</time>
      </trkpt>
      <trkpt lat="43.83066" lon="6.37772">
        <ele>1492</ele>
        <time>2022-06-09T19:38:42Z</time>
      </trkpt>
      <trkpt lat="43.83055" lon="6.37806">
        <ele>1495</ele>
        <time>2022-06-09T19:38:49Z</time>
      </trkpt>
      <trkpt lat="43.83062" lon="6.37826">
        <ele>1489</ele>
        <time>2022-06-09T19:38:52Z</time>
      </trkpt>
      <trkpt lat="43.83063" lon="6.37837">
        <ele>1487</ele>
        <time>2022-06-09T19:38:54Z</time>
      </trkpt>
      <trkpt lat="43.83059" lon="6.37874">
        <ele>1488</ele>
        <time>2022-06-09T19:39:01Z</time>
      </trkpt>
      <trkpt lat="43.8306" lon="6.37907">
        <ele>1486</ele>
        <time>2022-06-09T19:39:06Z</time>
      </trkpt>
      <trkpt lat="43.83071" lon="6.37938">
        <ele>1479</ele>
        <time>2022-06-09T19:39:12Z</time>
      </trkpt>
      <trkpt lat="43.8307" lon="6.37974">
        <ele>1477</ele>
        <time>2022-06-09T19:39:18Z</time>
      </trkpt>
      <trkpt lat="43.83065" lon="6.37996">
        <ele>1478</ele>
        <time>2022-06-09T19:39:22Z</time>
      </trkpt>
      <trkpt lat="43.83063" lon="6.38023">
        <ele>1478</ele>
        <time>2022-06-09T19:39:27Z</time>
      </trkpt>
      <trkpt lat="43.83065" lon="6.3805">
        <ele>1476</ele>
        <time>2022-06-09T19:39:31Z</time>
      </trkpt>
      <trkpt lat="43.8307" lon="6.38072">
        <ele>1474</ele>
        <time>2022-06-09T19:39:35Z</time>
      </trkpt>
      <trkpt lat="43.83081" lon="6.38095">
        <ele>1470</ele>
        <time>2022-06-09T19:39:40Z</time>
      </trkpt>
      <trkpt lat="43.83085" lon="6.38121">
        <ele>1471</ele>
        <time>2022-06-09T19:39:44Z</time>
      </trkpt>
      <trkpt lat="43.83084" lon="6.38143">
        <ele>1472</ele>
        <time>2022-06-09T19:39:48Z</time>
      </trkpt>
      <trkpt lat="43.83094" lon="6.38189">
        <ele>1473</ele>
        <time>2022-06-09T19:39:56Z</time>
      </trkpt>
      <trkpt lat="43.83115" lon="6.38201">
        <ele>1468</ele>
        <time>2022-06-09T19:40:01Z</time>
      </trkpt>
      <trkpt lat="43.83168" lon="6.38258">
        <ele>1459</ele>
        <time>2022-06-09T19:40:17Z</time>
      </trkpt>
      <trkpt lat="43.83181" lon="6.38299">
        <ele>1461</ele>
        <time>2022-06-09T19:40:24Z</time>
      </trkpt>
      <trkpt lat="43.83196" lon="6.38331">
        <ele>1460</ele>
        <time>2022-06-09T19:40:31Z</time>
      </trkpt>
      <trkpt lat="43.832" lon="6.38353">
        <ele>1461</ele>
        <time>2022-06-09T19:40:35Z</time>
      </trkpt>
      <trkpt lat="43.83223" lon="6.38398">
        <ele>1458</ele>
        <time>2022-06-09T19:40:44Z</time>
      </trkpt>
      <trkpt lat="43.83233" lon="6.38412">
        <ele>1457</ele>
        <time>2022-06-09T19:40:47Z</time>
      </trkpt>
      <trkpt lat="43.83264" lon="6.38436">
        <ele>1452</ele>
        <time>2022-06-09T19:40:56Z</time>
      </trkpt>
      <trkpt lat="43.83351" lon="6.38462">
        <ele>1440</ele>
        <time>2022-06-09T19:41:16Z</time>
      </trkpt>
      <trkpt lat="43.83387" lon="6.38465">
        <ele>1436</ele>
        <time>2022-06-09T19:41:25Z</time>
      </trkpt>
      <trkpt lat="43.83415" lon="6.38461">
        <ele>1432</ele>
        <time>2022-06-09T19:41:31Z</time>
      </trkpt>
      <trkpt lat="43.83446" lon="6.38443">
        <ele>1421</ele>
        <time>2022-06-09T19:41:39Z</time>
      </trkpt>
      <trkpt lat="43.83472" lon="6.3842">
        <ele>1409</ele>
        <time>2022-06-09T19:41:46Z</time>
      </trkpt>
      <trkpt lat="43.835" lon="6.3837">
        <ele>1394</ele>
        <time>2022-06-09T19:41:57Z</time>
      </trkpt>
      <trkpt lat="43.8351" lon="6.38342">
        <ele>1388</ele>
        <time>2022-06-09T19:42:02Z</time>
      </trkpt>
      <trkpt lat="43.83516" lon="6.38336">
        <ele>1386</ele>
        <time>2022-06-09T19:42:04Z</time>
      </trkpt>
      <trkpt lat="43.8354" lon="6.38321">
        <ele>1377</ele>
        <time>2022-06-09T19:42:10Z</time>
      </trkpt>
      <trkpt lat="43.83562" lon="6.38324">
        <ele>1373</ele>
        <time>2022-06-09T19:42:15Z</time>
      </trkpt>
      <trkpt lat="43.83574" lon="6.38322">
        <ele>1370</ele>
        <time>2022-06-09T19:42:18Z</time>
      </trkpt>
      <trkpt lat="43.83602" lon="6.38305">
        <ele>1361</ele>
        <time>2022-06-09T19:42:25Z</time>
      </trkpt>
      <trkpt lat="43.83614" lon="6.38287">
        <ele>1357</ele>
        <time>2022-06-09T19:42:30Z</time>
      </trkpt>
      <trkpt lat="43.83631" lon="6.38233">
        <ele>1345</ele>
        <time>2022-06-09T19:42:39Z</time>
      </trkpt>
      <trkpt lat="43.83651" lon="6.38208">
        <ele>1338</ele>
        <time>2022-06-09T19:42:46Z</time>
      </trkpt>
      <trkpt lat="43.8366" lon="6.38209">
        <ele>1337</ele>
        <time>2022-06-09T19:42:48Z</time>
      </trkpt>
      <trkpt lat="43.83682" lon="6.38221">
        <ele>1334</ele>
        <time>2022-06-09T19:42:53Z</time>
      </trkpt>
      <trkpt lat="43.83696" lon="6.38216">
        <ele>1330</ele>
        <time>2022-06-09T19:42:57Z</time>
      </trkpt>
      <trkpt lat="43.83707" lon="6.382">
        <ele>1325</ele>
        <time>2022-06-09T19:43:00Z</time>
      </trkpt>
      <trkpt lat="43.83711" lon="6.38185">
        <ele>1323</ele>
        <time>2022-06-09T19:43:03Z</time>
      </trkpt>
      <trkpt lat="43.83727" lon="6.38172">
        <ele>1317</ele>
        <time>2022-06-09T19:43:07Z</time>
      </trkpt>
      <trkpt lat="43.83746" lon="6.38147">
        <ele>1311</ele>
        <time>2022-06-09T19:43:14Z</time>
      </trkpt>
      <trkpt lat="43.83785" lon="6.38067">
        <ele>1296</ele>
        <time>2022-06-09T19:43:30Z</time>
      </trkpt>
      <trkpt lat="43.83794" lon="6.38057">
        <ele>1292</ele>
        <time>2022-06-09T19:43:33Z</time>
      </trkpt>
      <trkpt lat="43.83802" lon="6.3804">
        <ele>1289</ele>
        <time>2022-06-09T19:43:36Z</time>
      </trkpt>
      <trkpt lat="43.83815" lon="6.38029">
        <ele>1285</ele>
        <time>2022-06-09T19:43:40Z</time>
      </trkpt>
      <trkpt lat="43.83831" lon="6.37998">
        <ele>1280</ele>
        <time>2022-06-09T19:43:46Z</time>
      </trkpt>
      <trkpt lat="43.83854" lon="6.37978">
        <ele>1271</ele>
        <time>2022-06-09T19:43:52Z</time>
      </trkpt>
      <trkpt lat="43.83859" lon="6.37969">
        <ele>1269</ele>
        <time>2022-06-09T19:43:54Z</time>
      </trkpt>
      <trkpt lat="43.83859" lon="6.37962">
        <ele>1268</ele>
        <time>2022-06-09T19:43:55Z</time>
      </trkpt>
      <trkpt lat="43.83864" lon="6.37948">
        <ele>1266</ele>
        <time>2022-06-09T19:43:58Z</time>
      </trkpt>
      <trkpt lat="43.83862" lon="6.37942">
        <ele>1265</ele>
        <time>2022-06-09T19:43:59Z</time>
      </trkpt>
      <trkpt lat="43.83865" lon="6.37941">
        <ele>1265</ele>
        <time>2022-06-09T19:44:00Z</time>
      </trkpt>
      <trkpt lat="43.83863" lon="6.3794">
        <ele>1265</ele>
        <time>2022-06-09T19:44:00Z</time>
      </trkpt>
      <trkpt lat="43.83862" lon="6.37947">
        <ele>1266</ele>
        <time>2022-06-09T19:44:02Z</time>
      </trkpt>
      <trkpt lat="43.83885" lon="6.37939">
        <ele>1261</ele>
        <time>2022-06-09T19:44:07Z</time>
      </trkpt>
      <trkpt lat="43.83888" lon="6.37936">
        <ele>1260</ele>
        <time>2022-06-09T19:44:08Z</time>
      </trkpt>
      <trkpt lat="43.8389" lon="6.37926">
        <ele>1260</ele>
        <time>2022-06-09T19:44:10Z</time>
      </trkpt>
      <trkpt lat="43.83895" lon="6.37921">
        <ele>1259</ele>
        <time>2022-06-09T19:44:11Z</time>
      </trkpt>
      <trkpt lat="43.83924" lon="6.37921">
        <ele>1254</ele>
        <time>2022-06-09T19:44:18Z</time>
      </trkpt>
      <trkpt lat="43.83929" lon="6.37919">
        <ele>1252</ele>
        <time>2022-06-09T19:44:19Z</time>
      </trkpt>
      <trkpt lat="43.83966" lon="6.37881">
        <ele>1236</ele>
        <time>2022-06-09T19:44:30Z</time>
      </trkpt>
      <trkpt lat="43.8397" lon="6.37865">
        <ele>1234</ele>
        <time>2022-06-09T19:44:33Z</time>
      </trkpt>
      <trkpt lat="43.83965" lon="6.37827">
        <ele>1230</ele>
        <time>2022-06-09T19:44:39Z</time>
      </trkpt>
      <trkpt lat="43.83966" lon="6.37824">
        <ele>1230</ele>
        <time>2022-06-09T19:44:40Z</time>
      </trkpt>
      <trkpt lat="43.83979" lon="6.37814">
        <ele>1226</ele>
        <time>2022-06-09T19:44:43Z</time>
      </trkpt>
      <trkpt lat="43.83982" lon="6.37793">
        <ele>1223</ele>
        <time>2022-06-09T19:44:47Z</time>
      </trkpt>
      <trkpt lat="43.83998" lon="6.37761">
        <ele>1217</ele>
        <time>2022-06-09T19:44:53Z</time>
      </trkpt>
      <trkpt lat="43.84" lon="6.37747">
        <ele>1216</ele>
        <time>2022-06-09T19:44:56Z</time>
      </trkpt>
      <trkpt lat="43.83996" lon="6.37719">
        <ele>1213</ele>
        <time>2022-06-09T19:45:01Z</time>
      </trkpt>
      <trkpt lat="43.83998" lon="6.37713">
        <ele>1212</ele>
        <time>2022-06-09T19:45:02Z</time>
      </trkpt>
      <trkpt lat="43.84024" lon="6.37678">
        <ele>1204</ele>
        <time>2022-06-09T19:45:10Z</time>
      </trkpt>
      <trkpt lat="43.84042" lon="6.37647">
        <ele>1199</ele>
        <time>2022-06-09T19:45:17Z</time>
      </trkpt>
      <trkpt lat="43.84068" lon="6.37625">
        <ele>1195</ele>
        <time>2022-06-09T19:45:24Z</time>
      </trkpt>
      <trkpt lat="43.84086" lon="6.37618">
        <ele>1192</ele>
        <time>2022-06-09T19:45:28Z</time>
      </trkpt>
      <trkpt lat="43.84097" lon="6.37607">
        <ele>1190</ele>
        <time>2022-06-09T19:45:32Z</time>
      </trkpt>
      <trkpt lat="43.8411" lon="6.37601">
        <ele>1187</ele>
        <time>2022-06-09T19:45:35Z</time>
      </trkpt>
      <trkpt lat="43.84118" lon="6.3759">
        <ele>1185</ele>
        <time>2022-06-09T19:45:37Z</time>
      </trkpt>
      <trkpt lat="43.84139" lon="6.37587">
        <ele>1181</ele>
        <time>2022-06-09T19:45:42Z</time>
      </trkpt>
      <trkpt lat="43.84203" lon="6.37549">
        <ele>1167</ele>
        <time>2022-06-09T19:45:59Z</time>
      </trkpt>
      <trkpt lat="43.84216" lon="6.37548">
        <ele>1164</ele>
        <time>2022-06-09T19:46:02Z</time>
      </trkpt>
      <trkpt lat="43.84257" lon="6.37525">
        <ele>1156</ele>
        <time>2022-06-09T19:46:12Z</time>
      </trkpt>
      <trkpt lat="43.84267" lon="6.37513">
        <ele>1154</ele>
        <time>2022-06-09T19:46:15Z</time>
      </trkpt>
      <trkpt lat="43.84295" lon="6.37503">
        <ele>1149</ele>
        <time>2022-06-09T19:46:22Z</time>
      </trkpt>
      <trkpt lat="43.84322" lon="6.37476">
        <ele>1142</ele>
        <time>2022-06-09T19:46:30Z</time>
      </trkpt>
      <trkpt lat="43.84327" lon="6.37462">
        <ele>1140</ele>
        <time>2022-06-09T19:46:32Z</time>
      </trkpt>
      <trkpt lat="43.8435" lon="6.37447">
        <ele>1132</ele>
        <time>2022-06-09T19:46:38Z</time>
      </trkpt>
      <trkpt lat="43.84364" lon="6.37446">
        <ele>1128</ele>
        <time>2022-06-09T19:46:41Z</time>
      </trkpt>
      <trkpt lat="43.84378" lon="6.3746">
        <ele>1124</ele>
        <time>2022-06-09T19:46:45Z</time>
      </trkpt>
      <trkpt lat="43.84385" lon="6.37457">
        <ele>1122</ele>
        <time>2022-06-09T19:46:47Z</time>
      </trkpt>
      <trkpt lat="43.84397" lon="6.37457">
        <ele>1118</ele>
        <time>2022-06-09T19:46:50Z</time>
      </trkpt>
      <trkpt lat="43.84399" lon="6.37458">
        <ele>1117</ele>
        <time>2022-06-09T19:46:50Z</time>
      </trkpt>
      <trkpt lat="43.84401" lon="6.3747">
        <ele>1117</ele>
        <time>2022-06-09T19:46:53Z</time>
      </trkpt>
      <trkpt lat="43.84408" lon="6.37476">
        <ele>1115</ele>
        <time>2022-06-09T19:46:54Z</time>
      </trkpt>
      <trkpt lat="43.84424" lon="6.37472">
        <ele>1110</ele>
        <time>2022-06-09T19:46:58Z</time>
      </trkpt>
      <trkpt lat="43.84423" lon="6.37474">
        <ele>1110</ele>
        <time>2022-06-09T19:46:59Z</time>
      </trkpt>
      <trkpt lat="43.84424" lon="6.37465">
        <ele>1109</ele>
        <time>2022-06-09T19:47:00Z</time>
      </trkpt>
      <trkpt lat="43.84436" lon="6.37477">
        <ele>1106</ele>
        <time>2022-06-09T19:47:04Z</time>
      </trkpt>
      <trkpt lat="43.8444" lon="6.37478">
        <ele>1105</ele>
        <time>2022-06-09T19:47:05Z</time>
      </trkpt>
      <trkpt lat="43.84459" lon="6.37461">
        <ele>1097</ele>
        <time>2022-06-09T19:47:10Z</time>
      </trkpt>
      <trkpt lat="43.84465" lon="6.37452">
        <ele>1095</ele>
        <time>2022-06-09T19:47:12Z</time>
      </trkpt>
      <trkpt lat="43.84484" lon="6.37458">
        <ele>1089</ele>
        <time>2022-06-09T19:47:16Z</time>
      </trkpt>
      <trkpt lat="43.84487" lon="6.37455">
        <ele>1088</ele>
        <time>2022-06-09T19:47:17Z</time>
      </trkpt>
      <trkpt lat="43.84508" lon="6.37452">
        <ele>1082</ele>
        <time>2022-06-09T19:47:22Z</time>
      </trkpt>
      <trkpt lat="43.84519" lon="6.37448">
        <ele>1080</ele>
        <time>2022-06-09T19:47:25Z</time>
      </trkpt>
      <trkpt lat="43.84541" lon="6.37437">
        <ele>1075</ele>
        <time>2022-06-09T19:47:30Z</time>
      </trkpt>
      <trkpt lat="43.84559" lon="6.37436">
        <ele>1072</ele>
        <time>2022-06-09T19:47:35Z</time>
      </trkpt>
      <trkpt lat="43.8458" lon="6.37425">
        <ele>1068</ele>
        <time>2022-06-09T19:47:40Z</time>
      </trkpt>
      <trkpt lat="43.84602" lon="6.37436">
        <ele>1061</ele>
        <time>2022-06-09T19:47:45Z</time>
      </trkpt>
      <trkpt lat="43.84619" lon="6.37433">
        <ele>1057</ele>
        <time>2022-06-09T19:47:49Z</time>
      </trkpt>
      <trkpt lat="43.84627" lon="6.3742">
        <ele>1055</ele>
        <time>2022-06-09T19:47:52Z</time>
      </trkpt>
      <trkpt lat="43.84635" lon="6.37412">
        <ele>1052</ele>
        <time>2022-06-09T19:47:55Z</time>
      </trkpt>
      <trkpt lat="43.84661" lon="6.37413">
        <ele>1045</ele>
        <time>2022-06-09T19:48:01Z</time>
      </trkpt>
      <trkpt lat="43.84685" lon="6.374">
        <ele>1037</ele>
        <time>2022-06-09T19:48:07Z</time>
      </trkpt>
      <trkpt lat="43.84704" lon="6.37398">
        <ele>1033</ele>
        <time>2022-06-09T19:48:11Z</time>
      </trkpt>
      <trkpt lat="43.84713" lon="6.374">
        <ele>1032</ele>
        <time>2022-06-09T19:48:13Z</time>
      </trkpt>
      <trkpt lat="43.84716" lon="6.37398">
        <ele>1031</ele>
        <time>2022-06-09T19:48:14Z</time>
      </trkpt>
      <trkpt lat="43.8478" lon="6.37324">
        <ele>1016</ele>
        <time>2022-06-09T19:48:33Z</time>
      </trkpt>
      <trkpt lat="43.84783" lon="6.37323">
        <ele>1016</ele>
        <time>2022-06-09T19:48:34Z</time>
      </trkpt>
      <trkpt lat="43.84791" lon="6.37327">
        <ele>1015</ele>
        <time>2022-06-09T19:48:36Z</time>
      </trkpt>
      <trkpt lat="43.84795" lon="6.3732">
        <ele>1014</ele>
        <time>2022-06-09T19:48:38Z</time>
      </trkpt>
      <trkpt lat="43.84812" lon="6.37316">
        <ele>1012</ele>
        <time>2022-06-09T19:48:42Z</time>
      </trkpt>
      <trkpt lat="43.84817" lon="6.37312">
        <ele>1012</ele>
        <time>2022-06-09T19:48:43Z</time>
      </trkpt>
      <trkpt lat="43.84834" lon="6.3732">
        <ele>1010</ele>
        <time>2022-06-09T19:48:47Z</time>
      </trkpt>
      <trkpt lat="43.8484" lon="6.37316">
        <ele>1009</ele>
        <time>2022-06-09T19:48:49Z</time>
      </trkpt>
      <trkpt lat="43.84855" lon="6.37314">
        <ele>1005</ele>
        <time>2022-06-09T19:48:52Z</time>
      </trkpt>
      <trkpt lat="43.84864" lon="6.37309">
        <ele>1003</ele>
        <time>2022-06-09T19:48:55Z</time>
      </trkpt>
      <trkpt lat="43.84876" lon="6.37296">
        <ele>1000</ele>
        <time>2022-06-09T19:48:58Z</time>
      </trkpt>
      <trkpt lat="43.84885" lon="6.37295">
        <ele>998</ele>
        <time>2022-06-09T19:49:00Z</time>
      </trkpt>
      <trkpt lat="43.84895" lon="6.37301">
        <ele>996</ele>
        <time>2022-06-09T19:49:03Z</time>
      </trkpt>
      <trkpt lat="43.84904" lon="6.37297">
        <ele>994</ele>
        <time>2022-06-09T19:49:05Z</time>
      </trkpt>
      <trkpt lat="43.84921" lon="6.37282">
        <ele>992</ele>
        <time>2022-06-09T19:49:10Z</time>
      </trkpt>
      <trkpt lat="43.84924" lon="6.37282">
        <ele>992</ele>
        <time>2022-06-09T19:49:10Z</time>
      </trkpt>
      <trkpt lat="43.84939" lon="6.37293">
        <ele>990</ele>
        <time>2022-06-09T19:49:14Z</time>
      </trkpt>
      <trkpt lat="43.84944" lon="6.37299">
        <ele>989</ele>
        <time>2022-06-09T19:49:16Z</time>
      </trkpt>
      <trkpt lat="43.84952" lon="6.37319">
        <ele>987</ele>
        <time>2022-06-09T19:49:20Z</time>
      </trkpt>
      <trkpt lat="43.84972" lon="6.37336">
        <ele>984</ele>
        <time>2022-06-09T19:49:25Z</time>
      </trkpt>
      <trkpt lat="43.84978" lon="6.37338">
        <ele>984</ele>
        <time>2022-06-09T19:49:27Z</time>
      </trkpt>
      <trkpt lat="43.84985" lon="6.37335">
        <ele>983</ele>
        <time>2022-06-09T19:49:28Z</time>
      </trkpt>
      <trkpt lat="43.84987" lon="6.37322">
        <ele>984</ele>
        <time>2022-06-09T19:49:31Z</time>
      </trkpt>
      <trkpt lat="43.84992" lon="6.37317">
        <ele>984</ele>
        <time>2022-06-09T19:49:32Z</time>
      </trkpt>
      <trkpt lat="43.8499" lon="6.37311">
        <ele>985</ele>
        <time>2022-06-09T19:49:33Z</time>
      </trkpt>
      <trkpt lat="43.84996" lon="6.37307">
        <ele>984</ele>
        <time>2022-06-09T19:49:35Z</time>
      </trkpt>
      <trkpt lat="43.85" lon="6.37297">
        <ele>985</ele>
        <time>2022-06-09T19:49:37Z</time>
      </trkpt>
      <trkpt lat="43.85013" lon="6.37295">
        <ele>985</ele>
        <time>2022-06-09T19:49:40Z</time>
      </trkpt>
      <trkpt lat="43.8509" lon="6.37308">
        <ele>980</ele>
        <time>2022-06-09T19:49:58Z</time>
      </trkpt>
      <trkpt lat="43.85118" lon="6.37332">
        <ele>977</ele>
        <time>2022-06-09T19:50:05Z</time>
      </trkpt>
      <trkpt lat="43.85134" lon="6.3734">
        <ele>978</ele>
        <time>2022-06-09T19:50:09Z</time>
      </trkpt>
      <trkpt lat="43.85153" lon="6.37359">
        <ele>978</ele>
        <time>2022-06-09T19:50:15Z</time>
      </trkpt>
      <trkpt lat="43.85173" lon="6.37355">
        <ele>978</ele>
        <time>2022-06-09T19:50:20Z</time>
      </trkpt>
      <trkpt lat="43.852" lon="6.37342">
        <ele>981</ele>
        <time>2022-06-09T19:50:26Z</time>
      </trkpt>
      <trkpt lat="43.85207" lon="6.37355">
        <ele>980</ele>
        <time>2022-06-09T19:50:29Z</time>
      </trkpt>
      <trkpt lat="43.85216" lon="6.37362">
        <ele>979</ele>
        <time>2022-06-09T19:50:31Z</time>
      </trkpt>
      <trkpt lat="43.85228" lon="6.37364">
        <ele>979</ele>
        <time>2022-06-09T19:50:34Z</time>
      </trkpt>
      <trkpt lat="43.85265" lon="6.3735">
        <ele>980</ele>
        <time>2022-06-09T19:50:43Z</time>
      </trkpt>
      <trkpt lat="43.8527" lon="6.3735">
        <ele>979</ele>
        <time>2022-06-09T19:50:44Z</time>
      </trkpt>
      <trkpt lat="43.85308" lon="6.37365">
        <ele>969</ele>
        <time>2022-06-09T19:50:54Z</time>
      </trkpt>
      <trkpt lat="43.85321" lon="6.37356">
        <ele>968</ele>
        <time>2022-06-09T19:50:57Z</time>
      </trkpt>
      <trkpt lat="43.8533" lon="6.37337">
        <ele>968</ele>
        <time>2022-06-09T19:51:01Z</time>
      </trkpt>
      <trkpt lat="43.8534" lon="6.37324">
        <ele>969</ele>
        <time>2022-06-09T19:51:04Z</time>
      </trkpt>
      <trkpt lat="43.85391" lon="6.37293">
        <ele>962</ele>
        <time>2022-06-09T19:51:17Z</time>
      </trkpt>
      <trkpt lat="43.85396" lon="6.37292">
        <ele>961</ele>
        <time>2022-06-09T19:51:18Z</time>
      </trkpt>
      <trkpt lat="43.85402" lon="6.37299">
        <ele>958</ele>
        <time>2022-06-09T19:51:20Z</time>
      </trkpt>
      <trkpt lat="43.85415" lon="6.37299">
        <ele>954</ele>
        <time>2022-06-09T19:51:23Z</time>
      </trkpt>
      <trkpt lat="43.85449" lon="6.37306">
        <ele>952</ele>
        <time>2022-06-09T19:51:31Z</time>
      </trkpt>
      <trkpt lat="43.85464" lon="6.37316">
        <ele>949</ele>
        <time>2022-06-09T19:51:35Z</time>
      </trkpt>
      <trkpt lat="43.85478" lon="6.37319">
        <ele>948</ele>
        <time>2022-06-09T19:51:38Z</time>
      </trkpt>
      <trkpt lat="43.85489" lon="6.37317">
        <ele>948</ele>
        <time>2022-06-09T19:51:41Z</time>
      </trkpt>
      <trkpt lat="43.85521" lon="6.37305">
        <ele>947</ele>
        <time>2022-06-09T19:51:49Z</time>
      </trkpt>
      <trkpt lat="43.85542" lon="6.3728">
        <ele>948</ele>
        <time>2022-06-09T19:51:55Z</time>
      </trkpt>
      <trkpt lat="43.85556" lon="6.3727">
        <ele>947</ele>
        <time>2022-06-09T19:51:59Z</time>
      </trkpt>
      <trkpt lat="43.85578" lon="6.37264">
        <ele>942</ele>
        <time>2022-06-09T19:52:04Z</time>
      </trkpt>
      <trkpt lat="43.85618" lon="6.37266">
        <ele>936</ele>
        <time>2022-06-09T19:52:13Z</time>
      </trkpt>
      <trkpt lat="43.85626" lon="6.37262">
        <ele>935</ele>
        <time>2022-06-09T19:52:15Z</time>
      </trkpt>
      <trkpt lat="43.85664" lon="6.37261">
        <ele>931</ele>
        <time>2022-06-09T19:52:24Z</time>
      </trkpt>
      <trkpt lat="43.85691" lon="6.37246">
        <ele>931</ele>
        <time>2022-06-09T19:52:31Z</time>
      </trkpt>
      <trkpt lat="43.85737" lon="6.37228">
        <ele>931</ele>
        <time>2022-06-09T19:52:42Z</time>
      </trkpt>
      <trkpt lat="43.85755" lon="6.37218">
        <ele>932</ele>
        <time>2022-06-09T19:52:47Z</time>
      </trkpt>
      <trkpt lat="43.8577" lon="6.37226">
        <ele>930</ele>
        <time>2022-06-09T19:52:50Z</time>
      </trkpt>
      <trkpt lat="43.858" lon="6.37257">
        <ele>927</ele>
        <time>2022-06-09T19:52:59Z</time>
      </trkpt>
      <trkpt lat="43.8585" lon="6.37319">
        <ele>922</ele>
        <time>2022-06-09T19:53:15Z</time>
      </trkpt>
      <trkpt lat="43.85869" lon="6.37355">
        <ele>920</ele>
        <time>2022-06-09T19:53:22Z</time>
      </trkpt>
      <trkpt lat="43.85872" lon="6.37357">
        <ele>920</ele>
        <time>2022-06-09T19:53:23Z</time>
      </trkpt>
      <trkpt lat="43.85894" lon="6.37362">
        <ele>920</ele>
        <time>2022-06-09T19:53:28Z</time>
      </trkpt>
      <trkpt lat="43.85912" lon="6.37356">
        <ele>921</ele>
        <time>2022-06-09T19:53:33Z</time>
      </trkpt>
      <trkpt lat="43.85933" lon="6.37344">
        <ele>922</ele>
        <time>2022-06-09T19:53:38Z</time>
      </trkpt>
      <trkpt lat="43.85948" lon="6.37343">
        <ele>922</ele>
        <time>2022-06-09T19:53:41Z</time>
      </trkpt>
      <trkpt lat="43.85966" lon="6.37352">
        <ele>922</ele>
        <time>2022-06-09T19:53:46Z</time>
      </trkpt>
      <trkpt lat="43.85983" lon="6.37353">
        <ele>923</ele>
        <time>2022-06-09T19:53:50Z</time>
      </trkpt>
      <trkpt lat="43.86013" lon="6.3731">
        <ele>925</ele>
        <time>2022-06-09T19:54:00Z</time>
      </trkpt>
      <trkpt lat="43.86047" lon="6.3729">
        <ele>925</ele>
        <time>2022-06-09T19:54:09Z</time>
      </trkpt>
      <trkpt lat="43.86068" lon="6.37271">
        <ele>927</ele>
        <time>2022-06-09T19:54:14Z</time>
      </trkpt>
      <trkpt lat="43.86103" lon="6.37224">
        <ele>929</ele>
        <time>2022-06-09T19:54:26Z</time>
      </trkpt>
      <trkpt lat="43.86121" lon="6.37194">
        <ele>929</ele>
        <time>2022-06-09T19:54:32Z</time>
      </trkpt>
      <trkpt lat="43.8613" lon="6.37154">
        <ele>931</ele>
        <time>2022-06-09T19:54:40Z</time>
      </trkpt>
      <trkpt lat="43.86129" lon="6.37126">
        <ele>931</ele>
        <time>2022-06-09T19:54:44Z</time>
      </trkpt>
      <trkpt lat="43.86131" lon="6.37111">
        <ele>931</ele>
        <time>2022-06-09T19:54:47Z</time>
      </trkpt>
      <trkpt lat="43.86139" lon="6.37088">
        <ele>931</ele>
        <time>2022-06-09T19:54:51Z</time>
      </trkpt>
      <trkpt lat="43.86155" lon="6.37058">
        <ele>930</ele>
        <time>2022-06-09T19:54:57Z</time>
      </trkpt>
      <trkpt lat="43.86164" lon="6.37045">
        <ele>930</ele>
        <time>2022-06-09T19:55:00Z</time>
      </trkpt>
      <trkpt lat="43.8617" lon="6.37041">
        <ele>930</ele>
        <time>2022-06-09T19:55:02Z</time>
      </trkpt>
      <trkpt lat="43.86188" lon="6.37031">
        <ele>930</ele>
        <time>2022-06-09T19:55:06Z</time>
      </trkpt>
      <trkpt lat="43.86209" lon="6.37031">
        <ele>930</ele>
        <time>2022-06-09T19:55:11Z</time>
      </trkpt>
      <trkpt lat="43.86239" lon="6.37019">
        <ele>931</ele>
        <time>2022-06-09T19:55:19Z</time>
      </trkpt>
      <trkpt lat="43.8629" lon="6.37022">
        <ele>931</ele>
        <time>2022-06-09T19:55:31Z</time>
      </trkpt>
      <trkpt lat="43.8631" lon="6.37018">
        <ele>932</ele>
        <time>2022-06-09T19:55:35Z</time>
      </trkpt>
      <trkpt lat="43.86381" lon="6.37">
        <ele>932</ele>
        <time>2022-06-09T19:55:52Z</time>
      </trkpt>
      <trkpt lat="43.86433" lon="6.36975">
        <ele>933</ele>
        <time>2022-06-09T19:56:05Z</time>
      </trkpt>
      <trkpt lat="43.86455" lon="6.36972">
        <ele>932</ele>
        <time>2022-06-09T19:56:10Z</time>
      </trkpt>
      <trkpt lat="43.86479" lon="6.36962">
        <ele>932</ele>
        <time>2022-06-09T19:56:16Z</time>
      </trkpt>
      <trkpt lat="43.86508" lon="6.36954">
        <ele>933</ele>
        <time>2022-06-09T19:56:23Z</time>
      </trkpt>
      <trkpt lat="43.86543" lon="6.3695">
        <ele>935</ele>
        <time>2022-06-09T19:56:31Z</time>
      </trkpt>
      <trkpt lat="43.86569" lon="6.36942">
        <ele>936</ele>
        <time>2022-06-09T19:56:37Z</time>
      </trkpt>
      <trkpt lat="43.86623" lon="6.36896">
        <ele>942</ele>
        <time>2022-06-09T19:56:52Z</time>
      </trkpt>
      <trkpt lat="43.86657" lon="6.36885">
        <ele>946</ele>
        <time>2022-06-09T19:57:00Z</time>
      </trkpt>
      <trkpt lat="43.86676" lon="6.36884">
        <ele>947</ele>
        <time>2022-06-09T19:57:05Z</time>
      </trkpt>
      <trkpt lat="43.86693" lon="6.36885">
        <ele>947</ele>
        <time>2022-06-09T19:57:09Z</time>
      </trkpt>
      <trkpt lat="43.86712" lon="6.3689">
        <ele>947</ele>
        <time>2022-06-09T19:57:13Z</time>
      </trkpt>
      <trkpt lat="43.86731" lon="6.36889">
        <ele>947</ele>
        <time>2022-06-09T19:57:18Z</time>
      </trkpt>
      <trkpt lat="43.86756" lon="6.36875">
        <ele>946</ele>
        <time>2022-06-09T19:57:24Z</time>
      </trkpt>
      <trkpt lat="43.86782" lon="6.36864">
        <ele>945</ele>
        <time>2022-06-09T19:57:30Z</time>
      </trkpt>
      <trkpt lat="43.86826" lon="6.36837">
        <ele>942</ele>
        <time>2022-06-09T19:57:42Z</time>
      </trkpt>
      <trkpt lat="43.86838" lon="6.36833">
        <ele>941</ele>
        <time>2022-06-09T19:57:44Z</time>
      </trkpt>
      <trkpt lat="43.86849" lon="6.36833">
        <ele>939</ele>
        <time>2022-06-09T19:57:47Z</time>
      </trkpt>
      <trkpt lat="43.86877" lon="6.36846">
        <ele>938</ele>
        <time>2022-06-09T19:57:54Z</time>
      </trkpt>
      <trkpt lat="43.86885" lon="6.36861">
        <ele>939</ele>
        <time>2022-06-09T19:57:57Z</time>
      </trkpt>
      <trkpt lat="43.86903" lon="6.36937">
        <ele>943</ele>
        <time>2022-06-09T19:58:11Z</time>
      </trkpt>
      <trkpt lat="43.86904" lon="6.36953">
        <ele>944</ele>
        <time>2022-06-09T19:58:13Z</time>
      </trkpt>
      <trkpt lat="43.86901" lon="6.36962">
        <ele>945</ele>
        <time>2022-06-09T19:58:15Z</time>
      </trkpt>
      <trkpt lat="43.86901" lon="6.36982">
        <ele>947</ele>
        <time>2022-06-09T19:58:18Z</time>
      </trkpt>
      <trkpt lat="43.86909" lon="6.36997">
        <ele>945</ele>
        <time>2022-06-09T19:58:21Z</time>
      </trkpt>
      <trkpt lat="43.86923" lon="6.37012">
        <ele>943</ele>
        <time>2022-06-09T19:58:26Z</time>
      </trkpt>
      <trkpt lat="43.86943" lon="6.37051">
        <ele>945</ele>
        <time>2022-06-09T19:58:34Z</time>
      </trkpt>
      <trkpt lat="43.86947" lon="6.371">
        <ele>947</ele>
        <time>2022-06-09T19:58:42Z</time>
      </trkpt>
      <trkpt lat="43.86952" lon="6.37108">
        <ele>946</ele>
        <time>2022-06-09T19:58:44Z</time>
      </trkpt>
      <trkpt lat="43.86978" lon="6.37117">
        <ele>939</ele>
        <time>2022-06-09T19:58:50Z</time>
      </trkpt>
      <trkpt lat="43.86992" lon="6.3713">
        <ele>934</ele>
        <time>2022-06-09T19:58:54Z</time>
      </trkpt>
      <trkpt lat="43.87007" lon="6.37131">
        <ele>931</ele>
        <time>2022-06-09T19:58:57Z</time>
      </trkpt>
      <trkpt lat="43.8705" lon="6.37116">
        <ele>930</ele>
        <time>2022-06-09T19:59:08Z</time>
      </trkpt>
      <trkpt lat="43.87058" lon="6.3711">
        <ele>930</ele>
        <time>2022-06-09T19:59:10Z</time>
      </trkpt>
      <trkpt lat="43.87076" lon="6.37084">
        <ele>927</ele>
        <time>2022-06-09T19:59:16Z</time>
      </trkpt>
      <trkpt lat="43.87078" lon="6.37074">
        <ele>927</ele>
        <time>2022-06-09T19:59:18Z</time>
      </trkpt>
      <trkpt lat="43.87077" lon="6.37047">
        <ele>928</ele>
        <time>2022-06-09T19:59:22Z</time>
      </trkpt>
      <trkpt lat="43.87046" lon="6.36948">
        <ele>928</ele>
        <time>2022-06-09T19:59:40Z</time>
      </trkpt>
      <trkpt lat="43.87038" lon="6.36888">
        <ele>926</ele>
        <time>2022-06-09T19:59:51Z</time>
      </trkpt>
      <trkpt lat="43.87045" lon="6.36818">
        <ele>926</ele>
        <time>2022-06-09T20:00:03Z</time>
      </trkpt>
      <trkpt lat="43.87043" lon="6.36789">
        <ele>927</ele>
        <time>2022-06-09T20:00:07Z</time>
      </trkpt>
      <trkpt lat="43.87044" lon="6.36757">
        <ele>928</ele>
        <time>2022-06-09T20:00:13Z</time>
      </trkpt>
      <trkpt lat="43.87051" lon="6.36732">
        <ele>929</ele>
        <time>2022-06-09T20:00:17Z</time>
      </trkpt>
      <trkpt lat="43.87066" lon="6.36707">
        <ele>930</ele>
        <time>2022-06-09T20:00:23Z</time>
      </trkpt>
      <trkpt lat="43.87103" lon="6.3667">
        <ele>931</ele>
        <time>2022-06-09T20:00:34Z</time>
      </trkpt>
      <trkpt lat="43.87127" lon="6.3662">
        <ele>931</ele>
        <time>2022-06-09T20:00:44Z</time>
      </trkpt>
      <trkpt lat="43.87145" lon="6.36612">
        <ele>931</ele>
        <time>2022-06-09T20:00:48Z</time>
      </trkpt>
      <trkpt lat="43.87161" lon="6.3662">
        <ele>932</ele>
        <time>2022-06-09T20:00:52Z</time>
      </trkpt>
      <trkpt lat="43.87173" lon="6.36631">
        <ele>934</ele>
        <time>2022-06-09T20:00:55Z</time>
      </trkpt>
      <trkpt lat="43.87192" lon="6.36635">
        <ele>940</ele>
        <time>2022-06-09T20:01:00Z</time>
      </trkpt>
      <trkpt lat="43.87207" lon="6.36649">
        <ele>946</ele>
        <time>2022-06-09T20:01:04Z</time>
      </trkpt>
      <trkpt lat="43.87208" lon="6.36664">
        <ele>948</ele>
        <time>2022-06-09T20:01:07Z</time>
      </trkpt>
      <trkpt lat="43.87202" lon="6.36697">
        <ele>951</ele>
        <time>2022-06-09T20:01:12Z</time>
      </trkpt>
      <trkpt lat="43.87208" lon="6.36702">
        <ele>954</ele>
        <time>2022-06-09T20:01:14Z</time>
      </trkpt>
      <trkpt lat="43.87217" lon="6.36695">
        <ele>956</ele>
        <time>2022-06-09T20:01:16Z</time>
      </trkpt>
      <trkpt lat="43.87263" lon="6.36626">
        <ele>961</ele>
        <time>2022-06-09T20:01:32Z</time>
      </trkpt>
      <trkpt lat="43.87296" lon="6.36563">
        <ele>964</ele>
        <time>2022-06-09T20:01:45Z</time>
      </trkpt>
      <trkpt lat="43.87294" lon="6.36576">
        <ele>966</ele>
        <time>2022-06-09T20:01:48Z</time>
      </trkpt>
      <trkpt lat="43.87219" lon="6.36772">
        <ele>968</ele>
        <time>2022-06-09T20:02:25Z</time>
      </trkpt>
      <trkpt lat="43.8719" lon="6.36878">
        <ele>964</ele>
        <time>2022-06-09T20:02:44Z</time>
      </trkpt>
      <trkpt lat="43.87183" lon="6.36912">
        <ele>964</ele>
        <time>2022-06-09T20:02:50Z</time>
      </trkpt>
      <trkpt lat="43.87178" lon="6.36974">
        <ele>956</ele>
        <time>2022-06-09T20:03:00Z</time>
      </trkpt>
      <trkpt lat="43.87187" lon="6.36994">
        <ele>955</ele>
        <time>2022-06-09T20:03:04Z</time>
      </trkpt>
      <trkpt lat="43.87224" lon="6.36996">
        <ele>960</ele>
        <time>2022-06-09T20:03:13Z</time>
      </trkpt>
      <trkpt lat="43.87239" lon="6.36988">
        <ele>963</ele>
        <time>2022-06-09T20:03:17Z</time>
      </trkpt>
      <trkpt lat="43.87254" lon="6.36973">
        <ele>967</ele>
        <time>2022-06-09T20:03:21Z</time>
      </trkpt>
      <trkpt lat="43.87255" lon="6.36975">
        <ele>967</ele>
        <time>2022-06-09T20:03:22Z</time>
      </trkpt>
      <trkpt lat="43.8725" lon="6.36972">
        <ele>968</ele>
        <time>2022-06-09T20:03:23Z</time>
      </trkpt>
      <trkpt lat="43.87242" lon="6.36983">
        <ele>965</ele>
        <time>2022-06-09T20:03:25Z</time>
      </trkpt>
      <trkpt lat="43.87243" lon="6.36985">
        <ele>964</ele>
        <time>2022-06-09T20:03:26Z</time>
      </trkpt>
      <trkpt lat="43.87246" lon="6.36983">
        <ele>965</ele>
        <time>2022-06-09T20:03:27Z</time>
      </trkpt>
      <trkpt lat="43.8726" lon="6.36951">
        <ele>971</ele>
        <time>2022-06-09T20:03:33Z</time>
      </trkpt>
      <trkpt lat="43.87262" lon="6.36938">
        <ele>973</ele>
        <time>2022-06-09T20:03:35Z</time>
      </trkpt>
      <trkpt lat="43.8726" lon="6.36932">
        <ele>975</ele>
        <time>2022-06-09T20:03:36Z</time>
      </trkpt>
      <trkpt lat="43.87261" lon="6.36923">
        <ele>976</ele>
        <time>2022-06-09T20:03:38Z</time>
      </trkpt>
      <trkpt lat="43.87257" lon="6.36922">
        <ele>977</ele>
        <time>2022-06-09T20:03:39Z</time>
      </trkpt>
    </trkseg>
  </trk>
</gpx>